GFSNW_prec_cloud_024.txt.gz
Cloud_Cover
0 100 100 100 53 76 96 27 100 3 0 0 0 5 5 37 5 5 5 4 2 3 1 0 0 0 0 0 0 0 0 0 0 0 0 0 0 0 0 0 0 6 4 1
93 100 100 20 6 100 77 96 99 0 0 0 4 10 59 55 53 59 6 5 2 4 21 5 0 0 0 1 1 0 0 0 0 0 0 0 0 0 0 0 0 0 3 0
100 100 89 0 100 80 34 100 93 4 5 32 5 62 97 71 74 10 5 5 5 5 5 5 4 1 0 0 0 0 0 0 0 0 0 2 5 3 0 0 0 0 0 0
100 100 99 96 100 13 41 100 31 16 6 5 55 95 53 64 87 80 20 16 5 5 5 5 5 5 0 0 0 0 0 0 0 4 5 5 5 3 2 4 5 5 5 5
100 100 79 100 89 5 100 96 45 17 5 5 14 83 70 100 96 46 42 5 5 5 2 0 0 0 0 0 0 2 5 5 5 12 5 5 5 5 18 5 10 5 5 5
100 100 100 100 62 21 100 100 50 10 5 5 76 62 100 100 52 57 5 5 6 5 5 5 4 8 14 12 7 20 5 5 5 7 5 54 100 5 12 65 46 5 5 5
100 100 100 100 5 92 100 62 5 4 12 57 45 49 90 100 44 47 51 5 66 54 5 5 5 9 69 72 17 5 5 5 5 5 5 74 17 26 5 5 7 11 5 25
100 100 100 100 36 100 91 5 5 9 87 51 18 86 34 70 54 71 9 14 43 73 7 5 5 5 5 5 5 5 5 5 35 5 5 15 96 100 58 12 87 100 5 8
100 100 100 99 99 100 21 5 5 61 98 54 37 83 13 61 84 9 6 6 5 5 57 36 53 33 5 8 71 18 5 5 5 48 5 5 100 100 100 58 98 31 98 53
100 100 100 95 100 100 47 10 10 61 28 69 94 64 50 8 24 18 5 34 25 22 68 83 56 35 36 66 39 40 17 54 5 90 5 65 100 100 100 82 16 55 60 52
100 100 100 99 100 100 99 26 6 25 97 100 98 95 92 100 5 16 5 52 88 89 97 69 29 7 42 90 65 44 5 47 30 60 32 69 100 97 80 11 96 100 100 91
100 100 100 100 100 100 92 27 33 58 71 98 100 100 100 100 40 5 5 15 5 7 46 82 96 99 100 79 95 39 5 5 5 32 64 54 100 98 25 100 100 100 100 100
100 100 100 100 100 100 100 94 42 45 76 65 78 70 100 100 100 100 99 88 18 6 12 63 81 84 100 100 100 99 100 90 100 100 100 100 99 100 100 44 91 98 100 100
100 100 100 100 100 100 100 100 100 100 100 100 100 95 100 100 100 100 100 100 100 34 12 80 97 76 90 97 90 100 100 100 100 86 91 27 100 100 88 36 23 93 100 100
100 100 100 100 100 100 100 100 100 100 100 100 100 97 100 100 99 100 100 100 100 100 100 100 100 100 100 100 100 100 100 97 6 5 5 7 82 77 71 75 100 100 100 100
100 100 100 100 100 100 100 100 100 100 100 100 100 100 100 100 99 96 100 100 100 100 100 100 100 100 93 94 83 100 94 5 5 5 5 12 92 59 53 34 64 66 35 71
100 100 100 100 100 100 100 100 100 100 100 100 100 100 100 100 100 100 100 100 100 100 100 100 100 100 81 73 100 100 87 43 83 26 22 33 25 56 94 88 94 100 100 100
100 100 100 100 100 100 100 100 100 100 100 100 100 100 100 100 100 100 100 100 100 100 100 100 100 99 100 100 100 100 100 99 85 75 51 34 94 100 100 100 100 100 100 100
100 100 100 100 100 100 100 100 100 100 99 84 100 100 100 100 100 100 100 100 100 100 100 100 89 100 100 100 100 100 100 100 100 100 100 100 100 100 100 100 100 100 100 100
100 100 100 100 100 100 100 100 100 99 100 100 100 100 100 100 100 100 100 100 94 98 91 100 100 100 100 100 100 100 100 100 100 100 100 92 100 97 100 100 100 100 100 100
100 100 100 100 100 98 89 92 61 61 86 100 100 100 100 100 100 100 99 99 98 100 62 100 98 100 100 100 100 100 100 100 100 69 83 97 100 100 100 100 100 100 100 100
100 100 100 100 99 100 85 81 100 94 100 100 100 100 100 100 98 100 100 100 100 100 60 100 100 100 100 100 100 100 100 100 100 100 100 100 100 100 100 100 100 100 100 100
100 100 100 100 100 100 100 100 100 100 100 100 100 100 100 100 100 100 100 100 100 100 100 100 100 100 100 100 100 100 100 100 100 100 100 100 100 100 100 100 100 100 100 100
100 100 100 99 100 100 100 100 100 100 100 100 100 100 100 100 100 100 100 100 100 100 100 100 100 100 100 99 99 100 100 100 100 100 100 100 100 100 100 100 100 100 100 99
100 100 100 100 100 100 100 100 100 100 100 100 100 100 100 100 100 100 100 100 100 99 93 100 100 100 97 94 87 98 96 74 89 92 98 98 90 87 94 89 100 100 100 100
100 100 100 100 100 100 100 100 100 100 100 100 100 100 90 100 100 88 100 100 99 100 100 100 100 100 100 100 100 100 100 100 100 100 100 100 100 100 100 100 100 100 100 100
100 100 100 100 100 100 100 100 100 100 100 100 100 82 100 97 95 100 100 100 100 100 100 100 100 100 100 100 100 100 100 100 100 100 100 100 100 100 100 100 100 100 100 100

GFSNW_prec_cloud_027.txt.gz
Cloud_Cover
100 100 26 100 100 75 68 3 5 85 100 100 46 0 5 0 0 0 0 0 3 0 0 0 0 0 0 0 0 0 0 0 0 0 0 0 0 0 0 0 0 1 0 0
100 100 63 100 99 9 34 2 5 100 100 100 6 0 5 0 0 0 1 3 0 0 2 1 0 0 0 0 0 0 0 0 0 0 0 0 0 0 0 0 0 0 1 1
100 99 100 100 87 59 0 4 4 100 100 70 0 4 5 4 5 5 5 4 0 3 5 3 2 0 0 0 0 0 0 0 0 0 0 0 3 5 5 0 0 0 4 4
100 100 100 100 53 1 0 0 21 100 100 10 1 59 5 5 9 66 50 5 2 0 0 5 5 5 4 2 4 0 0 0 0 0 0 4 41 24 2 5 0 5 5 18
100 100 100 97 40 1 0 0 100 100 91 8 2 64 5 11 69 52 66 31 5 5 5 4 5 5 5 5 5 5 5 5 0 5 5 70 97 22 3 5 2 5 11 20
100 100 100 85 24 5 2 46 100 100 5 4 5 5 20 55 72 82 56 13 5 5 5 5 4 5 5 5 5 5 5 5 6 82 17 98 100 30 5 5 5 5 5 5
100 100 100 43 25 96 93 100 100 92 4 5 35 21 5 23 49 37 5 5 5 5 20 5 5 5 34 50 60 73 20 36 86 89 5 63 99 93 12 4 5 5 5 5
100 100 100 100 100 100 100 100 100 16 7 21 5 5 5 63 50 45 6 5 5 5 5 5 5 4 5 5 36 51 6 5 6 5 5 54 100 99 71 4 6 4 4 97
100 100 100 100 100 100 100 100 100 5 6 24 5 7 57 59 17 100 65 10 10 32 5 22 10 23 10 18 5 5 5 5 5 5 5 82 100 100 16 5 38 64 100 100
100 100 100 100 100 100 100 100 100 7 24 5 5 63 48 54 14 78 42 54 5 19 58 31 6 47 34 91 68 12 27 68 8 6 5 28 40 5 6 7 42 100 100 99
100 60 100 100 100 100 100 100 100 7 25 5 8 86 79 70 30 41 7 15 37 38 31 19 15 77 97 100 40 5 5 29 17 24 20 5 5 5 81 93 85 54 30 5
100 100 100 100 100 100 100 100 82 6 5 5 34 66 53 35 20 44 5 9 64 6 5 5 5 95 64 61 96 36 62 24 5 21 7 4 4 5 13 72 99 48 5 5
100 100 100 100 100 100 100 100 93 6 5 6 73 99 67 26 47 36 26 7 20 6 6 46 48 12 63 56 16 76 94 10 42 5 36 17 96 100 96 16 5 5 5 5
100 100 100 100 100 100 100 96 96 66 19 70 82 68 62 96 92 76 58 68 82 86 93 98 87 52 94 98 28 95 100 100 50 100 100 100 100 73 10 5 5 5 6 49
100 100 100 100 100 100 100 100 99 40 5 47 92 46 51 75 88 100 100 100 100 100 100 100 100 100 100 100 100 100 100 100 100 100 54 5 21 30 5 58 44 63 72 60
100 100 100 100 100 100 100 100 86 97 6 71 84 56 75 88 83 68 70 90 97 100 99 98 100 100 100 100 100 100 100 100 100 8 5 5 5 5 6 6 6 19 44 35
100 100 100 100 100 100 100 100 100 100 100 97 88 93 96 99 100 100 100 95 88 87 95 100 100 100 51 72 92 100 100 100 96 5 5 5 5 17 17 8 31 45 88 100
100 100 100 100 100 100 100 100 100 100 100 100 100 100 100 100 100 100 100 100 100 100 100 100 100 100 100 100 100 100 100 98 86 65 26 5 5 20 27 10 47 100 100 100
100 100 100 100 100 100 100 100 100 100 100 100 100 100 100 100 100 100 100 100 100 99 100 100 100 100 100 100 100 100 100 100 100 100 98 79 68 100 100 100 100 100 100 100
100 100 100 100 100 100 100 100 100 100 100 100 100 100 100 100 100 100 100 100 100 100 100 100 100 100 100 100 100 100 100 100 100 99 97 100 100 100 100 100 100 100 100 100
100 100 100 100 100 100 99 98 85 100 100 100 100 100 100 100 100 100 99 100 90 99 100 100 100 100 100 100 100 100 100 100 100 100 100 100 100 100 100 100 100 99 100 100
100 100 100 100 100 90 96 100 100 100 100 100 100 100 100 100 100 100 88 79 98 99 83 100 100 100 100 100 100 100 100 100 100 100 100 100 100 100 100 100 100 100 100 100
100 100 100 100 100 97 83 100 100 100 100 100 100 100 100 100 100 100 100 100 100 93 98 100 100 100 100 100 100 100 100 100 100 100 100 100 100 100 100 100 100 100 100 100
100 100 100 88 74 100 100 100 100 100 100 100 100 100 100 100 100 100 100 100 100 100 100 100 100 100 100 100 100 98 99 94 92 86 78 69 65 71 88 97 96 99 100 100
100 100 100 100 100 100 100 100 100 100 100 100 100 100 100 100 100 100 100 95 98 100 99 100 100 100 100 100 100 100 100 100 100 100 100 100 100 100 100 100 100 100 100 100
100 99 100 100 100 100 100 100 100 100 100 100 100 100 97 99 96 92 100 100 99 93 100 100 100 100 100 100 100 94 78 73 68 89 96 100 100 100 100 100 100 100 99 94
100 100 100 100 100 100 100 100 100 100 100 100 91 98 100 88 97 100 100 98 97 100 100 100 100 100 100 100 97 99 100 100 100 100 100 99 70 28 40 63 64 30 32 51

GFSNW_prec_cloud_030.txt.gz
Cloud_Cover
64 100 100 100 100 100 100 100 5 18 40 24 76 50 100 5 5 5 5 0 0 0 0 0 1 0 0 0 0 0 0 0 0 0 0 0 0 0 0 0 0 0 0 0
100 100 100 100 100 64 100 99 16 48 29 48 100 94 100 5 0 0 0 0 0 0 2 5 0 0 0 0 0 0 0 0 0 0 0 0 0 0 0 0 5 5 25 0
100 100 100 100 100 84 100 64 95 83 6 100 96 100 100 12 0 0 0 0 3 5 1 0 1 0 0 0 0 0 0 0 0 0 4 2 0 5 5 5 5 5 1 5
100 100 99 100 100 77 7 7 5 79 58 100 100 100 100 5 0 0 0 0 5 4 0 3 5 3 0 0 0 0 0 0 4 5 5 5 5 41 24 9 5 5 2 5
100 100 100 100 100 66 3 5 9 5 93 100 100 100 93 5 0 0 2 5 5 2 0 4 0 5 5 1 2 3 2 5 7 23 5 5 90 92 5 5 5 5 5 5
100 100 100 100 100 31 0 5 5 6 100 100 100 100 8 33 5 6 5 40 5 5 5 2 3 5 5 6 8 23 25 6 5 5 5 61 100 13 6 5 5 4 4 5
100 100 100 100 99 17 0 0 5 26 100 93 100 100 5 86 32 5 57 49 14 15 5 4 0 0 5 25 31 58 38 43 5 5 49 100 100 11 3 0 0 0 1 5
100 100 100 100 84 0 0 0 2 56 98 100 100 67 14 97 54 5 34 71 49 5 5 4 4 10 10 6 62 58 41 8 5 68 5 93 100 57 8 4 5 0 2 5
100 100 100 100 38 2 1 5 2 30 98 100 100 6 5 40 56 24 45 14 22 5 5 5 5 5 5 5 5 5 5 5 5 6 67 41 74 7 5 5 5 98 37 6
100 100 100 100 62 7 26 23 4 11 100 100 96 8 27 16 68 44 17 35 22 5 20 91 5 5 5 5 5 71 27 44 40 7 35 87 30 5 15 33 57 72 10 76
100 100 100 100 100 100 80 48 5 95 100 100 7 68 45 38 46 99 52 31 69 31 47 69 14 44 12 5 5 5 12 8 50 6 64 52 5 40 75 54 19 58 100 63
100 100 100 100 100 100 100 100 100 100 100 91 5 100 49 18 19 57 46 92 66 100 100 50 63 96 68 7 14 6 6 7 5 5 5 5 5 5 5 5 5 96 100 27
100 100 100 100 100 99 100 100 100 100 100 42 5 97 9 5 22 99 97 62 97 46 7 57 86 100 66 81 66 37 51 5 5 5 6 4 3 1 4 95 100 60 5 5
100 100 100 100 100 100 100 100 100 100 100 99 10 38 19 5 15 85 96 97 28 13 34 17 66 88 84 42 9 78 54 5 2 5 5 8 44 69 100 100 28 5 5 6
100 100 100 100 100 100 100 100 100 100 82 73 11 10 49 81 91 75 64 30 14 6 22 62 64 92 99 95 96 100 100 100 100 100 100 97 88 89 56 6 29 5 5 6
100 100 100 100 100 100 99 100 100 100 97 54 88 6 55 96 100 100 93 60 81 46 42 95 100 100 100 100 100 100 100 91 14 5 5 15 63 81 19 6 5 5 5 5
100 100 100 100 100 100 100 100 100 100 95 73 94 48 20 40 55 80 96 96 99 100 100 100 100 93 19 85 99 100 100 100 100 100 100 30 5 5 5 5 13 42 98 100
100 100 100 100 100 100 100 100 100 100 93 8 66 57 48 73 95 97 92 99 54 87 100 94 100 84 100 100 100 100 100 100 100 99 16 10 28 26 93 100 100 100 100 100
100 100 100 100 100 99 100 100 100 100 100 62 100 83 74 88 99 94 98 69 100 85 97 100 92 100 100 100 100 100 100 100 100 92 77 92 99 100 100 100 100 100 100 100
100 100 100 100 100 100 100 100 100 100 100 75 100 90 92 98 95 100 100 100 82 97 85 100 100 100 100 100 100 100 100 72 100 100 100 100 100 100 100 100 98 96 100 100
100 100 100 100 100 100 100 100 100 100 100 100 100 100 100 100 100 100 100 100 100 99 100 100 100 100 100 100 100 100 98 83 78 100 100 100 100 100 100 100 100 100 89 97
100 100 100 100 100 100 87 100 99 100 100 100 100 100 100 100 100 100 100 99 93 98 100 100 100 100 100 100 100 100 100 100 100 100 100 100 100 100 100 100 98 100 100 100
100 100 100 100 95 98 100 100 100 100 100 100 100 100 100 100 100 99 100 100 100 52 100 100 100 100 100 100 100 100 100 100 100 100 100 100 100 100 100 100 100 100 38 13
100 100 100 100 100 99 100 100 100 100 100 100 100 100 100 100 100 100 100 100 100 100 100 100 100 100 100 100 100 100 100 100 100 100 100 99 98 96 98 90 75 95 97 73
100 100 100 100 100 100 100 100 100 100 100 100 100 100 100 100 100 100 100 100 100 96 100 100 100 100 100 100 100 100 100 100 98 57 15 20 34 58 82 86 67 7 5 5
100 100 100 100 100 100 100 100 100 100 100 100 100 100 100 100 100 100 100 100 97 99 99 100 100 100 100 100 95 94 85 90 74 54 67 66 34 13 51 50 7 5 31 21
100 100 100 100 100 100 100 100 100 100 100 100 100 100 100 100 100 100 100 91 92 98 100 100 100 100 100 100 94 91 69 74 49 22 46 64 58 26 5 5 8 4 5 5

GFSNW_prec_cloud_033.txt.gz
Cloud_Cover
100 100 100 100 100 100 100 100 100 100 100 100 100 100 100 10 5 5 28 0 96 10 2 3 4 25 5 0 0 0 2 4 5 2 2 5 5 4 5 0 0 0 0 0
100 100 100 100 100 100 100 100 100 100 100 100 90 100 63 43 5 34 5 5 5 5 2 0 0 2 1 0 0 0 0 0 4 6 0 0 0 0 0 0 0 0 25 0
100 100 64 100 100 100 100 100 100 100 100 72 99 99 5 5 9 57 5 4 11 0 1 0 4 0 0 0 0 0 0 0 5 5 70 10 0 0 0 1 0 0 0 0
98 100 95 100 100 100 100 100 100 100 100 20 100 69 5 6 57 89 2 4 0 5 5 5 5 5 0 0 0 0 0 0 1 0 0 0 0 2 5 5 1 5 0 5
100 48 100 100 100 100 100 100 100 100 99 7 83 65 13 66 100 100 1 2 0 5 36 5 67 3 5 1 0 0 0 0 0 0 0 0 5 5 5 0 5 5 5 10
94 81 100 100 100 88 55 66 100 100 72 17 78 14 79 99 100 100 5 1 5 35 7 4 2 18 5 6 5 1 0 0 0 0 3 5 5 5 0 3 5 2 5 30
58 100 100 100 100 38 54 48 100 100 38 86 99 67 100 100 100 100 0 4 5 5 5 4 0 0 5 5 2 0 0 0 3 7 5 54 5 2 3 5 5 4 5 5
89 100 100 100 100 61 99 100 91 99 67 74 77 100 100 100 100 87 2 0 5 19 5 2 0 5 8 0 2 5 4 2 5 20 5 44 5 5 5 5 4 2 5 4
100 100 100 100 100 99 75 100 79 100 5 51 37 100 100 100 100 62 4 0 19 55 5 2 5 5 5 5 5 5 5 5 8 5 66 65 38 5 5 5 0 19 6 2
100 100 100 100 100 80 99 98 91 97 5 5 84 100 55 100 100 12 5 5 5 25 11 91 5 5 5 5 5 67 5 43 38 5 35 5 12 5 5 5 22 5 5 5
100 100 100 100 88 99 100 100 100 51 8 5 74 20 100 100 100 66 2 9 83 64 29 28 5 35 22 6 5 5 5 6 41 6 63 63 22 47 55 23 9 19 19 5
100 100 100 100 100 85 100 100 79 7 2 5 5 41 100 100 42 7 5 13 8 54 58 46 14 93 69 10 5 5 5 6 5 5 5 6 5 5 5 19 9 5 5 5
100 100 100 100 100 26 94 98 4 0 0 5 7 53 100 100 24 36 5 79 80 97 53 5 26 96 14 79 16 5 5 5 5 6 14 5 5 5 5 5 5 6 9 26
100 98 100 100 100 90 100 100 74 9 9 90 97 100 100 87 14 19 70 100 100 100 95 5 85 100 100 55 16 10 5 5 5 38 6 5 5 7 60 71 15 5 5 5
100 100 100 100 100 100 100 100 100 49 0 57 100 100 100 19 74 5 95 100 100 100 95 66 99 90 66 33 5 35 24 5 5 5 71 95 100 92 16 4 21 83 5 5
100 100 100 100 100 100 100 100 100 67 5 98 100 100 59 8 100 30 19 92 100 100 100 100 100 99 62 80 49 59 81 98 100 100 100 33 8 5 27 100 90 46 6 10
100 100 100 100 100 100 100 100 100 100 77 100 100 100 35 42 99 90 86 95 68 92 95 87 61 83 16 75 68 100 100 100 100 40 5 85 16 32 97 68 92 93 100 100
100 100 100 100 100 100 100 100 100 100 100 100 91 96 85 29 69 86 62 48 50 39 80 68 82 44 60 70 100 100 98 85 67 26 48 45 52 77 93 100 100 57 84 100
100 100 100 100 99 100 100 100 100 100 100 100 100 100 100 39 88 93 89 47 100 85 100 100 85 100 100 100 98 64 54 86 97 84 92 94 100 98 100 90 78 81 80 66
100 88 95 100 100 100 100 100 100 100 86 100 100 85 51 55 97 100 80 100 82 96 80 74 100 100 97 86 89 89 90 94 100 100 100 100 100 68 86 100 98 100 100 96
100 86 100 100 100 100 100 100 100 96 78 75 100 100 93 95 88 100 93 95 85 96 57 99 100 100 100 100 82 86 80 100 98 100 66 71 80 95 96 100 100 100 100 100
100 100 100 100 100 100 100 100 100 100 100 100 100 100 100 100 96 82 75 88 94 92 78 100 98 100 100 100 95 100 100 99 83 98 100 100 100 100 100 100 100 100 100 100
100 100 100 100 100 100 100 100 100 100 100 100 100 100 100 100 97 98 94 100 94 96 100 100 100 100 100 100 100 100 100 100 100 100 100 100 100 100 100 100 100 100 76 33
100 100 100 100 100 100 100 100 100 100 100 100 100 100 100 100 100 100 100 100 99 100 100 98 100 100 100 100 100 100 100 100 100 100 100 100 100 100 99 97 75 58 6 6
100 99 100 100 100 100 100 100 100 100 100 100 100 100 100 100 100 100 100 100 100 100 100 100 100 100 100 100 100 100 100 100 100 100 100 100 84 36 20 22 7 6 5 5
100 100 100 100 100 100 100 100 100 100 100 100 100 100 100 100 100 100 100 100 100 100 100 100 100 100 100 100 100 100 96 92 86 62 44 78 44 31 67 8 4 5 5 5
100 100 100 100 100 100 100 100 100 100 100 100 100 100 100 100 100 100 100 100 100 100 100 100 100 100 100 100 100 93 100 100 92 100 52 61 44 5 5 5 4 0 5 5

GFSNW_prec_cloud_036.txt.gz
Cloud_Cover
100 100 55 3 0 86 100 100 100 100 100 100 100 100 100 100 100 100 100 62 92 2 89 74 93 89 28 8 8 100 99 97 32 85 100 100 100 98 26 6 5 0 0 0
100 100 99 5 11 74 100 100 97 100 100 100 100 100 100 100 100 100 29 80 6 18 8 96 81 100 74 5 20 16 63 100 99 100 100 85 21 2 0 5 4 0 24 0
100 100 100 100 10 50 100 100 93 100 100 96 100 100 100 100 100 100 100 96 5 8 0 5 5 7 2 1 0 1 4 10 2 3 27 56 62 5 4 2 1 0 0 0
100 100 100 98 28 66 100 100 70 100 100 100 100 100 100 100 100 100 42 26 5 5 4 4 4 5 0 0 0 0 0 0 0 1 27 64 8 47 56 5 2 0 0 0
99 100 100 99 62 100 100 100 74 100 100 100 100 100 100 100 100 100 98 47 5 11 13 4 5 20 2 0 0 5 0 0 0 0 0 0 0 0 0 0 0 0 0 0
81 100 97 100 100 100 100 100 100 100 100 100 100 100 100 100 100 68 5 5 33 44 84 34 7 55 82 84 2 0 2 0 0 0 0 0 2 0 0 0 0 1 1 5
87 22 100 100 100 100 100 100 92 100 100 66 93 100 100 100 100 100 69 36 89 32 5 5 8 2 32 35 5 5 5 0 1 0 0 3 0 0 0 0 0 0 5 67
98 36 95 100 100 100 93 100 93 98 100 88 100 100 92 62 98 100 97 73 58 55 0 0 0 5 5 2 5 5 5 0 0 23 0 0 0 0 0 5 0 2 5 5
99 16 5 7 100 100 100 100 100 64 100 86 100 100 80 20 66 100 10 99 62 5 0 0 0 5 5 5 0 0 0 0 0 0 0 4 0 0 0 0 0 5 4 5
99 43 6 72 100 100 100 99 94 100 100 100 100 100 30 100 92 100 100 100 82 13 11 85 0 2 7 5 4 35 3 5 38 1 31 2 5 5 5 5 5 4 5 5
100 8 5 100 100 100 100 98 98 99 77 100 100 100 35 98 97 100 100 100 85 47 26 28 4 31 4 4 4 5 5 7 49 26 70 62 5 7 32 5 23 11 5 7
15 5 91 100 100 100 100 98 12 56 100 71 32 91 88 93 99 100 100 100 100 83 8 37 16 92 66 5 5 5 5 7 5 6 5 5 7 14 5 81 52 5 9 5
59 86 100 100 100 99 74 100 100 100 100 100 14 51 9 48 100 100 100 100 100 62 0 3 13 96 6 77 5 5 6 44 5 38 5 5 5 5 82 38 32 97 47 86
99 98 100 100 100 100 100 92 100 100 100 100 31 0 9 100 100 100 100 100 100 18 5 5 68 88 6 5 5 5 15 99 21 99 6 5 5 85 45 10 57 100 99 100
100 100 100 100 100 100 100 100 100 100 100 51 99 10 95 100 100 100 100 100 100 6 20 70 99 70 79 7 5 5 65 92 100 15 73 50 5 8 68 90 97 100 92 5
100 100 100 100 100 100 100 100 100 100 44 5 70 97 29 77 42 73 100 100 100 5 17 63 100 100 100 96 94 19 97 41 14 5 5 5 5 80 100 100 100 27 5 5
100 100 100 100 100 100 100 100 100 64 100 29 98 87 77 93 10 63 100 100 46 5 10 90 100 100 100 100 99 100 100 100 100 42 21 32 77 100 100 83 68 57 8 18
100 100 100 100 100 100 100 100 100 100 48 20 85 100 89 84 89 94 100 100 57 16 57 100 100 100 100 100 100 100 100 100 84 48 10 38 99 64 89 70 45 46 54 44
100 100 100 100 100 100 100 100 100 96 82 100 99 100 100 99 88 99 100 96 94 80 96 78 26 98 86 100 78 84 97 98 82 78 90 66 67 71 66 87 57 18 8 50
100 100 100 100 100 100 100 100 100 100 100 100 100 100 88 82 100 100 100 95 82 86 99 83 99 92 84 100 100 100 99 90 35 35 74 61 75 77 96 98 97 100 100 100
100 100 100 100 100 100 99 100 100 100 100 100 100 78 98 83 93 100 78 89 76 39 46 61 90 100 100 98 66 66 58 97 97 83 96 90 94 100 100 100 97 83 85 97
100 100 100 100 100 100 100 100 100 100 100 100 100 100 100 100 100 100 100 96 83 59 70 88 94 100 94 84 93 94 100 100 100 96 100 67 68 98 100 99 87 100 100 100
100 100 100 100 96 100 100 100 100 100 100 100 100 100 100 100 100 100 100 100 79 26 99 73 94 100 100 100 100 100 100 100 100 100 100 100 100 100 100 100 100 100 100 100
100 100 100 100 100 100 100 100 100 100 100 100 100 100 100 100 100 100 100 100 100 100 100 97 100 100 100 100 100 100 100 89 99 100 100 100 100 100 100 100 100 90 14 9
100 100 100 100 100 100 100 100 100 100 100 100 100 100 100 100 100 100 100 100 100 100 100 100 100 100 100 100 100 100 100 100 100 100 100 100 100 100 100 90 44 21 6 5
100 100 100 100 100 100 100 100 100 100 100 100 100 100 100 100 100 100 100 100 73 99 100 100 100 100 100 100 100 100 100 100 100 100 100 100 100 89 83 67 12 5 5 5
100 100 100 100 100 100 100 100 100 100 100 100 100 100 100 100 100 100 100 100 100 100 100 100 100 100 100 100 100 100 100 100 100 100 100 100 96 60 32 5 5 5 5 5

GFSNW_prec_cloud_039.txt.gz
Cloud_Cover
100 100 100 100 86 0 99 100 100 97 100 100 95 100 100 100 100 25 100 100 100 6 5 99 5 0 39 70 13 58 94 99 100 100 100 70 58 29 99 70 73 100 15 0
100 100 100 100 98 53 96 100 100 96 87 84 6 94 100 100 100 100 100 100 99 5 37 100 30 4 53 96 98 5 80 91 65 88 83 81 93 81 100 100 98 74 1 0
100 100 100 100 100 56 100 100 100 100 84 41 46 74 100 100 100 78 100 100 100 100 11 100 99 4 28 24 24 100 75 94 100 77 77 11 67 71 36 7 44 1 0 0
100 93 100 100 100 97 100 100 78 7 100 85 4 67 95 100 100 100 100 100 100 100 17 98 96 6 5 3 0 4 11 22 34 42 5 38 46 36 5 72 2 3 0 0
100 10 100 100 100 97 100 100 100 92 100 100 5 5 99 100 100 100 100 100 100 43 50 4 5 1 4 0 0 0 0 0 0 0 0 0 5 2 5 5 0 0 5 1
100 97 17 100 100 100 100 100 100 98 100 100 5 2 80 100 100 100 100 100 100 57 15 3 5 41 3 0 2 0 0 0 0 0 0 0 0 0 0 0 0 0 0 0
5 67 22 100 100 67 100 100 100 93 25 43 73 100 100 100 100 100 100 100 100 81 40 42 84 12 5 15 69 4 0 0 5 0 0 0 0 0 0 0 0 0 4 5
9 67 99 100 100 20 98 100 100 83 98 5 85 100 100 100 100 100 100 100 100 91 70 11 16 31 29 1 57 50 2 23 5 1 0 0 0 0 0 0 0 0 5 0
41 100 100 96 37 5 100 100 100 100 100 4 16 100 100 100 100 100 100 100 100 8 82 91 10 20 4 0 0 0 5 2 5 0 0 1 0 0 0 0 0 5 1 0
89 100 100 34 38 62 100 100 100 100 100 55 78 68 14 100 100 100 100 96 100 63 80 90 6 58 1 0 0 5 9 1 0 8 12 0 5 1 0 0 1 5 3 5
100 100 87 56 78 71 87 100 100 100 100 65 85 100 100 43 80 91 83 100 100 98 83 53 30 24 1 5 4 5 5 39 6 67 58 12 22 5 1 4 6 5 5 5
100 100 65 89 98 3 96 100 98 100 100 91 100 100 100 69 99 100 100 100 100 100 99 92 99 85 86 0 0 2 5 2 0 0 0 0 5 5 55 94 5 5 5 5
61 38 5 84 5 89 100 100 100 100 100 98 100 96 70 100 100 100 21 18 100 100 100 89 88 98 4 0 2 5 5 1 2 0 5 5 9 49 96 100 10 17 12 27
46 33 5 5 13 100 100 100 100 100 100 100 92 65 100 100 100 100 8 100 100 100 100 99 100 100 5 0 0 4 52 7 5 5 5 11 6 75 100 100 92 64 90 97
24 29 26 39 100 100 100 100 100 97 100 100 100 92 100 100 100 100 24 100 100 100 99 85 93 100 6 0 4 5 82 65 6 8 5 6 5 16 65 35 59 66 37 41
7 7 94 100 100 100 100 100 100 100 100 100 100 100 100 100 100 100 100 100 100 100 14 79 100 100 24 64 4 17 14 31 59 19 24 100 100 100 43 5 15 12 5 6
64 96 100 100 100 100 100 100 100 100 100 100 100 100 100 100 100 100 76 100 100 97 69 91 100 100 67 73 6 100 94 100 100 100 100 100 100 100 82 98 67 7 34 18
96 100 100 100 100 100 100 100 100 100 100 100 100 100 100 100 100 91 41 100 92 75 50 76 100 100 80 6 46 100 100 100 100 100 100 100 100 100 84 19 5 35 51 43
100 100 100 100 100 100 100 100 100 100 100 100 100 100 100 100 100 89 97 100 89 80 90 72 100 100 79 78 87 100 100 100 100 100 100 72 35 52 31 52 35 49 94 98
100 100 100 100 100 100 100 100 100 100 100 96 100 100 100 100 100 100 88 99 87 67 87 92 100 100 96 100 97 100 100 100 96 27 22 12 51 55 82 58 66 98 89 99
100 100 100 100 83 22 83 100 100 100 94 70 88 100 100 100 89 100 93 100 97 76 49 52 83 100 100 91 100 100 100 100 78 18 30 91 84 85 100 99 100 100 89 91
100 91 100 92 94 53 35 100 100 92 100 98 100 100 100 100 97 79 77 66 61 82 87 92 96 100 100 100 100 100 100 100 100 100 100 100 100 100 100 100 100 99 92 100
100 100 99 97 97 96 33 68 91 94 100 100 100 100 100 100 100 100 100 100 82 10 95 100 100 100 100 100 100 100 100 100 100 100 100 100 100 99 99 100 100 98 100 100
100 100 81 100 100 100 100 100 100 100 100 100 100 100 100 100 100 100 97 100 96 88 100 100 100 100 100 100 100 100 100 100 100 100 100 100 100 100 100 100 100 100 100 100
100 100 100 100 100 100 100 100 100 100 100 100 100 100 100 100 100 100 100 100 95 100 100 100 100 100 100 100 100 100 100 100 100 100 100 100 100 100 100 100 100 100 100 100
100 100 100 100 100 100 100 100 100 100 100 100 100 100 100 100 100 100 100 100 100 100 100 100 100 100 100 100 100 100 100 100 100 100 100 100 100 100 100 100 100 100 100 100
100 100 100 100 100 100 100 100 100 100 100 100 100 100 100 100 100 100 100 100 100 100 100 100 100 100 100 100 100 100 100 100 100 100 100 100 100 100 100 100 100 100 100 100

GFSNW_prec_cloud_045.txt.gz
Cloud_Cover
5 36 100 100 100 100 100 83 72 90 100 100 100 73 100 100 100 97 98 100 100 73 82 5 66 2 0 5 0 0 0 0 5 5 13 5 10 7 99 92 100 18 5 30
32 17 100 100 100 100 100 100 74 95 13 89 100 100 100 100 100 100 100 100 100 70 24 82 73 4 3 5 0 0 0 1 3 5 4 4 5 83 100 100 93 54 5 5
92 98 100 100 100 100 100 100 78 100 100 2 6 83 100 100 100 100 100 100 100 56 8 8 68 12 14 12 3 3 0 5 5 5 3 4 6 6 16 24 86 13 57 26
100 100 100 98 100 100 100 98 87 41 100 89 44 27 100 100 100 100 100 96 63 100 94 99 100 76 69 5 5 5 2 0 2 38 5 11 5 9 5 5 5 13 61 5
100 100 100 100 100 100 100 100 66 59 89 51 96 21 57 100 100 100 100 100 100 100 100 100 100 96 5 5 19 5 4 5 5 48 5 16 58 75 51 14 15 50 85 93
100 99 94 100 100 100 100 99 89 45 23 59 100 33 29 100 100 100 100 100 100 100 100 100 100 81 48 81 38 4 86 20 3 4 3 22 41 22 0 0 0 0 80 10
100 99 99 100 98 27 100 98 23 100 25 90 10 5 100 100 100 100 100 100 100 100 100 100 100 77 91 33 39 71 5 5 5 3 4 0 0 0 0 0 0 0 0 3
100 100 100 54 18 63 100 99 63 100 96 8 34 47 6 100 100 100 100 99 100 100 100 99 100 42 41 98 96 5 3 0 0 2 4 0 0 0 0 0 0 0 0 0
100 100 47 51 4 43 100 100 24 100 100 32 4 62 7 99 100 100 30 73 100 100 89 93 21 88 100 100 100 5 3 1 2 20 17 5 0 0 3 4 5 5 0 0
100 100 18 4 5 77 100 100 100 100 100 95 44 4 5 20 100 100 100 100 100 100 96 93 74 98 100 100 100 8 6 20 1 22 75 48 0 0 14 5 1 0 0 0
100 58 16 33 88 100 100 100 100 100 100 67 52 24 5 4 2 2 27 100 97 100 31 96 98 100 100 100 99 85 2 14 0 0 3 17 0 1 3 0 0 0 0 2
100 65 21 5 100 100 100 100 100 100 100 100 81 0 0 4 1 0 5 61 71 100 100 100 100 100 100 100 100 54 5 0 2 3 5 20 5 0 0 5 5 2 5 5
93 99 94 6 47 100 100 100 100 100 100 100 60 3 0 0 0 0 35 99 39 100 100 100 100 100 100 100 100 97 6 5 1 2 85 70 49 5 0 1 5 5 5 11
100 100 44 5 5 57 100 84 100 100 100 91 30 96 83 3 3 0 3 5 96 100 100 100 100 100 100 100 68 100 100 7 51 5 90 20 87 40 5 2 4 5 34 86
100 100 100 5 77 98 36 57 100 100 99 100 100 100 84 6 1 0 0 29 100 100 100 100 100 100 100 100 100 100 100 100 97 5 5 99 54 78 98 94 82 64 66 83
99 78 6 5 4 9 89 100 100 100 100 100 100 28 87 99 32 5 5 100 100 100 100 100 100 100 100 100 100 100 100 100 100 100 95 5 57 96 100 100 100 100 100 100
100 79 55 26 69 100 55 44 52 100 100 100 100 100 100 100 96 100 100 100 100 100 100 100 100 100 100 100 38 100 100 100 100 100 98 100 72 9 38 79 100 100 100 100
100 100 100 100 100 100 36 35 100 100 100 100 100 100 100 98 100 100 100 100 100 100 100 100 100 100 100 100 100 100 100 100 100 100 100 100 100 57 42 5 27 62 76 85
98 96 100 100 92 43 30 100 100 83 62 100 100 100 100 99 100 100 100 100 100 100 100 100 100 100 100 100 100 100 100 91 96 100 100 100 100 68 16 23 5 5 20 44
55 76 100 98 46 100 100 100 100 99 100 100 100 100 100 100 100 100 100 100 100 100 100 100 99 100 100 100 100 100 100 100 100 100 100 100 100 100 17 5 10 90 100 100
100 100 100 99 100 100 100 100 100 100 100 100 100 100 100 100 100 100 100 100 100 100 100 100 100 100 100 100 100 100 100 100 100 100 100 100 100 100 48 77 100 100 100 100
100 100 100 100 100 94 100 100 100 100 100 100 100 100 100 100 100 100 100 100 100 100 100 100 100 100 100 100 100 100 100 100 100 100 100 100 100 100 100 100 100 100 100 100
100 100 100 100 100 100 100 100 100 100 100 100 100 100 100 100 100 100 100 100 100 100 100 100 100 100 100 99 100 100 100 100 100 100 100 100 100 100 100 100 100 100 100 100
100 100 100 100 100 100 100 100 100 100 100 100 100 100 100 100 100 100 96 100 99 83 68 86 95 100 100 100 100 100 100 100 100 100 100 100 100 100 100 100 100 100 100 100
100 100 100 100 100 100 100 100 100 100 100 100 100 100 100 98 100 99 83 100 100 86 93 100 100 100 100 100 100 100 100 100 100 100 100 100 100 100 100 100 100 100 100 100
100 100 100 100 100 100 100 100 100 100 100 100 100 100 100 100 86 92 92 100 100 100 100 100 100 100 100 85 100 100 100 100 100 100 100 100 100 100 100 100 100 100 100 100
88 99 100 100 100 100 100 100 100 100 100 100 76 90 100 100 100 100 100 100 100 100 100 100 100 100 100 100 100 100 100 100 100 100 100 100 100 100 100 100 100 100 100 100

GFSNW_prec_cloud_048.txt.gz
Cloud_Cover
100 95 5 5 81 100 100 100 94 4 12 100 100 100 100 100 100 100 100 49 100 100 100 35 16 100 76 5 5 5 0 0 1 5 5 5 5 5 5 27 48 45 98 100
100 100 9 7 100 100 100 100 94 98 6 87 87 53 100 100 100 100 100 100 99 88 100 86 80 100 47 5 5 5 0 0 0 1 4 4 5 4 5 5 11 38 82 90
100 100 100 74 100 100 100 100 99 100 100 0 3 10 87 100 100 100 100 100 100 96 100 100 98 100 8 5 5 3 42 19 0 0 0 1 3 0 4 4 22 52 88 97
100 100 100 100 75 100 100 100 100 31 100 58 2 4 26 100 100 100 100 100 100 100 100 100 100 100 78 62 5 11 78 39 4 0 1 5 5 4 50 40 4 6 99 60
100 100 100 100 100 100 100 100 89 71 11 4 53 6 30 100 100 100 100 100 100 100 100 100 100 100 100 51 5 49 66 57 3 0 0 4 1 2 6 5 5 5 5 17
100 100 100 100 100 100 100 99 95 6 69 46 60 5 5 100 100 100 100 100 100 100 100 100 100 100 99 6 7 5 5 37 6 4 55 92 3 53 60 5 5 5 45 0
100 100 100 100 47 53 69 100 85 49 62 88 16 2 5 100 100 100 100 100 100 100 100 100 100 100 100 81 79 23 20 98 30 76 99 5 0 0 0 0 0 0 0 0
100 100 100 100 99 89 81 57 96 41 54 47 8 59 5 6 100 100 100 100 100 100 100 100 100 93 66 64 32 63 99 100 49 96 5 5 5 0 0 0 0 0 0 0
100 100 100 100 100 96 94 75 100 89 100 14 10 74 91 5 100 97 100 100 100 100 100 98 80 100 100 100 100 99 100 100 57 10 4 5 5 0 0 0 0 0 0 0
100 100 100 100 100 100 79 97 100 100 100 19 17 12 5 28 100 100 100 100 100 100 100 100 100 100 100 100 99 100 100 71 78 18 3 5 5 97 20 2 1 0 0 0
100 100 100 100 100 95 64 7 100 100 100 100 78 23 5 5 5 64 87 100 84 96 91 100 100 100 100 100 100 100 100 65 6 5 2 9 6 3 1 0 0 0 0 0
100 100 100 100 100 70 35 54 100 100 100 100 100 66 25 3 0 6 14 93 73 86 100 100 100 100 100 100 100 100 100 89 78 5 5 13 5 0 0 1 4 4 0 0
100 100 100 100 100 90 36 100 100 100 100 80 91 50 55 5 2 5 2 4 62 83 96 95 100 100 100 100 100 100 100 53 85 5 73 54 2 0 0 0 4 5 5 1
100 100 100 100 84 17 37 98 100 100 91 82 83 38 28 3 2 4 5 2 47 95 100 100 100 100 100 100 100 100 98 19 94 81 100 99 4 4 5 5 5 5 40 31
100 100 100 100 98 94 58 100 100 100 94 66 100 81 37 5 18 12 1 2 20 100 72 54 99 100 100 100 100 100 100 100 100 100 100 100 100 97 74 47 28 5 9 48
100 100 100 100 100 100 100 100 100 100 100 86 91 56 12 5 42 87 57 0 4 55 99 100 100 100 100 100 100 100 100 100 100 100 100 100 100 100 100 100 100 61 13 8
100 100 100 100 100 80 97 98 99 97 92 100 100 51 54 96 100 71 28 5 9 5 18 51 50 100 100 100 100 100 100 100 100 100 100 100 100 100 100 100 100 100 100 94
100 100 98 86 69 75 100 95 97 88 100 100 100 90 64 97 100 100 100 98 34 53 63 77 73 100 100 97 100 100 100 100 100 100 100 100 100 84 100 100 100 100 100 100
96 90 84 89 62 36 100 99 45 54 99 100 100 100 99 86 100 100 91 76 95 69 94 91 100 100 98 85 100 100 100 100 100 100 100 100 100 98 100 100 100 100 100 94
25 97 100 99 48 21 34 100 100 100 99 65 94 89 100 45 100 100 100 96 99 99 98 100 100 100 100 100 100 100 100 100 100 100 100 100 100 100 100 100 100 99 100 100
94 58 89 77 100 100 100 100 100 100 100 100 100 100 100 56 99 100 100 100 100 100 100 100 100 100 100 100 100 100 100 100 100 100 100 100 100 100 100 80 100 100 100 100
97 97 22 66 100 100 100 100 100 100 100 100 100 100 100 100 100 100 100 100 100 100 100 98 100 90 100 100 100 100 100 100 100 100 100 99 100 81 100 100 100 100 100 100
100 100 100 100 100 100 100 100 100 100 100 100 100 100 100 100 100 100 100 100 100 100 100 100 100 100 100 100 100 100 100 100 100 100 100 100 100 100 100 100 100 100 100 100
100 100 100 100 100 100 100 100 100 100 100 100 100 100 100 100 100 100 100 100 100 100 100 100 100 100 100 100 100 100 100 100 100 100 100 100 100 100 100 100 100 100 100 100
100 100 100 100 100 100 100 100 100 100 100 100 100 100 100 100 100 100 100 100 100 100 100 100 100 100 100 100 100 100 100 100 100 100 100 100 100 100 100 100 100 100 100 100
100 100 100 100 100 100 100 100 100 100 100 100 100 100 100 100 100 100 100 100 100 100 100 100 100 100 100 100 100 100 100 100 100 100 100 100 100 100 100 100 100 100 100 100
100 100 100 100 100 100 100 100 100 100 100 100 100 100 100 100 100 100 100 100 100 100 100 100 100 100 100 100 100 100 100 100 100 100 100 100 100 100 100 100 100 100 100 100

GFSNW_prec_cloud_051.txt.gz
Cloud_Cover
100 100 100 100 92 57 100 100 100 98 5 100 100 61 9 50 94 72 100 100 100 100 100 100 100 100 100 80 45 42 5 5 0 5 49 31 5 38 81 10 5 18 100 100
100 100 100 100 100 34 100 100 98 100 1 89 74 9 5 100 100 100 100 100 100 100 100 100 100 100 100 100 96 95 42 15 0 0 4 5 5 43 90 13 5 37 100 100
100 100 100 100 100 97 100 100 100 100 81 5 0 48 5 100 100 100 100 100 100 100 100 100 100 100 100 100 75 27 83 43 0 0 1 1 38 100 44 4 0 64 100 100
100 100 100 100 100 100 98 100 94 28 100 100 1 2 0 41 100 97 100 100 100 100 100 100 100 100 100 100 6 6 51 50 0 0 4 4 0 0 0 0 5 5 90 78
100 100 100 100 100 100 100 100 86 5 84 91 80 5 3 5 100 45 100 100 100 100 100 100 100 100 100 81 91 100 90 69 2 5 5 1 0 0 0 3 5 34 5 95
100 100 100 100 100 100 100 95 4 2 6 100 97 5 5 5 100 70 100 100 100 100 100 100 100 100 100 100 100 100 6 11 5 1 3 5 8 0 0 0 5 5 25 100
100 100 100 100 100 82 100 96 5 5 45 96 24 3 55 5 95 100 100 100 100 100 100 100 100 100 100 100 100 99 96 16 5 17 39 50 0 0 0 2 0 0 2 1
100 100 100 100 100 100 100 18 36 5 95 23 5 15 0 35 70 100 100 100 100 100 100 100 100 100 100 100 100 100 80 52 41 5 12 8 6 0 0 3 5 0 0 0
100 100 100 100 100 100 100 100 91 51 78 15 5 58 24 5 89 98 100 100 100 100 100 100 100 100 100 100 100 100 100 100 68 5 44 68 20 1 0 0 4 0 0 0
100 100 100 100 100 100 100 98 100 98 97 98 82 32 5 29 100 100 94 100 100 100 100 100 95 100 100 100 100 93 100 100 94 99 83 87 100 10 0 0 5 2 0 0
100 100 100 100 100 100 100 100 100 100 94 53 85 32 35 42 96 99 100 100 100 54 99 100 100 100 91 100 100 100 100 100 100 99 74 94 100 5 0 0 0 33 18 4
100 100 100 100 100 100 100 100 100 100 84 81 100 97 84 13 42 97 100 100 100 99 100 100 100 100 100 100 100 100 100 100 100 86 97 100 18 55 2 0 5 5 5 1
100 100 100 100 100 100 100 97 100 100 100 89 98 100 97 76 6 65 100 100 98 23 99 100 100 100 100 100 100 100 100 100 100 74 70 46 96 80 50 5 5 5 5 5
100 100 100 100 100 100 100 100 89 57 89 95 100 100 100 97 55 30 100 90 5 6 5 36 100 100 100 100 100 100 100 100 100 19 92 100 79 66 100 57 5 0 5 5
100 100 100 100 100 100 99 100 31 75 89 100 100 100 100 91 76 46 65 28 1 4 80 71 87 100 100 100 100 100 100 100 100 100 100 73 100 100 100 100 100 77 10 19
100 100 100 100 100 90 99 96 5 9 20 100 99 100 99 93 75 90 44 5 5 5 5 69 42 100 100 100 67 100 100 100 100 100 100 100 94 100 100 100 100 100 50 5
100 100 100 100 100 100 53 88 98 100 100 100 80 97 66 73 58 100 100 92 38 4 2 49 4 70 100 57 29 100 100 100 100 100 100 100 100 100 100 100 100 100 100 49
100 97 100 100 100 100 100 100 86 100 100 100 100 100 96 100 100 100 100 100 100 51 12 40 6 46 61 21 77 100 100 100 100 100 100 100 100 100 100 100 100 100 100 100
100 100 94 100 97 100 92 100 55 89 100 100 100 100 100 100 100 98 100 100 100 76 100 80 80 78 45 41 93 100 100 100 100 100 100 100 100 100 100 100 100 100 100 100
100 100 100 99 52 7 8 98 61 76 100 52 96 100 100 100 100 100 100 100 100 100 96 70 98 9 4 90 100 100 100 100 100 100 100 100 100 100 100 100 100 100 100 100
20 23 81 23 40 12 66 100 98 82 100 100 93 65 99 100 92 100 84 100 100 100 97 64 100 75 18 23 39 28 100 100 100 100 100 100 100 100 100 100 100 100 100 100
100 74 10 78 65 84 100 82 100 100 92 95 97 46 5 94 50 92 100 95 100 93 100 99 100 100 100 89 46 99 100 100 100 100 100 100 100 100 100 100 100 100 100 100
100 98 100 100 100 100 100 100 98 100 100 100 100 100 99 94 94 95 100 50 98 100 100 100 100 100 100 100 100 100 100 100 100 100 100 100 100 100 100 100 100 100 100 100
100 100 100 100 100 100 100 100 100 100 100 100 100 100 100 100 100 100 100 100 100 100 100 100 100 100 100 100 100 100 100 100 100 100 100 100 100 100 100 100 100 100 100 100
100 100 100 100 100 100 100 100 100 100 100 100 100 100 100 100 100 100 100 100 100 100 100 100 100 100 100 100 100 100 100 100 100 100 100 100 100 100 100 100 100 100 100 100
100 100 100 100 100 100 100 100 100 100 100 100 97 100 100 100 100 100 100 100 100 100 100 100 100 100 100 100 100 100 100 100 100 100 100 100 100 100 100 100 100 100 100 100
100 100 100 100 100 100 100 100 100 100 100 100 100 100 100 100 100 100 100 100 100 100 100 100 100 100 100 100 100 100 100 100 100 100 100 100 100 100 100 100 100 100 100 100

GFSNW_prec_cloud_054.txt.gz
Cloud_Cover
100 94 94 100 100 100 100 97 100 100 59 100 100 100 0 0 0 5 4 5 100 99 100 100 100 100 100 100 100 100 100 99 48 6 5 6 96 98 32 100 100 28 100 100
100 100 100 100 100 100 100 100 100 100 100 87 77 82 50 16 5 3 5 10 74 54 100 100 100 100 100 100 100 100 100 100 6 16 5 5 19 5 5 20 79 6 3 87
100 100 100 100 100 100 100 100 100 100 100 4 0 23 100 73 5 1 5 57 100 100 100 100 100 100 100 100 100 100 99 59 78 45 5 11 5 5 9 96 80 5 12 95
46 100 100 100 100 100 100 100 99 86 100 68 0 4 9 100 86 3 6 70 54 90 100 100 100 100 100 100 100 100 84 100 26 5 5 5 5 1 16 58 2 5 88 6
76 90 100 100 100 100 100 100 90 88 12 5 5 0 5 90 100 2 6 80 100 100 100 100 100 100 100 100 100 100 100 100 18 14 6 5 5 0 5 10 5 0 0 67
97 100 100 100 100 100 100 18 72 85 42 59 79 12 1 9 100 21 6 100 100 100 100 100 100 100 100 100 100 100 100 83 100 91 5 5 61 3 5 5 5 5 2 0
100 100 100 81 100 100 100 88 69 96 99 95 34 5 3 4 24 95 28 100 46 100 100 100 100 100 100 100 100 100 100 100 100 94 6 42 74 1 3 1 0 2 5 0
100 100 100 100 100 100 100 100 100 100 100 58 69 92 59 5 21 100 98 87 100 100 100 100 100 100 100 100 100 100 100 100 100 55 55 48 99 28 0 3 1 4 5 4
100 100 100 100 100 100 100 100 100 100 97 36 96 97 100 8 5 81 99 100 100 100 100 100 100 100 100 100 100 100 100 100 100 100 84 52 100 3 0 2 15 5 5 5
100 100 44 100 100 100 100 100 100 97 92 84 81 99 56 70 51 41 98 100 100 100 100 100 100 100 100 100 100 100 100 100 100 100 36 98 100 29 4 3 69 4 0 5
100 100 100 100 100 100 100 100 100 72 90 93 34 82 100 100 100 22 28 100 100 100 100 86 96 100 100 100 100 100 100 100 100 89 39 100 100 8 4 36 4 4 2 3
20 100 100 100 100 100 100 100 91 99 100 100 96 82 100 100 81 7 29 40 99 100 94 5 79 36 100 100 100 100 100 100 100 99 100 100 100 100 84 51 5 5 23 4
100 100 100 100 100 100 100 100 100 100 100 47 100 100 83 100 86 98 15 6 55 100 94 99 91 100 100 100 100 100 100 100 100 100 100 100 100 100 62 5 5 88 100 94
100 100 100 100 100 100 100 100 100 100 100 98 91 100 100 72 99 84 3 5 69 100 91 6 46 22 100 100 100 100 100 100 100 100 100 100 100 93 74 18 48 96 85 95
100 100 100 100 100 100 100 100 100 100 63 82 100 100 100 100 82 30 4 24 100 100 85 60 19 5 48 100 100 100 100 100 100 100 100 100 100 85 79 71 82 93 69 100
100 100 100 100 100 100 100 100 100 100 80 7 99 100 100 100 92 54 5 86 100 97 62 12 2 5 68 100 100 100 100 100 100 100 100 100 99 100 98 46 86 100 100 100
100 100 100 100 100 100 99 100 98 34 4 5 93 100 80 100 100 100 36 100 100 88 29 6 14 4 92 100 100 100 100 100 100 100 100 100 100 100 100 97 100 100 100 98
100 100 100 100 100 70 92 85 50 5 58 90 100 100 100 100 100 100 86 100 100 36 27 4 5 9 6 38 100 100 100 100 100 100 100 100 100 100 100 100 100 89 100 100
100 77 91 100 100 100 94 100 86 100 68 100 100 100 100 100 98 96 100 76 100 30 50 48 3 5 23 100 87 100 100 100 100 100 100 100 100 100 100 100 100 76 100 100
100 100 90 95 98 100 75 100 100 100 100 100 100 100 100 100 100 100 100 100 100 100 97 47 76 5 6 12 5 97 100 100 100 100 100 100 100 100 100 100 100 100 100 100
100 100 100 100 88 95 100 100 70 32 89 64 97 94 100 100 100 100 86 93 100 100 100 100 93 72 94 90 12 5 80 98 97 47 43 64 12 100 100 100 100 100 100 100
74 89 14 92 99 96 100 83 70 95 100 100 100 100 100 100 100 71 97 100 100 100 100 100 100 100 100 100 100 83 31 6 2 4 2 1 5 69 100 100 100 100 100 100
73 78 99 100 97 99 100 100 100 97 100 100 100 100 100 100 95 94 100 100 100 100 100 100 100 100 100 100 100 100 100 63 56 42 70 63 93 98 100 100 100 100 100 100
100 100 100 100 100 83 100 100 100 100 100 100 66 100 100 100 98 100 100 100 100 100 100 100 100 100 100 100 100 100 100 100 100 100 100 100 100 100 100 100 100 100 100 100
100 100 100 100 100 100 98 100 100 100 100 100 100 100 100 100 100 100 100 100 100 100 100 100 100 100 100 100 100 100 100 100 100 100 100 100 100 100 100 100 100 100 100 100
100 100 100 100 100 100 100 100 100 100 100 100 100 100 100 100 100 100 100 100 100 100 100 100 100 100 100 100 100 100 100 100 100 100 100 100 100 100 100 100 100 100 100 100
100 100 100 100 100 100 100 100 100 100 100 100 100 100 100 100 100 100 100 100 100 100 100 100 100 100 100 100 100 100 100 100 100 100 100 100 100 100 100 100 100 100 100 100

GFSNW_prec_cloud_057.txt.gz
Cloud_Cover
100 100 96 100 100 100 100 100 100 100 7 100 100 87 0 0 2 0 99 100 100 100 51 41 20 47 95 100 100 100 97 99 96 100 100 98 100 74 80 100 99 99 76 35
100 100 100 100 100 100 100 100 100 82 45 100 100 5 0 0 2 3 100 100 30 100 100 46 11 42 100 100 100 100 100 43 100 100 100 100 52 79 81 86 96 98 85 52
100 100 100 100 100 100 100 100 100 100 100 31 45 5 0 0 2 1 50 100 100 100 39 58 100 100 98 100 100 100 100 100 5 100 100 100 100 41 100 90 99 85 94 87
24 94 100 100 100 100 100 100 100 48 100 93 11 81 1 0 4 0 0 67 100 100 80 100 98 100 93 100 100 100 100 100 51 100 100 100 100 77 85 100 96 99 67 79
98 30 97 100 100 100 100 100 100 76 6 49 89 100 5 5 5 0 0 1 100 100 100 100 100 100 100 100 100 100 100 100 100 100 100 98 98 58 77 100 100 80 6 78
100 100 100 93 93 100 100 100 100 100 15 88 92 60 5 4 6 5 2 0 37 100 100 100 57 100 100 100 99 100 100 100 100 100 100 100 80 100 5 5 5 16 49 49
100 100 100 100 100 100 100 100 100 100 98 90 8 40 70 30 5 5 21 64 54 100 100 98 100 100 100 100 100 100 100 100 100 100 87 98 100 100 5 4 4 5 62 91
100 100 100 100 100 100 100 100 100 100 100 44 90 84 100 99 30 100 100 100 66 100 100 100 100 100 100 100 100 100 100 100 100 100 100 100 38 90 88 5 2 5 60 57
100 100 100 100 100 100 100 100 100 100 100 94 63 100 100 100 100 100 100 100 100 100 100 100 96 37 92 100 100 100 100 100 100 100 100 100 100 100 92 4 25 2 62 6
100 100 100 100 100 100 100 100 100 100 53 100 100 100 90 62 100 100 85 100 100 59 100 99 99 74 56 100 100 100 100 100 100 100 100 100 100 100 100 22 97 76 14 5
55 100 100 100 100 100 100 100 87 77 100 100 100 100 100 99 100 86 27 100 100 100 100 100 97 100 96 100 100 100 100 100 100 100 100 100 100 100 100 35 37 8 0 5
80 100 58 100 100 100 100 100 100 100 100 100 100 100 70 74 90 75 18 54 77 100 78 66 100 97 71 100 100 100 100 100 100 100 100 100 100 100 100 92 14 23 0 8
100 100 100 100 100 100 100 100 100 100 100 100 100 100 55 90 31 98 38 89 100 100 82 100 100 100 100 100 100 100 100 100 94 100 100 100 100 100 100 100 100 100 5 25
100 86 52 100 100 100 100 100 100 100 100 100 100 59 74 100 100 100 48 61 99 100 91 19 32 92 96 97 100 100 100 100 100 100 100 100 100 100 100 100 100 100 63 90
72 100 100 100 100 100 100 100 100 100 100 94 91 16 26 100 100 98 94 92 11 100 63 29 8 57 78 5 87 100 100 100 100 100 100 100 100 100 100 100 88 79 77 34
100 100 100 100 100 100 100 100 100 100 100 100 40 25 94 77 100 100 100 54 36 84 42 5 26 100 64 44 60 100 100 100 100 100 100 100 100 100 100 100 100 78 27 7
100 100 100 100 100 100 100 100 100 100 100 90 80 77 20 96 88 100 52 4 54 54 96 7 91 100 100 97 57 100 100 100 100 100 100 100 100 100 100 100 100 100 34 74
100 100 100 100 100 100 100 100 100 100 98 18 100 91 93 100 99 69 4 4 28 81 67 7 6 20 52 46 100 100 100 100 100 100 100 100 100 100 100 100 100 100 89 62
100 100 100 100 100 100 84 71 50 25 67 26 98 100 100 100 100 97 95 92 34 56 29 18 61 52 55 98 100 100 100 100 100 100 100 100 100 100 100 100 100 100 100 100
100 100 100 100 99 100 100 100 100 14 6 62 100 100 100 100 100 100 100 100 83 30 28 8 39 31 99 75 75 99 83 100 100 100 100 100 100 100 100 100 100 100 100 100
100 100 100 100 97 100 100 100 99 100 100 95 100 100 100 100 100 100 97 79 74 100 92 56 25 74 95 97 100 85 64 97 100 100 100 100 100 100 100 100 100 95 89 96
100 87 95 100 94 100 96 94 100 100 76 100 100 100 100 100 100 100 100 100 100 100 100 100 100 100 98 100 100 100 100 91 100 100 100 100 100 100 92 74 92 92 96 99
93 55 91 100 94 100 100 99 100 100 100 100 100 90 100 100 100 100 100 100 100 100 100 100 100 100 100 100 100 100 100 100 94 100 98 89 77 100 100 100 100 100 100 100
100 100 84 99 100 100 100 100 100 100 100 100 100 100 100 100 100 100 100 100 100 100 100 100 100 99 100 100 100 100 100 100 100 100 100 100 100 100 100 100 100 100 100 100
100 88 100 100 100 100 100 100 100 100 100 100 100 100 100 100 100 100 100 100 100 100 100 100 100 100 100 100 100 100 100 100 100 100 100 100 100 100 100 100 100 100 100 100
100 100 100 100 100 100 100 100 100 100 100 100 100 100 100 100 100 87 100 100 100 100 100 100 100 100 100 100 100 100 100 100 100 100 100 100 100 100 100 100 100 100 100 100
100 100 100 100 100 100 100 100 100 100 100 100 100 100 100 100 99 100 100 100 100 100 100 100 100 100 100 100 100 100 100 100 100 100 100 100 100 100 100 100 100 100 100 100

GFSNW_prec_cloud_060.txt.gz
Cloud_Cover
100 100 100 100 100 100 100 100 100 100 100 99 100 26 5 2 0 5 2 0 89 93 91 100 98 72 77 100 90 17 96 100 99 100 100 78 66 100 100 100 52 49 22 58
100 100 100 100 100 100 100 100 100 100 100 89 100 60 4 5 5 0 0 0 0 29 99 100 100 100 100 100 100 41 100 64 100 98 97 74 97 100 100 100 59 50 73 26
100 97 100 100 100 100 100 100 100 100 100 4 31 8 5 5 5 4 6 5 0 0 18 95 99 100 100 94 73 100 100 55 5 5 98 100 68 28 100 100 100 5 79 51
100 99 35 100 100 100 100 100 100 36 100 88 5 64 8 7 51 0 3 5 98 11 5 52 15 93 100 100 100 100 70 7 12 96 100 100 100 71 100 100 92 26 96 5
59 6 5 100 100 100 100 100 91 71 80 32 100 19 38 14 30 5 0 4 3 1 38 100 100 100 100 100 100 100 100 58 70 100 100 100 100 95 100 100 85 96 60 48
69 73 32 78 100 100 100 100 23 99 14 93 99 56 1 5 54 48 0 10 37 76 1 100 100 99 100 92 100 95 100 90 98 100 100 100 100 98 100 100 100 80 100 84
95 77 96 44 45 100 100 100 96 100 100 84 69 5 31 88 100 8 6 57 2 0 67 100 100 100 100 100 96 100 100 100 91 100 100 100 100 100 100 100 100 48 5 24
100 100 100 100 100 80 100 100 100 100 100 84 97 96 59 57 55 95 9 5 0 0 69 63 100 100 100 100 96 98 100 100 97 100 100 100 100 100 100 100 100 100 29 17
91 100 100 100 100 100 100 100 100 100 100 100 100 95 92 90 87 26 5 5 63 100 94 79 99 100 100 100 100 100 100 100 100 100 100 100 100 100 100 100 100 100 70 96
99 8 94 100 100 100 100 100 100 100 100 100 100 100 100 100 90 13 10 94 100 54 86 0 65 100 100 100 100 69 100 100 100 100 100 100 100 100 100 100 100 100 100 16
84 59 100 100 100 100 100 100 100 100 88 100 100 100 100 100 48 6 32 100 100 100 100 65 94 96 69 100 100 93 100 100 100 100 100 75 100 100 100 100 100 100 43 44
100 100 100 100 100 100 100 100 100 100 100 100 100 100 100 100 98 99 100 80 48 57 100 50 98 6 57 66 100 100 100 53 97 100 100 100 100 100 100 100 100 100 100 100
100 100 100 100 100 100 100 100 100 100 100 100 100 100 100 97 60 8 100 91 53 100 60 80 49 5 52 100 71 100 100 100 78 100 99 100 100 100 100 100 100 100 84 20
24 100 98 100 100 100 100 100 100 100 100 100 100 100 100 83 26 64 99 52 86 68 100 99 51 22 6 100 100 100 100 100 100 96 100 100 100 100 100 100 100 100 100 100
100 100 100 100 100 100 100 100 100 100 100 100 100 100 82 96 95 100 93 57 25 8 78 30 5 38 80 100 100 100 100 100 100 100 100 100 100 100 100 100 100 100 100 100
100 100 100 100 100 100 100 100 100 100 100 100 100 100 100 100 97 97 90 73 69 64 75 98 95 100 30 29 94 100 100 100 100 100 100 100 100 100 100 100 100 100 100 100
100 100 100 100 100 100 100 100 100 100 100 100 100 100 100 100 97 10 78 99 98 93 56 100 98 15 100 52 62 100 100 100 100 100 100 100 100 100 100 100 100 100 100 100
100 100 100 100 100 100 100 100 100 100 100 100 100 100 100 29 100 100 100 57 100 40 100 47 5 64 100 9 100 100 100 100 100 100 100 100 100 100 100 100 78 100 100 100
100 100 100 100 100 100 100 100 100 100 100 82 48 20 100 92 100 100 99 31 100 71 10 98 62 72 95 88 100 100 100 94 100 100 100 100 100 100 100 100 100 100 100 100
100 100 100 100 100 100 100 100 87 51 68 61 96 40 100 100 100 100 67 83 100 41 5 64 100 100 96 97 100 100 100 100 100 100 100 100 100 100 100 100 100 100 100 100
100 100 100 100 100 100 100 92 66 52 52 79 62 100 100 100 100 100 12 73 87 100 30 92 45 67 99 100 100 100 100 100 100 100 100 100 100 100 100 100 100 100 100 100
100 100 100 100 94 97 95 72 60 58 69 99 84 100 100 100 100 100 100 100 100 100 92 100 100 100 100 100 100 100 100 100 100 100 100 100 100 100 100 100 100 100 100 86
100 100 100 100 87 97 92 63 55 71 100 98 98 100 100 100 100 100 100 100 100 100 100 100 100 99 84 100 100 100 100 100 100 100 100 100 100 100 93 100 100 100 100 100
100 100 100 99 100 100 100 100 100 100 100 100 100 100 100 100 100 100 100 100 100 100 100 100 100 100 100 100 100 87 97 100 100 100 100 100 100 100 100 100 100 100 100 100
100 100 98 97 100 100 100 100 100 100 100 100 100 100 100 100 100 100 100 100 100 100 100 100 100 100 100 100 100 100 94 100 100 100 100 100 100 100 100 100 100 100 100 100
100 100 100 100 100 100 92 100 100 100 100 100 100 100 100 100 99 100 100 100 100 100 100 100 100 100 100 100 100 100 100 100 100 100 100 100 100 100 100 100 100 100 100 100
100 100 100 100 100 100 100 100 95 93 100 100 100 100 100 96 99 100 100 100 100 100 100 100 100 100 100 100 100 100 100 100 100 100 100 100 100 100 100 100 100 100 100 100

GFSNW_prec_cloud_063.txt.gz
Cloud_Cover
100 100 100 100 100 100 100 100 100 69 100 100 100 97 8 2 0 0 0 0 5 14 19 100 100 98 80 68 12 100 100 100 100 80 54 49 98 100 77 100 100 100 100 100
100 100 100 100 100 100 100 100 100 100 100 99 98 83 58 5 5 1 0 0 0 5 26 68 86 60 99 84 100 90 100 100 100 83 36 98 68 100 97 100 60 100 100 100
100 100 100 100 100 100 100 100 100 100 100 7 5 85 100 51 29 1 5 0 0 1 0 10 54 7 100 100 60 96 100 100 100 54 26 35 43 100 97 98 41 100 100 100
100 100 100 100 100 100 100 100 100 83 99 100 96 41 48 16 51 5 0 0 0 0 0 7 5 97 38 99 5 100 100 94 100 56 100 100 96 100 100 37 92 77 100 100
100 100 100 100 100 100 100 100 99 89 5 96 100 100 27 5 5 4 5 2 3 0 0 0 0 52 100 100 99 30 100 77 85 73 100 100 100 94 100 83 100 100 100 100
100 99 100 100 100 100 100 100 49 97 54 99 100 64 5 6 17 5 44 2 0 2 0 13 43 1 46 100 100 82 84 84 100 25 100 100 51 9 95 100 100 100 100 97
100 100 100 100 100 100 100 100 100 100 100 80 21 16 5 6 37 5 5 4 1 2 99 62 4 7 55 100 99 100 96 97 100 100 100 92 3 6 83 100 100 100 100 99
100 100 100 100 100 100 100 100 100 100 100 17 70 18 5 68 7 2 9 0 0 66 100 42 100 70 52 100 100 100 100 100 100 82 63 99 5 90 100 100 100 100 100 100
100 100 100 100 100 100 100 100 100 100 100 78 99 100 100 100 50 5 2 2 5 5 7 69 5 58 46 100 100 100 100 100 99 99 71 5 89 100 100 100 45 100 100 100
100 100 100 100 100 100 100 100 100 100 100 100 99 9 21 86 15 27 59 100 97 31 5 5 20 53 89 100 100 100 100 100 100 98 100 8 73 100 100 100 99 100 100 100
19 100 100 100 100 100 100 100 88 100 100 90 100 100 94 5 91 100 100 100 91 5 3 4 5 1 19 100 100 100 100 100 100 100 100 74 93 100 73 100 100 100 100 83
100 100 100 100 100 100 100 100 100 100 100 99 100 100 94 98 100 100 100 88 100 0 2 11 5 5 28 100 99 100 100 100 100 100 28 98 100 100 98 100 100 100 99 100
100 100 100 100 100 100 100 100 100 100 100 100 100 100 100 100 100 83 98 99 41 2 0 5 44 15 5 28 81 100 51 100 90 97 99 100 100 100 100 100 100 100 100 33
64 69 100 100 100 100 100 100 100 100 100 100 100 100 91 100 100 100 100 100 99 96 8 33 100 100 11 4 12 100 88 100 100 95 100 100 97 100 100 100 100 100 100 100
100 100 100 100 100 100 100 100 100 100 100 100 100 100 100 100 97 100 100 100 44 100 99 94 100 100 100 58 3 100 100 100 86 100 100 100 100 100 100 100 100 100 98 47
100 100 100 100 100 100 100 100 100 100 100 100 100 100 100 100 100 49 9 95 32 49 56 100 100 100 99 99 18 100 100 100 94 100 100 100 100 100 100 100 100 100 100 100
100 100 100 100 100 100 100 100 100 86 100 100 100 96 100 100 70 95 100 96 67 75 100 100 100 100 99 5 5 99 100 69 79 97 32 8 79 98 100 100 100 100 100 100
62 96 100 100 100 100 100 99 65 100 94 84 96 96 97 100 100 100 100 100 27 100 100 100 100 95 100 85 97 36 74 100 100 100 100 100 100 100 100 100 100 100 100 100
100 100 100 100 100 100 100 100 100 100 100 100 100 100 100 100 100 100 13 5 98 100 100 83 95 100 100 100 100 100 100 100 100 100 100 100 100 100 100 100 100 100 100 100
100 100 100 100 100 100 100 100 100 100 100 100 100 100 100 80 100 99 100 97 100 89 35 72 100 100 100 100 100 100 100 100 100 100 100 100 100 100 100 100 100 100 100 100
100 100 100 100 100 100 100 100 100 100 100 100 98 95 100 100 100 100 59 96 92 44 40 100 100 100 100 100 100 100 100 100 100 100 100 100 100 100 100 100 100 100 100 100
100 100 100 100 100 99 100 100 100 100 90 73 19 59 100 100 100 100 100 100 95 34 100 100 100 100 100 100 100 100 100 100 100 100 100 100 100 100 100 100 100 100 100 100
100 100 100 100 100 100 100 70 98 98 100 100 100 100 100 100 100 100 100 96 100 95 100 100 100 100 91 95 100 100 100 100 100 100 100 100 100 100 100 100 100 100 100 100
99 100 100 100 100 100 100 100 100 100 100 100 100 100 100 100 100 100 100 100 100 100 100 100 100 100 100 100 100 100 100 100 100 100 100 100 100 100 100 100 100 100 100 100
49 69 100 100 100 100 100 100 100 99 100 100 100 100 100 100 100 100 100 100 100 100 100 100 100 100 100 100 100 100 100 100 100 100 100 100 100 100 100 100 100 100 100 100
86 43 80 74 90 36 57 93 100 100 100 100 100 100 100 100 100 100 100 100 100 100 100 100 100 100 100 100 100 100 100 100 100 100 100 100 100 100 100 100 100 100 100 100
100 100 84 99 54 98 99 94 71 94 100 100 100 100 100 100 100 100 100 100 100 100 100 100 100 100 100 100 100 100 100 100 100 100 100 100 100 100 100 100 100 100 100 100

GFSNW_prec_cloud_066.txt.gz
Cloud_Cover
100 100 100 100 100 100 100 100 100 87 100 80 82 83 26 43 0 2 5 9 100 34 74 94 73 90 100 100 100 100 100 100 100 100 100 100 86 100 93 91 96 42 15 38
100 100 100 100 100 100 100 100 100 100 100 88 98 28 47 37 5 1 3 4 1 14 8 34 32 86 100 96 100 100 100 64 92 100 100 97 99 100 100 52 8 5 9 81
100 100 100 100 100 100 100 100 100 100 100 14 49 100 89 100 48 6 4 1 0 0 2 8 40 18 81 100 100 100 100 100 100 100 100 100 98 100 100 70 5 58 4 17
100 100 100 100 100 100 100 100 100 90 100 100 91 85 86 89 100 100 58 0 1 3 1 0 0 99 93 82 100 90 100 100 100 100 100 100 100 100 100 100 8 5 21 5
100 100 100 100 100 100 100 100 100 100 83 100 100 100 100 100 85 93 55 5 6 0 0 0 0 5 0 99 84 100 99 94 100 100 100 100 100 85 97 95 96 46 44 20
100 100 100 100 100 100 100 100 95 100 100 93 100 95 100 100 100 100 18 5 5 3 1 0 0 2 5 4 74 100 100 100 99 39 100 100 99 20 100 95 100 41 18 100
100 100 100 100 100 100 100 100 100 100 100 24 46 99 100 55 43 39 68 100 79 100 76 5 0 4 45 1 2 42 100 100 100 93 100 100 32 49 58 41 100 99 56 100
100 100 100 100 100 100 100 100 100 100 98 42 54 25 27 9 5 5 5 6 100 100 100 36 2 5 5 1 0 37 100 100 100 100 90 66 82 85 95 62 68 100 99 100
67 96 100 100 100 100 100 100 100 100 100 34 97 69 43 36 52 84 5 6 44 71 31 45 1 4 3 3 5 57 100 100 100 100 100 57 99 100 100 100 94 100 100 100
61 96 10 37 44 100 100 100 100 100 100 12 79 22 38 99 100 64 98 82 27 59 6 5 3 0 4 4 6 78 90 100 100 100 100 89 77 88 100 100 99 100 100 27
100 99 100 98 51 69 98 100 100 100 100 99 95 48 94 100 87 29 65 99 27 50 5 4 0 0 3 2 4 5 46 100 100 100 100 100 100 100 100 85 96 100 100 100
95 100 100 100 100 100 88 100 100 100 100 100 100 89 100 100 100 100 100 100 100 97 5 5 2 0 2 0 4 36 81 100 100 100 100 100 100 100 98 100 88 100 100 100
100 98 83 98 100 100 100 100 100 100 100 100 100 71 51 37 47 46 100 100 100 96 42 10 8 4 5 13 14 12 100 100 100 100 100 100 100 92 55 78 100 100 100 95
22 80 100 100 100 100 100 100 100 99 94 100 74 88 100 100 100 99 11 6 97 82 97 100 71 8 1 3 31 2 88 100 100 100 100 100 100 100 100 100 100 100 100 100
100 100 100 100 100 100 100 100 100 100 69 67 100 100 100 99 100 100 100 95 100 100 100 100 100 91 5 5 12 98 100 100 100 100 100 100 60 9 86 100 100 100 100 100
82 100 100 100 100 100 100 100 100 100 100 100 100 100 100 100 100 100 100 100 100 100 100 100 100 42 31 44 27 78 100 100 100 100 100 100 80 100 100 100 100 100 100 100
97 96 100 100 100 100 100 97 100 100 100 100 100 100 82 94 100 100 100 100 100 100 100 65 28 100 100 100 96 100 100 100 100 100 100 100 100 100 100 100 100 100 100 100
100 100 100 100 100 100 100 100 100 100 100 100 100 100 100 89 100 100 98 100 100 100 100 70 80 100 100 100 100 100 100 100 100 5 95 100 100 100 100 100 100 100 100 100
100 100 100 100 100 99 100 100 100 100 75 94 56 81 100 55 73 49 97 99 95 100 33 82 100 100 100 100 100 100 100 100 100 100 100 100 100 98 100 100 100 100 100 100
100 100 100 100 100 100 100 100 100 100 100 100 79 60 100 100 95 94 81 93 100 99 100 100 100 100 100 100 100 100 100 100 100 99 100 43 98 100 100 100 100 100 100 100
100 100 100 100 100 100 100 100 100 100 100 100 100 100 100 100 100 100 100 100 91 100 100 100 100 99 100 99 99 100 100 100 100 100 100 100 100 100 100 100 100 100 100 100
95 98 86 80 94 100 100 100 100 100 100 100 100 100 100 100 100 100 100 100 100 100 100 100 100 100 100 99 100 100 100 100 100 100 100 100 100 100 100 100 100 100 100 100
100 100 100 100 100 100 100 100 100 100 100 100 100 100 98 100 100 100 100 100 100 100 100 100 100 100 100 91 75 94 100 96 100 100 100 100 100 100 100 100 100 100 100 100
100 100 100 100 100 100 100 100 100 100 100 100 100 100 100 100 100 100 100 100 100 100 100 87 100 100 100 100 100 100 100 100 92 99 100 100 100 100 100 100 100 100 100 100
100 100 100 100 100 100 100 100 100 100 100 100 100 100 100 100 100 100 100 100 100 100 100 100 100 100 100 100 100 100 100 100 100 100 100 100 100 100 100 100 100 100 100 100
100 100 100 79 76 86 87 100 100 100 100 100 100 100 100 100 100 100 100 100 100 100 100 100 100 100 100 100 100 100 100 100 100 100 100 100 100 100 100 100 100 100 100 100
26 84 80 99 99 100 100 100 100 97 100 100 100 100 100 100 100 100 100 100 100 100 100 100 100 100 100 100 100 100 100 100 100 100 100 100 100 100 100 100 100 100 100 100

GFSNW_prec_cloud_069.txt.gz
Cloud_Cover
5 91 76 83 100 100 100 100 100 100 97 100 98 20 8 20 100 97 100 100 100 100 17 5 17 83 100 100 100 100 100 100 100 100 100 100 95 58 99 85 98 100 99 100
38 5 100 100 100 100 100 100 100 100 100 100 90 9 5 5 12 14 95 100 98 99 100 92 99 97 100 100 99 99 100 100 100 100 100 100 100 100 100 100 100 100 99 100
27 51 100 100 100 100 100 100 100 100 100 41 14 92 17 38 5 4 5 9 6 13 23 6 65 100 100 100 99 98 83 50 76 100 100 100 100 100 100 100 100 100 100 100
97 100 100 100 100 100 100 100 100 97 100 100 93 30 40 5 52 6 2 2 4 3 5 5 5 37 100 100 100 100 100 100 100 100 100 100 100 100 100 100 100 100 100 99
100 100 100 100 100 100 100 100 100 100 58 100 100 98 63 91 80 18 6 8 42 11 0 1 0 0 11 93 100 100 99 97 100 100 100 100 100 100 100 100 100 100 100 100
100 100 100 100 100 100 100 100 99 100 97 97 100 95 97 96 100 96 100 35 95 95 11 0 0 16 0 0 52 95 90 100 100 100 100 100 94 94 100 100 100 100 100 100
100 100 100 100 100 100 100 100 100 100 100 100 99 100 100 100 100 100 100 100 100 100 27 7 5 4 0 0 29 98 72 100 100 100 100 100 37 96 100 100 100 100 100 100
100 100 100 100 100 100 100 100 100 100 100 100 100 100 100 100 100 100 100 100 100 98 95 58 5 2 3 8 10 16 22 5 95 89 100 62 70 99 100 100 100 100 100 100
100 100 100 100 100 100 100 100 100 100 100 100 100 100 100 100 100 100 100 100 100 100 100 100 100 8 0 2 86 29 28 59 76 99 100 100 14 100 100 100 14 100 100 92
100 100 100 100 100 100 100 100 100 100 100 100 99 100 100 100 100 100 100 100 96 91 72 100 100 97 4 2 26 84 100 100 77 98 100 8 50 100 100 84 27 100 99 83
100 100 100 100 100 100 100 100 100 100 100 100 100 98 67 98 100 38 99 100 78 75 13 20 93 83 10 4 0 13 32 98 86 100 100 100 94 100 100 95 93 86 100 61
100 100 100 100 100 100 100 100 100 100 100 100 100 100 98 87 100 100 100 100 100 97 18 9 5 5 8 4 5 5 5 5 12 24 51 100 100 100 100 100 100 100 70 23
100 100 100 100 100 90 69 100 100 100 100 100 99 88 82 100 100 100 100 100 100 100 37 5 11 5 4 12 3 7 5 0 0 0 0 94 100 100 100 100 100 72 100 100
100 100 100 100 100 100 100 100 100 100 100 100 100 100 100 100 100 100 100 100 100 100 88 18 32 11 5 4 12 44 2 1 0 0 0 23 100 100 100 100 100 100 91 100
100 100 99 100 100 100 100 100 100 82 77 100 74 100 100 100 100 100 100 100 100 98 62 77 43 5 14 69 88 5 6 64 30 44 5 44 42 100 100 100 100 99 100 100
38 94 100 100 100 100 100 100 100 100 100 100 100 100 100 100 100 100 100 100 100 70 62 100 86 93 100 100 8 97 71 91 100 90 10 100 100 100 100 100 100 100 100 100
100 100 100 100 100 100 100 63 79 100 100 100 100 100 100 99 99 96 100 64 100 100 80 100 100 100 100 100 96 100 100 72 77 96 86 100 100 100 100 100 100 100 100 100
100 100 100 100 100 100 89 100 100 100 100 100 100 100 100 100 100 99 100 100 100 100 99 68 100 100 100 100 100 100 100 76 100 100 100 100 100 100 100 100 100 100 94 99
100 100 100 100 100 100 100 100 100 100 100 100 100 100 100 100 100 100 100 100 100 79 81 98 100 100 100 100 100 99 99 100 100 100 86 100 100 100 100 100 100 100 100 53
100 100 100 100 100 100 100 100 100 100 100 100 100 74 85 96 100 100 99 100 100 100 100 100 100 96 100 88 100 100 100 100 100 100 100 100 100 100 100 100 100 100 100 97
100 100 100 100 100 100 100 100 99 83 44 67 77 40 90 92 94 100 82 98 100 98 100 98 100 100 100 92 90 100 100 100 100 100 100 100 100 100 100 100 100 100 100 100
100 96 100 100 100 100 100 100 83 82 97 100 86 93 99 100 100 100 100 92 100 88 100 100 100 100 92 71 89 100 100 100 100 100 100 100 100 100 100 100 100 100 100 100
100 100 100 100 100 100 100 100 100 100 100 100 100 100 100 100 100 100 100 100 98 100 100 99 100 100 92 99 100 99 100 100 100 100 100 100 100 100 100 100 100 100 100 100
100 100 100 100 100 100 100 100 100 100 100 100 100 100 100 100 100 100 100 100 100 100 96 100 100 100 99 100 100 100 100 100 100 99 100 100 100 100 100 100 100 100 100 100
100 100 100 100 100 100 100 100 100 100 100 100 100 100 100 100 100 100 100 100 100 100 100 100 100 100 100 100 100 100 100 100 98 98 99 100 100 100 100 100 100 100 100 100
100 100 100 86 100 100 100 100 100 100 100 100 100 100 100 100 100 100 100 100 100 100 100 100 100 100 100 100 100 100 100 100 100 100 100 100 100 100 100 100 100 100 100 100
9 94 95 98 98 100 100 100 100 100 100 100 100 100 100 100 100 100 100 100 100 100 100 100 100 100 100 100 100 100 100 100 100 100 100 100 100 100 100 100 100 100 100 100

GFSNW_prec_cloud_072.txt.gz
Cloud_Cover
5 10 1 4 10 66 100 100 100 100 100 100 100 100 98 72 100 100 100 100 100 88 94 100 100 100 98 86 100 100 100 100 100 100 100 100 100 100 100 41 99 100 100 100
5 5 0 5 12 68 100 100 100 100 100 99 100 100 61 73 67 100 100 100 100 100 98 81 99 100 100 100 100 100 100 100 100 100 100 100 100 100 100 93 61 33 97 100
5 5 2 49 74 60 100 100 100 100 100 96 43 100 99 34 52 100 92 100 100 100 100 80 62 100 72 100 100 100 100 98 99 100 100 100 100 100 100 100 100 63 92 100
5 4 5 9 98 90 100 100 100 93 99 100 94 93 95 38 5 6 64 88 100 95 100 100 99 99 84 46 69 100 100 100 100 100 100 100 100 100 100 86 74 65 95 82
9 14 5 5 86 100 100 100 100 100 66 100 100 100 100 94 5 34 34 20 40 16 5 48 100 56 49 47 100 54 95 81 100 100 100 100 96 91 5 5 35 9 71 80
100 86 6 6 100 100 100 100 99 100 92 100 100 100 100 90 100 100 100 100 100 40 34 29 22 5 5 35 66 100 94 72 100 90 100 100 100 100 87 34 61 100 100 100
100 100 100 100 100 100 100 100 100 100 100 85 100 99 100 100 100 100 100 100 100 100 100 93 64 5 4 2 2 5 6 60 98 93 98 96 100 100 100 100 81 100 100 100
100 100 100 100 100 100 100 100 100 100 100 100 100 100 100 100 100 100 100 100 100 98 100 52 54 5 5 0 0 0 35 100 100 96 100 16 7 100 100 100 6 61 75 100
100 100 100 100 100 100 100 100 100 100 100 100 100 100 100 100 100 100 100 100 100 100 100 100 100 51 8 7 0 0 30 100 82 95 90 54 9 100 100 6 46 98 36 26
100 100 100 100 100 100 100 100 100 100 100 100 100 100 100 100 100 100 100 100 100 97 100 99 100 100 96 76 90 98 94 97 100 100 96 9 6 100 100 54 26 8 5 44
100 100 100 100 100 100 100 100 100 100 100 100 100 100 100 100 100 100 100 100 90 99 100 100 100 100 81 9 5 10 72 43 97 93 74 70 0 100 100 100 67 12 83 45
100 100 100 100 100 100 100 100 100 100 100 100 100 100 100 100 100 100 100 100 100 99 100 97 100 95 100 21 5 5 3 4 12 2 4 0 0 1 94 100 78 82 88 100
100 100 100 100 100 100 100 100 100 100 100 100 100 100 100 100 100 100 100 100 98 83 70 72 73 11 51 48 8 11 6 5 29 68 0 0 0 0 3 14 100 100 65 100
100 100 100 100 100 100 100 100 100 100 100 100 100 100 100 100 100 100 100 100 100 100 86 56 31 6 5 5 5 4 54 90 5 0 0 0 0 0 4 5 100 100 97 98
100 100 100 100 100 100 100 100 100 100 100 100 100 100 100 100 100 100 100 100 100 100 98 84 34 5 5 5 5 5 8 5 4 0 54 98 48 4 0 38 100 100 100 100
100 100 100 100 100 100 100 100 100 100 100 100 100 94 92 85 100 100 100 100 100 100 97 40 53 5 27 11 7 6 80 95 99 98 37 29 28 11 5 83 100 100 100 100
100 100 100 100 100 100 100 100 100 100 100 100 91 100 100 100 100 100 100 100 100 100 100 96 100 89 99 100 80 100 99 96 100 100 92 49 59 100 72 94 100 100 100 100
100 100 100 100 100 100 100 100 100 100 100 100 62 78 100 100 100 100 100 100 100 100 100 100 100 100 77 100 88 85 86 98 100 90 100 100 72 100 85 100 100 100 100 100
100 100 100 100 100 100 100 100 100 100 100 100 100 100 100 100 100 100 100 100 100 100 100 100 100 100 76 100 100 100 100 100 100 96 100 100 66 100 100 100 100 61 100 100
100 100 100 100 100 100 100 100 100 100 100 100 100 100 100 100 100 100 100 100 100 100 98 100 95 97 97 89 100 100 100 100 100 100 100 100 100 100 100 100 100 90 87 100
100 100 100 100 100 100 100 100 100 100 100 100 100 94 96 99 100 100 92 99 81 99 100 100 97 100 100 99 95 100 100 100 100 100 100 100 100 100 100 100 100 100 100 100
100 100 100 100 100 100 100 100 100 100 100 100 100 98 86 90 25 40 95 61 99 100 100 100 95 100 100 100 100 100 100 96 100 100 100 100 100 100 100 100 100 100 100 100
100 71 46 94 99 81 91 100 98 100 100 99 100 94 96 75 89 90 100 96 100 85 100 100 100 100 94 94 97 98 97 90 100 100 100 100 100 100 100 100 100 100 100 100
100 100 100 100 100 100 100 100 99 100 98 83 100 100 100 100 100 100 100 100 100 100 100 100 100 100 100 100 100 100 100 100 100 100 100 100 100 100 100 100 100 100 100 100
100 100 100 100 100 100 100 100 100 100 100 100 100 100 100 100 100 100 100 100 100 100 100 100 100 100 100 100 100 100 100 100 100 100 100 100 100 100 100 100 100 100 100 100
100 100 100 100 100 100 100 100 100 100 100 100 100 100 100 100 100 100 100 100 100 100 100 100 100 100 100 100 100 100 100 100 100 100 100 100 100 100 100 100 100 100 100 100
100 100 100 100 100 100 100 100 100 100 100 100 100 100 100 100 100 100 100 100 100 100 100 100 100 100 100 100 100 100 100 100 100 100 100 100 100 100 100 100 100 100 100 100

GFSNW_prec_cloud_075.txt.gz
Cloud_Cover
14 76 5 5 4 1 29 100 100 100 37 100 100 100 80 100 100 100 100 100 94 100 100 100 100 100 100 96 100 100 100 100 100 100 100 98 97 18 58 7 5 68 100 100
96 98 27 5 4 2 68 99 100 100 100 100 100 100 82 9 100 100 100 100 100 84 100 100 100 100 100 100 100 89 80 100 100 100 100 100 100 100 100 100 100 100 100 100
19 97 71 0 4 15 96 100 100 100 100 100 100 100 87 16 100 100 100 100 100 100 99 92 100 100 100 100 100 100 100 99 99 100 100 100 100 100 100 100 72 95 100 100
66 91 62 0 5 4 99 100 100 45 100 100 100 100 92 90 90 100 100 100 100 100 100 100 100 100 100 100 100 100 100 100 100 87 98 100 100 100 100 100 100 100 100 100
100 85 11 0 4 27 100 100 100 100 100 100 100 100 100 10 93 100 100 100 100 100 100 100 86 62 84 100 100 100 100 100 100 100 100 100 100 95 98 100 100 99 100 100
100 100 100 94 5 27 100 100 100 100 100 95 100 100 53 79 100 100 100 100 100 100 100 72 70 29 10 66 95 100 100 100 100 100 100 100 84 100 100 57 6 5 35 100
100 100 100 100 100 10 16 100 100 100 98 100 92 81 91 100 100 100 100 100 100 100 98 10 5 34 5 5 5 5 98 98 97 79 100 84 100 100 100 100 87 42 5 7
100 100 100 100 100 87 66 95 100 100 100 99 99 79 100 100 100 100 100 100 100 100 100 98 100 42 5 5 5 4 3 11 90 94 55 27 88 100 100 100 100 100 87 5
100 100 100 100 100 100 99 100 100 100 100 87 100 100 100 100 100 100 100 100 100 100 100 100 85 80 36 42 0 2 2 5 76 100 100 57 100 100 100 100 100 100 100 100
100 100 100 100 100 100 100 100 100 100 100 100 100 100 100 100 100 100 100 100 100 100 100 92 79 41 33 5 16 100 92 99 100 67 85 10 4 3 13 44 9 6 81 44
100 100 100 100 100 100 100 100 100 100 100 100 100 100 100 100 100 100 100 100 100 100 100 98 66 26 93 34 38 62 52 42 31 67 96 57 10 5 27 20 3 4 69 100
100 100 100 100 100 100 100 100 100 100 100 100 100 100 100 100 100 100 100 100 100 100 100 78 77 100 100 100 98 77 79 30 37 9 11 12 91 42 3 0 0 0 0 100
100 100 100 100 100 100 100 100 100 100 100 100 100 100 100 100 100 100 100 100 96 80 94 99 100 100 100 100 100 100 95 11 5 4 5 5 0 3 5 13 1 0 0 45
100 100 100 100 100 100 100 100 100 100 100 100 100 100 100 100 100 100 100 100 100 98 100 100 100 100 100 100 78 75 31 24 15 5 37 17 5 1 34 2 0 0 0 7
100 100 100 100 100 100 100 100 100 100 100 100 100 100 100 100 100 100 100 100 100 100 100 99 100 100 100 100 99 68 30 5 5 5 90 98 68 32 100 4 44 13 0 2
100 100 100 100 100 100 100 100 100 100 100 100 100 100 100 100 100 100 100 100 100 100 100 82 92 98 62 25 5 48 36 43 96 92 85 44 95 87 100 10 23 20 5 5
100 100 100 100 100 100 100 100 89 100 100 100 100 100 100 100 100 100 100 100 100 100 100 100 100 100 68 82 99 100 100 57 100 100 69 100 100 100 68 68 37 16 13 85
100 100 100 100 100 100 100 100 100 100 100 100 100 100 100 100 100 100 100 100 100 100 100 100 93 100 88 94 100 100 100 100 98 100 100 100 100 100 98 53 100 100 82 100
100 100 100 100 100 100 100 100 100 100 100 100 100 95 100 100 100 100 100 100 100 100 100 100 100 99 100 100 100 100 100 98 100 100 71 100 100 100 100 100 100 100 99 100
100 100 100 100 100 100 100 100 100 100 100 100 76 79 76 100 100 100 100 100 100 100 100 100 100 100 100 100 100 100 98 100 100 77 85 100 100 100 100 100 100 100 100 100
100 100 100 100 100 100 100 100 100 100 99 94 84 54 100 100 99 96 100 100 100 100 100 100 100 100 100 100 100 100 100 100 100 100 100 100 100 100 100 100 100 100 100 100
100 100 100 100 83 94 100 100 100 88 100 94 100 100 100 100 100 100 99 99 94 90 86 92 100 100 98 97 99 100 99 97 100 100 100 100 100 100 100 100 100 100 100 100
100 100 100 100 100 79 20 73 72 98 100 100 100 100 100 99 78 99 94 37 98 86 99 100 100 100 100 100 100 99 100 100 100 100 100 100 100 100 100 100 100 100 100 100
100 100 89 23 45 78 88 94 94 94 100 100 100 100 98 100 100 100 100 98 96 99 100 100 100 100 100 100 100 100 100 100 100 100 100 100 100 100 100 100 100 100 100 100
99 98 100 98 96 96 98 100 99 100 100 100 100 100 100 100 100 100 100 94 100 100 100 100 100 100 100 100 100 100 100 100 100 100 100 100 100 100 100 100 100 100 100 100
98 100 100 92 99 100 100 100 100 100 100 100 100 100 100 100 100 100 100 94 100 100 100 100 100 100 100 100 100 100 100 100 100 100 100 100 100 100 100 100 100 100 100 100
100 100 100 100 100 100 100 100 100 100 100 100 100 100 100 100 100 100 100 100 100 100 100 100 100 100 100 100 100 100 100 100 100 100 100 100 100 100 100 100 100 100 100 100

GFSNW_prec_cloud_078.txt.gz
Cloud_Cover
50 100 100 100 100 100 69 46 94 11 91 100 100 100 96 11 0 5 37 100 100 100 100 100 100 100 100 100 100 100 100 100 100 100 100 100 100 100 73 91 100 37 80 100
77 40 52 97 100 94 42 97 96 29 100 99 100 98 86 44 4 5 6 100 100 100 100 100 100 100 100 100 100 100 100 100 100 100 100 100 100 98 99 83 31 97 99 86
98 93 76 46 98 4 30 84 92 53 98 98 99 99 53 98 4 5 5 55 100 100 100 100 100 100 100 100 100 100 100 100 100 100 100 100 99 82 100 92 80 94 89 99
5 5 86 6 100 3 21 100 94 85 99 37 100 95 81 91 97 18 36 8 100 100 100 100 100 100 100 100 100 100 100 100 100 100 100 100 100 100 100 100 92 77 100 69
93 27 9 3 100 28 41 91 99 98 59 51 73 100 94 72 93 90 61 59 100 100 98 100 100 100 100 100 100 100 100 100 100 100 100 100 100 100 100 100 100 100 100 100
100 100 64 10 92 37 90 43 72 87 13 70 90 100 38 26 100 99 100 100 100 88 100 98 100 100 100 100 100 100 100 100 100 98 100 100 36 99 100 80 69 97 100 100
100 100 100 100 100 34 27 96 44 100 63 87 57 84 38 100 93 100 100 100 100 82 95 74 79 66 100 100 100 100 100 100 100 100 100 95 100 100 100 92 83 5 8 5
100 100 100 100 100 100 98 86 29 98 100 68 72 91 99 67 100 100 100 100 100 100 81 68 99 79 61 14 100 100 100 100 100 100 100 100 100 100 100 100 100 87 80 5
100 100 100 100 100 100 100 100 100 85 89 22 63 67 19 98 100 100 100 100 100 100 100 97 100 100 100 94 59 47 98 11 82 84 85 99 98 100 100 100 100 100 92 6
100 100 100 100 100 100 100 70 100 93 100 10 86 49 72 100 100 100 100 100 100 100 100 100 100 100 68 80 100 88 100 100 97 85 98 94 95 42 35 84 92 100 100 100
100 100 100 100 100 100 100 100 100 82 99 32 75 79 100 100 100 100 100 100 100 100 100 100 100 100 92 61 67 85 58 92 85 96 74 95 5 9 23 33 59 10 32 73
96 100 100 100 100 100 100 100 100 100 100 86 31 100 100 100 100 100 100 100 100 94 98 100 100 95 29 89 94 15 99 80 100 82 92 45 100 28 5 10 15 18 7 6
28 95 100 100 100 100 100 100 100 100 100 100 100 100 100 100 100 100 100 100 100 100 100 100 100 99 70 94 36 88 67 30 16 93 37 71 14 4 4 1 0 0 4 0
59 68 100 100 100 100 100 100 100 100 100 100 100 100 100 100 100 100 100 100 99 100 100 100 100 67 86 100 100 85 100 77 96 100 100 51 5 5 5 3 4 4 3 0
100 97 100 100 100 100 100 100 100 100 100 100 100 100 100 100 100 100 100 100 100 100 100 100 90 98 100 100 100 100 100 100 100 100 100 100 31 30 93 12 14 24 2 0
100 100 100 100 100 100 100 100 100 100 100 100 100 100 100 100 100 100 100 100 100 100 100 100 100 100 100 100 100 100 100 100 100 100 100 99 70 30 100 43 28 16 5 0
100 100 100 100 100 100 100 100 100 100 100 100 100 100 100 100 100 100 100 100 100 100 100 98 100 100 96 92 100 100 100 100 93 83 50 40 100 100 100 100 52 58 52 50
100 100 100 100 100 100 100 100 100 100 100 100 100 100 100 100 100 100 100 100 100 100 100 100 85 89 82 100 100 100 100 98 100 100 100 100 100 100 100 100 100 100 100 100
100 100 100 100 100 100 100 100 100 100 100 100 100 100 100 100 100 100 100 100 100 100 100 100 100 98 100 100 99 100 100 100 90 66 50 100 97 100 100 100 100 100 100 100
100 100 100 100 100 100 100 100 100 100 100 94 100 100 100 100 100 100 100 100 100 100 100 100 100 100 100 100 100 100 100 89 99 97 59 91 96 99 99 98 93 100 100 100
100 100 100 100 100 100 100 100 100 97 90 97 81 100 100 100 100 100 100 100 100 100 100 100 100 100 100 100 100 99 99 100 100 100 100 100 100 100 100 100 100 99 100 100
100 100 100 100 100 100 100 94 96 98 100 100 100 100 100 100 100 100 100 100 100 100 100 100 100 100 100 100 100 100 100 100 100 100 100 100 100 100 100 100 100 100 100 100
100 100 100 100 100 100 100 100 100 100 100 99 100 100 100 99 100 100 54 100 100 100 100 100 100 100 100 100 100 100 100 100 100 100 100 100 100 100 100 100 100 100 100 100
99 99 100 100 100 100 100 100 100 100 100 100 100 99 100 77 88 100 100 97 97 99 98 100 100 100 100 100 100 98 100 100 100 100 100 100 100 100 100 100 100 100 100 100
89 85 95 100 100 100 100 100 100 100 100 100 99 100 99 100 100 100 98 85 100 100 100 100 100 100 100 100 100 100 100 100 100 100 100 100 100 100 100 100 100 100 100 100
100 68 97 90 100 100 100 100 100 100 100 100 100 100 100 100 100 100 100 100 100 100 100 100 100 100 100 100 100 100 100 100 100 100 100 100 100 100 100 100 100 100 100 100
100 100 100 100 100 100 100 100 100 100 100 90 80 90 100 100 100 100 100 100 100 100 100 100 100 100 100 100 100 100 100 100 100 100 100 100 100 100 100 100 100 100 100 100

GFSNW_prec_cloud_081.txt.gz
Cloud_Cover
13 91 68 98 67 100 100 100 100 100 100 98 100 100 100 96 29 5 5 5 5 5 100 98 100 100 100 100 100 100 100 100 100 100 100 100 100 100 100 100 100 100 100 100
59 95 100 45 87 100 100 100 100 100 99 94 83 72 91 100 77 7 5 5 19 79 58 100 100 100 100 100 100 100 100 100 100 100 100 100 100 100 100 100 100 100 100 100
8 15 87 44 32 100 95 85 96 100 100 95 69 95 100 100 52 51 75 100 87 97 100 100 100 100 100 100 100 100 100 100 100 100 100 100 100 100 100 100 100 100 100 100
88 23 5 4 7 96 97 98 51 99 91 86 77 94 68 100 100 95 97 100 100 100 100 100 100 100 100 100 100 100 100 100 100 100 100 99 100 100 100 99 100 100 100 100
100 95 11 5 5 27 100 94 79 96 98 89 75 68 47 79 100 100 69 100 100 100 100 100 100 100 100 100 100 100 100 100 100 100 100 100 100 100 100 100 100 100 100 100
100 98 75 53 2 19 100 65 70 25 92 100 100 76 22 36 99 100 100 100 100 100 100 100 100 96 100 100 100 100 100 100 100 100 100 100 100 100 100 100 100 100 100 100
100 100 100 97 12 4 82 66 88 100 34 100 75 94 42 31 100 100 100 100 94 82 79 74 76 99 91 100 100 100 100 100 100 100 100 100 100 100 100 100 100 100 100 100
100 100 100 100 100 94 54 98 98 93 100 100 100 100 97 99 78 76 52 98 100 80 68 98 100 97 100 98 100 100 100 100 100 100 100 100 100 92 100 100 100 100 100 100
100 100 100 100 100 100 78 100 100 100 100 82 100 100 100 100 100 78 100 100 100 100 100 99 98 100 100 100 100 100 100 100 99 100 100 100 100 100 100 100 100 85 65 99
100 100 100 100 100 100 93 100 100 100 100 100 100 100 100 100 95 93 88 100 100 100 100 89 96 100 97 88 100 100 100 100 100 100 100 100 100 100 100 100 100 100 100 95
91 100 100 100 100 100 100 100 100 100 87 100 70 77 12 98 98 100 100 100 100 100 100 100 100 88 94 100 95 100 100 100 100 100 100 100 100 98 85 100 100 100 100 100
100 96 96 100 100 100 100 100 100 100 100 100 51 16 29 94 100 100 100 100 100 79 99 78 100 94 51 95 100 83 96 97 100 100 100 100 100 100 99 96 45 45 30 5
5 45 98 100 100 100 100 100 100 100 100 100 85 32 48 8 100 100 100 100 100 99 100 100 100 92 98 90 94 100 98 100 100 97 86 100 48 100 100 15 8 5 5 5
91 52 8 78 100 100 100 100 100 100 100 96 12 2 18 100 100 100 100 100 100 100 100 100 100 100 81 95 99 52 100 94 100 100 100 97 100 100 93 24 53 5 0 0
98 43 12 29 100 100 100 100 100 100 100 62 26 94 100 100 100 100 100 100 100 100 100 100 100 100 99 100 100 100 100 100 99 98 79 76 63 92 13 11 65 54 34 1
88 8 43 100 100 100 100 100 100 99 100 100 100 100 100 100 100 100 100 100 100 100 100 100 100 100 100 100 100 100 100 100 100 96 100 56 20 87 62 75 96 46 29 28
80 100 100 100 100 100 100 95 82 98 100 100 100 100 100 100 100 100 100 100 100 100 100 97 100 100 100 100 100 100 100 100 100 100 99 54 100 96 99 100 100 78 97 100
100 100 100 100 100 100 100 100 100 100 100 100 100 100 100 100 100 100 100 100 100 100 100 89 100 100 100 100 100 100 100 100 100 100 99 99 100 100 93 72 34 34 49 85
100 100 100 100 100 100 100 100 100 100 100 100 100 100 100 100 100 100 100 100 100 100 100 100 97 100 100 100 100 100 100 100 100 100 100 100 99 100 94 82 78 78 95 100
100 100 100 100 100 100 100 100 100 100 100 100 100 100 100 100 100 100 100 100 100 100 100 94 100 100 100 100 100 99 94 86 79 68 64 77 96 100 100 100 100 100 100 100
100 100 100 100 100 100 100 100 100 100 100 100 100 100 100 100 100 100 100 100 100 100 100 100 100 100 100 100 100 100 90 97 94 94 100 100 100 100 100 100 100 100 100 100
100 100 100 100 100 100 100 100 100 100 100 100 100 100 100 100 100 100 100 100 100 100 100 100 100 100 100 100 100 100 100 99 100 100 100 100 100 94 100 100 100 100 100 100
100 100 100 100 99 100 100 100 100 100 100 100 100 100 100 100 100 100 100 100 100 100 100 100 100 100 100 100 100 100 100 100 100 100 100 100 100 100 100 100 100 100 100 100
100 100 100 100 100 100 100 100 100 100 100 100 100 100 100 100 99 97 100 98 100 100 100 100 100 100 100 100 100 100 100 100 100 100 100 100 100 100 100 100 100 100 100 100
100 100 100 100 100 100 100 98 100 100 100 100 98 99 100 100 81 97 100 100 100 100 100 100 100 100 100 100 100 100 100 100 100 100 100 100 100 100 100 100 100 100 100 100
100 100 100 100 100 100 100 100 99 99 100 99 97 98 98 100 100 96 99 100 100 100 100 100 100 100 100 100 100 100 100 100 100 100 100 100 100 100 100 100 100 100 100 100
100 100 100 100 100 100 100 100 100 98 100 100 99 100 100 100 100 100 100 100 100 100 100 100 100 100 100 100 100 100 100 100 100 100 100 100 100 100 100 100 100 100 100 100

GFSNW_prec_cloud_084.txt.gz
Cloud_Cover
94 57 5 98 100 56 100 70 98 100 100 100 100 100 100 100 100 100 100 100 100 48 100 97 97 6 99 100 100 100 100 100 100 100 100 100 100 100 100 100 100 100 100 100
100 100 99 10 100 56 99 88 96 100 100 97 95 100 100 100 100 100 100 100 100 22 100 96 26 100 42 100 100 100 100 100 100 100 100 100 100 100 100 100 100 100 100 100
100 100 97 69 92 85 83 100 96 100 100 94 100 100 100 100 100 100 100 100 100 78 100 79 86 100 81 100 100 100 100 100 100 100 100 100 100 100 100 100 100 100 100 100
20 54 51 54 49 38 100 100 58 74 91 100 100 100 100 100 100 100 100 100 100 82 88 98 100 43 64 100 100 100 100 100 100 100 100 100 100 100 100 100 100 100 100 100
100 31 67 7 4 5 78 100 72 17 100 77 100 100 100 100 100 100 99 91 81 90 100 59 97 52 96 100 100 100 100 100 100 100 100 100 100 100 100 100 100 100 100 100
100 100 100 92 9 5 94 99 25 82 25 35 77 21 97 97 72 32 100 100 15 99 100 65 26 4 94 94 100 100 100 100 100 100 100 100 100 100 100 100 100 100 100 100
99 97 100 100 86 1 31 27 73 97 51 92 85 98 100 47 90 5 64 86 90 64 16 24 66 63 51 27 100 100 100 100 100 100 100 89 100 100 100 100 100 100 100 100
100 100 99 100 100 55 5 20 30 89 100 99 84 98 89 89 69 5 42 100 100 64 7 17 18 5 42 5 99 100 100 100 100 100 100 100 100 100 100 100 100 100 98 100
100 99 84 99 100 100 100 89 36 83 94 37 100 100 100 98 100 80 84 100 95 94 5 85 72 68 48 55 73 100 100 100 100 100 100 100 100 100 100 100 100 100 100 100
86 97 100 100 100 100 100 100 100 99 100 100 100 98 100 61 100 100 99 89 71 55 100 100 96 63 82 100 100 97 100 100 100 100 100 100 100 100 100 100 100 100 100 100
54 70 95 100 100 100 100 100 100 100 100 100 97 88 51 66 97 98 94 100 98 100 100 100 92 9 85 100 100 97 93 100 100 100 100 100 100 100 100 100 100 100 100 100
19 9 53 79 100 100 100 100 100 100 97 100 79 52 91 51 98 100 79 90 100 92 100 34 98 96 100 100 99 100 88 100 100 100 100 100 100 100 100 100 100 100 100 100
5 6 80 99 100 100 100 100 100 100 100 99 50 10 2 5 8 94 100 100 100 100 100 98 59 98 100 100 97 100 100 100 100 100 100 100 100 100 100 100 100 99 85 48
52 5 5 64 88 100 100 100 100 100 100 100 100 10 1 2 5 48 100 98 100 100 100 100 100 100 100 100 100 99 100 100 100 100 100 100 100 100 100 100 100 93 45 44
78 97 19 19 26 100 100 100 100 100 100 100 92 25 40 5 2 26 71 100 100 100 100 100 100 100 100 100 100 99 98 94 100 100 100 100 100 100 100 94 100 88 8 5
96 99 100 99 5 100 100 100 100 100 100 100 90 53 27 6 75 100 100 100 100 100 100 100 100 100 100 100 100 100 100 100 100 100 100 98 97 98 83 86 43 14 7 18
100 100 100 67 100 100 100 100 100 100 100 100 100 86 56 100 100 100 100 100 100 100 100 100 100 100 100 100 100 100 100 100 100 100 100 97 100 94 100 100 40 40 41 57
100 100 100 100 100 100 100 100 100 88 100 100 100 100 100 100 100 100 100 100 100 100 100 100 100 100 100 100 100 100 100 100 100 100 100 100 100 99 100 90 94 96 100 100
100 100 100 100 100 100 100 100 100 98 86 100 100 100 100 100 100 100 100 100 100 100 100 100 100 100 100 100 100 100 100 100 100 100 100 100 100 100 100 100 100 100 100 100
100 100 100 100 100 100 100 100 100 100 100 100 100 100 100 100 100 100 100 100 100 100 100 99 100 100 100 100 100 100 100 100 100 100 100 100 100 100 100 100 100 100 100 100
100 100 100 100 100 100 100 100 100 100 98 92 100 100 100 100 100 100 100 100 100 100 98 100 100 100 100 100 100 100 100 100 100 100 100 100 100 100 100 100 100 100 100 100
100 100 100 100 100 100 100 100 100 100 100 100 100 100 100 100 100 100 100 100 100 100 100 100 100 100 100 100 100 100 100 100 100 100 100 100 100 100 100 100 100 100 100 100
100 100 100 100 99 100 100 100 100 100 100 100 100 100 100 100 100 100 100 99 98 100 100 100 100 100 97 100 100 100 100 100 100 100 100 100 100 100 100 100 100 100 100 100
100 100 100 100 100 100 100 100 100 100 100 100 100 100 100 100 100 100 100 94 77 100 98 100 100 100 100 100 99 97 98 100 100 100 100 96 99 100 99 100 96 94 89 100
100 100 100 100 100 100 100 100 100 100 100 100 100 100 100 100 100 100 100 98 100 98 100 100 100 100 98 100 100 100 100 99 95 100 100 98 99 100 100 97 88 86 99 100
100 100 100 100 100 100 100 100 100 100 100 100 100 99 99 99 98 97 96 100 100 100 100 100 93 100 100 100 99 99 95 93 98 100 100 100 99 99 100 98 100 100 100 100
100 98 95 100 88 100 100 100 100 98 98 97 100 98 95 91 99 99 99 100 100 100 100 100 100 100 100 100 100 100 100 100 100 100 100 100 100 100 100 100 100 100 99 99

GFSNW_prec_cloud_087.txt.gz
Cloud_Cover
5 4 9 37 100 74 26 100 91 8 100 100 100 100 100 100 100 100 100 100 94 99 79 5 12 84 85 8 54 100 100 100 99 100 100 100 100 100 100 100 100 100 100 100
30 5 37 100 66 82 86 100 5 68 99 85 100 99 100 100 100 100 100 100 100 100 100 50 100 67 63 5 60 100 100 100 100 100 100 100 100 100 100 100 100 100 100 100
33 5 31 100 100 77 77 100 72 4 100 100 100 100 100 100 100 100 100 100 100 100 100 100 100 89 90 71 2 100 100 100 100 100 100 100 100 100 100 100 100 100 100 100
99 5 5 51 96 75 52 100 98 68 97 100 100 100 100 100 100 100 100 100 100 100 100 86 100 100 100 72 94 30 100 100 100 100 100 100 100 100 100 100 100 100 100 100
100 100 8 13 3 5 70 100 99 99 15 99 100 100 100 100 100 100 100 100 100 100 100 98 83 5 3 5 5 80 100 100 100 100 100 100 100 100 100 100 100 100 100 100
68 94 100 74 24 4 97 25 40 95 5 65 99 100 100 100 100 100 100 100 100 100 96 98 100 83 5 31 66 100 100 100 100 100 100 100 100 100 100 100 100 100 100 100
93 90 90 100 100 23 3 6 12 84 38 5 45 6 80 100 100 100 100 100 100 100 30 56 24 57 81 5 4 48 100 100 100 100 100 100 100 100 100 100 100 100 100 100
96 92 100 82 100 81 10 5 5 38 16 5 0 5 88 81 71 100 100 95 94 86 100 55 9 0 5 46 1 2 100 100 100 100 100 100 100 100 100 100 100 100 74 100
100 100 92 100 100 100 89 100 19 44 36 11 0 9 98 82 69 49 5 5 5 52 100 100 5 5 2 4 4 0 53 100 100 100 100 100 100 100 100 100 100 18 100 100
73 76 100 100 100 99 100 100 100 78 71 5 5 5 78 42 46 98 58 88 76 100 100 96 11 5 0 5 68 100 32 91 100 100 100 100 100 100 100 100 100 98 100 100
98 100 100 100 100 99 100 100 98 97 100 98 30 70 24 99 100 87 50 100 100 100 100 84 8 5 9 9 100 100 100 92 100 100 100 100 100 100 100 100 100 100 100 100
87 79 100 100 100 100 100 100 100 100 97 100 93 44 59 100 99 96 100 100 100 100 74 5 22 17 94 99 94 100 100 59 85 100 100 100 100 100 100 100 100 100 100 100
99 80 96 100 86 100 100 100 100 100 100 100 100 100 100 56 30 20 84 100 100 100 100 98 96 100 100 100 100 100 100 100 97 100 100 100 100 100 100 100 100 100 100 100
100 72 78 99 100 100 100 100 100 100 100 100 100 58 100 71 4 5 10 100 100 80 100 100 100 100 100 100 100 92 100 100 100 100 100 100 100 100 100 100 100 100 100 100
70 100 99 98 100 100 100 100 100 100 100 100 96 95 95 6 0 4 27 97 99 78 100 100 100 100 100 100 100 100 100 100 100 100 100 100 100 100 100 100 100 100 100 100
100 97 83 100 100 100 100 100 100 100 100 93 100 96 10 2 5 0 83 40 26 65 100 100 100 100 100 100 100 100 100 100 100 100 100 100 100 100 100 100 100 100 100 100
98 100 100 100 100 96 100 95 98 100 100 100 100 95 82 8 24 5 44 9 98 98 100 100 100 100 100 100 100 100 100 100 100 100 100 100 100 100 100 100 100 100 100 100
100 100 100 100 100 100 100 100 100 100 100 100 98 85 100 33 24 20 100 100 100 100 100 100 100 100 100 100 100 100 100 100 100 100 100 100 100 100 100 100 96 100 100 100
100 100 100 100 100 100 100 100 100 100 82 100 100 76 99 90 89 100 100 100 100 100 100 100 100 100 100 100 100 100 100 100 100 86 100 100 100 100 100 100 96 92 100 100
100 100 100 100 100 100 100 100 100 100 100 99 100 100 100 100 100 100 100 100 100 100 100 100 100 100 99 100 100 100 100 100 100 100 100 100 100 100 100 100 100 100 100 100
100 100 100 100 100 100 100 100 100 97 100 78 100 100 100 100 100 100 100 100 100 100 100 100 100 100 100 100 100 100 100 100 100 100 100 100 100 100 100 100 100 100 100 100
100 100 100 100 100 96 100 100 100 51 89 97 100 100 100 100 100 100 100 100 100 100 100 100 100 100 100 100 100 95 100 100 100 100 100 100 100 100 100 100 100 100 100 100
100 100 100 100 99 100 98 65 98 100 100 100 100 100 100 100 100 100 100 100 100 100 100 100 100 100 100 90 76 77 10 37 73 90 74 61 98 93 86 100 100 89 81 95
96 86 86 96 89 89 100 100 100 100 100 100 100 100 100 100 100 100 100 87 100 100 100 99 100 100 100 100 81 100 86 66 55 64 26 80 97 100 100 100 74 54 89 97
100 100 100 100 100 100 100 100 95 100 100 100 100 100 100 100 100 100 100 99 99 95 98 100 100 94 100 73 94 75 46 48 71 75 67 72 60 91 99 91 74 67 72 77
100 100 100 100 100 100 100 100 100 100 100 100 100 100 100 100 100 100 98 98 98 100 95 93 57 75 46 84 98 100 100 98 98 93 71 64 64 76 90 80 89 93 98 93
100 100 100 100 100 100 100 100 100 100 100 100 100 99 80 83 97 99 97 99 93 100 100 94 98 98 98 100 100 100 96 88 100 82 80 65 32 62 77 94 97 95 91 88

GFSNW_prec_cloud_093.txt.gz
Cloud_Cover
5 5 5 5 63 4 5 90 93 72 96 100 97 24 100 100 100 100 100 100 100 100 98 100 100 100 100 100 100 100 100 100 100 100 78 100 92 67 100 100 100 96 100 100
5 5 15 89 30 4 9 93 95 62 71 100 51 4 100 100 100 100 100 100 100 100 100 100 100 100 100 100 100 100 100 100 100 100 78 98 84 99 100 99 100 100 100 100
5 5 70 91 98 5 5 85 80 78 92 100 100 5 100 100 100 100 100 100 100 100 100 100 100 100 100 100 100 100 100 100 100 100 89 60 76 61 100 98 100 100 100 100
5 5 5 57 87 18 5 88 55 48 100 100 100 57 100 100 100 100 100 100 100 100 94 100 100 100 100 96 100 100 100 100 100 92 49 30 5 64 90 100 100 100 100 100
9 5 47 100 61 13 30 72 80 95 100 100 100 100 100 100 100 100 100 100 100 100 100 100 100 100 99 100 100 100 100 100 96 27 5 5 2 100 100 100 100 94 100 100
28 5 70 100 77 7 25 37 19 71 18 100 100 100 100 100 100 100 100 100 100 100 40 10 96 100 100 100 100 100 100 100 82 22 5 0 0 56 100 100 100 98 100 100
27 5 59 100 100 63 53 19 5 5 19 55 100 98 100 100 100 100 100 100 100 75 84 100 100 100 100 100 100 100 100 100 100 50 12 1 7 100 100 100 100 100 100 100
16 5 25 100 100 100 99 91 74 5 98 5 96 28 100 100 100 100 100 100 100 100 100 100 100 100 100 100 100 100 100 100 20 5 5 5 100 100 100 100 100 100 100 100
100 84 5 74 100 100 100 100 100 50 50 6 17 5 74 100 100 100 100 100 100 100 100 100 100 100 100 100 100 98 51 70 50 21 6 26 100 100 100 100 100 100 100 100
92 85 60 99 100 100 100 100 100 100 77 5 6 44 60 95 100 100 100 100 100 100 100 100 100 100 100 100 100 81 42 32 71 41 100 41 100 100 100 100 100 100 100 100
98 10 83 100 100 100 100 100 100 90 65 63 41 2 5 6 97 100 100 100 100 100 100 100 100 100 100 100 100 100 100 100 97 81 96 75 100 98 36 73 100 100 100 100
100 85 98 100 100 100 100 100 100 100 100 51 53 3 0 1 5 73 100 100 100 100 100 100 100 100 100 100 100 100 34 83 99 92 11 97 100 100 96 78 100 100 100 100
96 96 100 100 100 100 100 100 100 100 100 96 95 41 26 0 0 61 5 32 82 100 100 100 100 100 24 39 8 100 82 100 100 99 100 100 100 100 100 100 100 100 100 100
86 100 100 100 100 100 100 100 100 100 100 96 95 50 64 14 26 28 4 13 88 100 100 100 100 97 47 95 96 98 100 100 100 100 100 100 100 100 100 100 100 100 100 100
100 100 100 100 100 100 100 100 100 100 98 62 98 90 82 35 97 100 28 36 96 86 98 100 80 78 62 46 99 100 100 100 100 100 100 100 100 100 100 100 100 100 100 100
100 100 100 100 100 100 100 100 100 100 100 100 99 87 71 92 77 43 99 100 84 95 99 100 100 98 91 100 100 100 100 100 100 100 100 100 100 100 100 100 100 100 100 100
100 100 100 100 100 100 100 100 100 100 100 100 100 100 78 97 97 100 100 72 97 100 100 100 100 100 100 100 100 100 100 100 100 100 100 100 100 100 100 100 100 100 100 100
100 100 100 100 100 100 100 74 100 100 100 100 98 81 7 94 100 100 100 30 14 100 100 99 100 100 100 100 100 100 100 100 100 100 100 100 100 100 100 100 100 100 100 100
100 100 100 100 100 100 100 100 100 100 76 100 100 38 98 100 100 98 40 32 96 35 100 96 100 100 100 100 100 98 82 100 100 100 100 100 100 100 100 100 100 100 100 99
100 100 100 100 100 100 100 100 100 100 100 97 79 74 92 89 77 99 94 100 52 100 100 100 100 100 100 100 96 35 17 61 100 100 100 54 92 100 100 100 100 100 100 100
100 100 100 100 100 100 100 100 99 100 100 100 88 90 100 100 100 100 75 95 100 99 100 100 79 100 100 97 76 96 73 42 87 89 98 100 100 100 100 99 100 100 100 100
100 100 100 100 100 100 100 79 87 92 94 82 96 100 100 100 100 100 96 100 100 100 100 100 100 100 100 100 100 100 97 100 98 88 98 82 90 76 76 83 93 100 98 85
100 100 100 100 100 100 97 100 100 84 100 100 100 100 100 100 100 100 100 100 100 100 99 94 100 100 100 100 100 94 84 87 100 100 100 100 100 98 100 100 100 100 90 83
100 100 100 100 100 100 100 96 45 88 100 100 100 100 100 95 90 86 94 78 85 98 65 88 100 100 100 100 100 99 82 87 61 77 63 89 95 100 89 85 73 66 88 97
100 100 100 100 99 97 95 99 100 100 100 100 100 100 100 92 94 100 100 87 98 99 100 100 100 100 98 85 69 57 58 70 74 67 78 96 73 84 99 86 72 57 53 55
69 84 78 84 87 98 99 100 100 100 100 99 100 100 100 100 100 100 100 100 97 87 94 95 93 100 100 100 100 100 79 70 75 61 53 29 19 69 98 73 45 58 25 61
86 98 100 100 87 100 100 100 100 100 100 100 100 100 100 100 86 100 82 95 100 100 100 94 66 67 100 99 98 80 60 74 69 65 46 61 63 52 47 74 74 46 12 43

GFSNW_prec_cloud_096.txt.gz
Cloud_Cover
5 5 5 5 34 5 4 29 46 6 89 100 71 81 3 37 100 100 100 100 100 100 100 100 100 100 100 100 100 100 100 100 100 100 100 100 93 37 32 99 81 100 100 53
34 5 5 38 36 5 5 11 24 15 98 64 93 95 4 90 100 100 100 100 100 100 100 100 100 100 100 100 100 100 100 100 100 100 100 100 100 79 85 100 100 100 98 71
5 5 5 16 88 71 38 72 75 10 98 99 100 88 4 96 100 100 100 100 100 100 100 100 100 100 100 100 100 100 100 100 100 100 100 100 100 81 96 100 100 86 73 14
5 5 7 5 98 56 5 82 51 73 89 100 100 100 8 100 100 100 100 100 100 100 100 100 100 100 100 100 100 100 100 100 100 100 100 100 100 99 53 23 86 86 12 74
5 5 77 42 89 50 5 8 69 83 88 88 90 100 100 100 100 100 100 100 100 100 100 100 100 100 99 100 100 100 100 100 100 100 100 100 100 34 32 5 72 5 20 89
5 46 46 57 99 43 6 81 11 33 10 16 99 99 100 100 100 100 100 100 100 100 100 100 100 100 100 100 100 100 100 76 88 100 29 6 15 5 25 49 6 6 93 100
5 48 68 50 100 86 75 96 75 7 39 19 96 97 100 100 100 100 100 100 100 100 84 98 86 100 100 100 100 100 100 100 100 100 89 85 64 5 3 5 42 93 97 100
5 98 93 90 100 100 88 99 100 86 92 6 100 17 92 100 100 100 100 100 93 11 18 71 100 100 100 100 100 100 100 100 100 100 100 100 100 41 5 5 49 100 100 100
74 93 5 17 66 96 100 100 100 100 91 8 5 57 35 96 100 100 100 100 100 75 100 100 100 100 100 100 100 100 100 100 100 100 100 100 100 46 6 42 54 100 100 100
69 32 92 66 52 70 99 100 100 100 93 48 13 73 90 79 65 100 100 100 100 100 100 100 100 100 100 100 100 100 100 100 100 100 100 100 100 69 5 4 98 100 100 100
91 86 95 59 72 98 100 100 100 96 71 16 21 83 14 5 46 94 100 100 100 100 100 100 100 100 100 100 100 100 100 100 100 100 100 100 100 99 22 100 100 100 100 100
100 100 100 24 96 98 100 100 100 100 95 38 55 5 5 0 3 8 90 69 100 100 100 100 100 100 100 100 98 84 60 99 100 96 100 100 100 100 100 100 100 100 100 100
82 100 100 97 100 100 100 100 100 100 100 84 80 45 4 5 0 1 5 27 76 99 98 100 100 100 100 100 98 99 99 100 100 100 100 100 100 100 100 100 100 100 100 100
100 100 82 100 100 100 100 100 100 100 100 98 70 67 46 10 0 0 0 5 7 99 96 96 92 90 70 100 100 100 100 100 100 100 100 100 100 100 100 100 100 100 99 100
100 100 100 100 100 100 100 100 100 100 100 94 61 65 99 71 5 0 0 4 5 95 100 91 72 30 76 99 100 100 100 99 100 100 100 100 100 100 100 100 100 100 100 100
100 100 100 100 100 100 100 100 100 100 100 100 93 99 26 41 97 87 17 5 42 71 73 100 99 93 85 100 98 100 96 100 100 100 100 100 100 100 100 100 100 100 100 100
100 100 100 100 100 100 100 100 100 100 100 100 100 100 95 90 100 57 57 95 99 99 100 100 88 100 100 100 95 100 100 100 100 100 100 100 100 100 100 100 100 98 100 100
100 100 100 100 100 100 100 100 100 100 100 100 98 100 100 16 36 34 11 54 24 100 100 99 62 99 100 90 98 100 100 100 100 100 100 100 100 100 100 100 100 100 100 100
100 100 100 100 100 100 100 100 100 100 100 100 100 40 22 79 83 92 97 89 100 100 100 100 59 100 100 100 100 100 100 100 100 100 100 100 100 100 100 100 100 100 100 100
100 100 100 100 100 100 100 100 100 100 100 99 98 31 81 94 91 96 96 77 99 99 89 100 84 100 100 100 100 100 100 100 100 100 100 100 100 100 99 100 100 100 100 100
100 100 100 71 100 100 100 100 100 100 100 100 74 98 100 88 70 100 83 100 96 85 67 100 94 100 100 94 91 100 100 90 85 100 98 100 100 100 100 100 100 100 100 100
100 100 100 100 100 100 100 100 99 83 49 100 100 97 75 100 99 100 100 100 95 100 100 98 90 96 97 92 77 58 80 74 72 92 100 100 100 100 99 100 100 100 100 94
100 100 100 100 100 100 91 75 81 91 90 98 100 100 89 100 100 100 100 100 100 100 100 100 100 99 94 82 81 95 97 84 99 100 78 51 58 54 70 96 91 55 71 68
100 92 98 80 73 100 100 100 100 100 100 91 100 100 99 100 100 100 100 100 100 100 100 100 100 100 100 100 100 99 100 100 100 100 99 99 100 98 79 83 49 12 83 68
94 100 100 100 100 100 100 100 100 100 100 100 100 100 100 100 100 100 100 100 100 100 100 100 100 100 100 100 100 92 79 62 66 43 72 92 77 80 100 96 80 65 69 85
100 100 100 100 100 100 100 99 100 100 100 100 88 98 100 100 100 100 100 100 100 100 100 100 100 95 87 77 45 60 40 50 64 57 38 56 22 55 99 85 65 66 31 52
100 100 100 100 96 100 100 100 100 85 100 100 100 100 100 100 100 100 87 97 100 100 100 95 60 56 89 77 60 65 60 77 62 61 51 69 73 62 34 66 69 53 37 73

GFSNW_prec_cloud_102.txt.gz
Cloud_Cover
5 5 5 5 5 5 1 2 5 3 20 92 98 100 100 73 97 100 100 100 100 100 100 100 100 99 99 100 100 100 100 100 100 100 100 100 100 100 100 100 100 100 100 100
82 5 5 5 5 5 5 5 5 3 51 88 96 91 100 100 100 100 100 100 100 100 100 100 100 100 100 100 100 100 100 100 100 100 96 98 100 100 100 100 100 100 100 100
93 91 7 5 5 5 5 7 5 5 46 43 84 85 100 100 100 100 100 100 100 100 100 100 100 100 100 100 100 100 100 100 100 100 100 100 100 100 100 100 100 100 81 59
5 8 54 6 5 5 5 11 5 5 5 19 6 32 98 100 100 100 100 100 100 100 100 100 100 100 100 100 100 100 100 100 100 100 100 100 100 100 100 100 100 98 22 11
100 72 7 7 30 5 11 75 33 5 5 5 5 5 54 99 100 100 100 100 100 100 100 100 100 100 100 100 100 100 100 100 100 100 100 100 100 100 100 100 100 84 6 90
100 100 94 99 50 21 41 5 4 15 1 0 1 13 5 98 39 74 100 100 100 100 100 100 100 100 100 100 100 100 100 100 100 100 100 100 100 94 100 100 54 93 99 99
100 100 100 64 60 57 75 18 20 81 46 5 4 2 5 8 98 82 100 100 100 100 100 100 100 100 100 100 100 100 100 78 100 100 100 99 89 68 99 32 41 75 80 96
100 100 100 91 82 96 57 7 35 78 88 5 5 4 5 6 95 78 50 100 100 100 100 100 100 100 100 100 100 100 100 100 100 100 100 100 100 100 100 100 98 98 100 100
100 100 100 74 90 99 100 100 82 62 87 35 4 5 5 5 59 28 100 100 100 100 100 100 100 100 100 100 100 100 100 100 100 100 100 100 100 100 100 100 100 100 100 100
100 100 100 90 57 86 95 100 100 93 88 39 5 78 18 16 69 19 50 66 97 100 100 100 100 100 100 100 100 100 100 100 100 100 100 100 100 100 100 100 84 100 100 100
100 99 91 98 17 84 98 100 100 100 66 66 8 5 38 83 74 8 6 72 70 99 100 100 100 100 98 96 75 100 100 100 98 100 100 100 100 92 100 100 100 100 100 100
100 100 99 6 20 100 100 100 100 100 100 96 10 5 5 5 6 18 37 49 86 97 100 100 100 100 94 96 100 98 100 99 98 94 100 100 100 100 100 100 100 100 100 100
100 100 97 5 43 100 100 100 100 100 100 98 93 5 5 5 2 5 5 10 36 83 47 100 100 100 80 100 100 100 100 100 100 100 100 100 100 100 100 100 100 100 100 100
100 76 100 51 25 14 97 100 100 100 100 94 26 5 5 5 4 3 5 15 47 97 94 100 90 98 63 98 95 95 100 99 100 100 100 100 100 100 100 100 100 100 99 96
99 100 75 100 98 89 69 100 100 100 98 97 58 5 5 5 5 4 5 5 5 5 78 94 100 77 84 60 53 98 80 100 100 100 100 100 100 100 100 99 100 87 99 97
97 100 100 100 100 100 100 100 100 100 100 100 65 10 22 5 5 5 5 5 11 28 100 100 88 60 64 92 96 100 100 100 100 100 96 92 97 100 100 100 100 98 90 73
79 100 100 100 100 100 100 98 99 88 100 100 77 94 66 35 5 27 54 27 94 72 85 15 70 99 72 60 92 100 100 100 100 94 97 100 100 100 100 100 100 86 78 20
100 100 100 100 100 100 100 98 100 100 100 100 75 64 70 94 100 97 46 78 62 75 83 71 54 78 78 100 100 100 100 92 95 100 89 100 100 100 100 100 100 100 100 100
100 100 100 100 100 100 100 100 100 100 100 100 100 64 95 53 100 100 98 100 94 80 76 83 64 92 84 100 79 96 95 86 100 100 100 100 100 100 99 100 100 100 100 100
85 100 100 100 100 100 100 100 100 100 100 100 100 31 94 99 100 100 100 63 100 100 77 100 88 92 94 94 87 96 86 100 100 100 100 100 100 100 100 100 100 100 100 100
100 100 100 100 100 100 100 100 100 100 100 100 70 13 68 33 76 100 85 99 100 100 98 99 100 92 100 100 98 63 67 62 62 79 85 100 97 100 98 100 100 100 100 100
100 100 100 100 100 100 100 88 99 97 56 93 100 96 95 66 51 76 85 93 88 100 86 91 100 100 100 100 98 82 66 70 70 92 100 100 100 98 100 100 100 99 100 100
100 100 100 100 100 100 93 98 88 76 84 100 98 97 96 93 78 100 100 100 100 86 100 92 96 100 100 98 96 75 97 94 88 100 100 100 100 99 99 100 100 100 100 100
100 100 100 97 100 49 8 67 99 17 55 100 89 98 99 98 100 98 100 93 93 100 100 75 100 100 100 100 100 100 100 100 100 100 100 100 100 100 91 90 71 58 67 56
100 100 86 64 49 100 100 100 94 55 100 95 91 96 99 100 100 96 97 100 99 98 89 92 100 100 100 100 100 99 93 98 100 100 96 98 98 95 100 100 100 87 92 90
100 100 100 100 100 100 100 98 100 94 88 78 26 46 100 66 80 94 84 97 100 100 100 100 100 100 100 100 100 100 90 91 100 100 95 94 97 100 100 100 93 81 62 67
100 100 100 100 99 100 100 100 89 100 94 95 100 100 100 97 100 99 100 100 100 100 100 98 95 71 81 80 78 85 92 100 100 100 100 99 99 97 100 100 98 95 62 33

GFSNW_prec_cloud_105.txt.gz
Cloud_Cover
100 60 59 57 5 5 4 4 49 1 5 97 96 90 98 36 100 100 100 100 100 100 100 96 100 100 94 99 100 100 100 100 100 100 100 100 100 100 100 100 100 100 100 100
100 100 80 5 5 5 6 5 2 1 26 75 94 27 100 100 76 100 99 100 100 100 100 100 100 100 21 100 100 100 100 100 100 100 100 100 100 100 100 100 100 100 100 100
100 100 88 24 5 5 4 11 58 22 30 18 86 36 90 96 96 98 100 100 100 100 100 100 100 100 62 100 100 100 100 100 100 100 100 100 100 100 100 100 100 100 100 100
93 100 82 13 5 5 16 18 13 2 80 87 6 29 85 97 16 78 91 100 100 100 100 100 100 100 96 100 100 100 100 100 100 100 100 100 100 100 100 100 100 100 100 100
100 100 100 92 11 5 31 83 72 4 5 5 25 13 5 5 5 70 100 100 100 100 100 100 100 100 100 100 100 100 100 100 100 100 100 100 100 100 100 100 100 100 100 100
100 100 100 98 18 20 99 5 6 5 8 5 23 34 0 3 5 5 100 100 100 100 100 100 100 100 100 100 100 100 100 100 100 100 100 100 100 100 100 100 100 100 100 100
100 100 100 100 7 32 100 91 89 87 81 5 8 0 0 0 4 62 100 100 94 100 100 100 100 100 100 100 100 100 100 100 100 100 100 100 100 100 100 100 100 100 100 100
100 100 100 99 52 8 98 89 99 94 90 29 5 5 0 2 3 21 74 100 100 96 100 100 100 100 100 100 100 100 100 100 100 100 100 100 100 100 99 100 100 100 100 100
100 100 100 99 96 53 62 99 80 100 86 94 4 5 2 5 5 5 62 97 100 100 100 100 100 100 100 100 100 100 100 100 99 100 100 100 100 100 96 92 100 100 100 74
100 100 100 100 100 97 98 87 48 52 87 95 12 99 77 42 15 5 13 85 100 100 98 100 100 100 100 100 100 100 100 100 100 77 100 100 100 100 100 99 100 100 100 100
100 100 100 100 100 100 100 98 47 84 60 78 87 90 100 98 98 96 40 86 93 100 88 100 100 100 100 100 100 100 100 100 100 93 89 98 100 100 100 100 100 100 100 100
100 100 100 100 100 100 71 93 85 97 100 35 24 13 7 8 23 91 95 94 97 99 96 95 100 100 100 100 100 100 97 100 100 100 100 100 100 100 100 100 100 100 100 100
100 100 100 100 100 65 41 100 100 100 100 59 38 82 28 12 5 15 88 95 67 84 77 100 100 100 94 100 100 91 97 100 100 99 100 100 100 100 100 100 100 100 100 100
100 100 100 98 45 51 100 100 100 100 100 100 85 1 5 6 5 5 5 63 49 49 85 100 100 100 85 99 98 100 96 96 100 100 100 100 100 100 100 100 100 98 88 66
100 92 32 26 45 29 50 89 95 100 75 100 97 29 8 5 5 5 5 5 5 40 98 67 100 100 100 96 53 96 72 94 100 100 100 99 100 100 98 98 83 78 68 75
99 6 5 100 20 78 89 100 100 98 100 100 76 74 25 8 5 5 16 67 33 59 91 79 80 89 84 91 99 97 100 100 100 100 100 100 94 100 99 100 98 90 98 100
82 5 63 87 98 100 100 99 98 100 100 100 81 97 66 45 60 57 88 100 90 98 100 97 90 83 23 81 98 100 100 100 100 100 100 100 99 99 99 93 99 99 100 94
18 32 100 100 100 100 99 99 49 100 100 100 89 79 89 73 96 100 100 100 100 100 100 80 37 56 88 98 98 100 100 100 100 98 100 90 90 100 100 89 97 99 95 100
10 99 100 100 100 100 100 100 100 100 60 100 99 75 97 82 84 97 87 100 76 85 89 91 80 99 93 100 100 98 99 99 98 100 99 100 79 100 100 100 100 100 100 100
100 100 100 100 100 100 100 100 100 100 100 99 98 73 100 99 96 76 77 97 99 100 88 94 81 98 46 76 82 88 81 62 100 99 100 100 100 100 100 100 100 100 100 99
94 100 100 100 100 100 100 100 100 100 100 98 41 41 75 49 98 77 76 73 77 82 85 87 100 80 99 73 82 81 61 5 64 27 85 92 97 99 100 100 100 100 99 100
79 100 100 100 100 100 97 94 96 84 66 94 96 54 100 72 93 81 57 79 84 98 73 92 97 93 86 98 96 94 94 64 72 73 75 85 98 94 98 99 94 96 99 100
100 100 100 100 100 98 95 98 100 100 100 96 77 75 62 86 82 96 98 98 81 40 100 94 89 100 100 100 100 93 96 92 94 90 98 98 100 100 100 100 100 100 100 100
100 100 100 99 87 35 98 100 90 98 97 19 97 98 89 100 90 96 100 82 58 98 100 88 93 100 100 100 100 100 99 95 96 90 85 95 100 100 96 98 86 85 76 5
100 100 100 57 99 100 100 100 68 55 17 20 97 99 100 100 100 100 99 98 100 93 90 100 100 100 100 97 97 100 100 100 100 100 100 100 97 98 100 100 100 82 71 57
100 100 99 100 100 100 98 100 95 62 78 83 70 47 100 74 67 100 98 100 100 100 100 100 100 100 100 100 100 100 100 100 100 100 99 100 100 100 100 100 98 97 84 94
100 100 100 100 99 100 100 95 96 100 48 86 81 51 71 98 100 100 100 100 100 100 100 100 100 97 100 100 100 100 100 100 100 100 100 100 100 100 100 100 100 100 97 41

GFSNW_prec_cloud_108.txt.gz
Cloud_Cover
100 100 100 100 100 100 100 100 93 5 4 91 17 65 92 42 41 5 48 6 82 100 100 100 100 94 54 100 100 100 100 100 100 100 100 100 100 100 100 100 100 100 100 100
100 100 100 100 100 100 90 92 21 5 2 83 68 30 100 93 60 15 63 68 79 100 100 100 100 100 100 37 52 97 100 100 100 100 100 100 100 100 100 100 100 100 100 100
100 100 100 100 100 100 25 12 31 40 37 11 36 69 98 100 54 16 24 48 41 85 100 100 100 100 97 47 9 26 100 100 100 100 100 100 100 100 100 100 100 100 100 100
100 100 100 100 98 42 14 10 7 10 60 100 8 68 100 100 5 5 5 14 89 93 100 100 100 98 65 52 100 99 100 100 100 100 100 100 100 100 100 100 100 100 100 100
100 100 100 100 100 100 100 91 75 9 7 0 20 88 19 66 5 40 5 76 9 95 100 100 100 100 92 88 100 100 100 100 100 100 100 100 100 100 100 100 100 100 100 100
100 100 100 100 100 100 99 70 33 5 79 5 26 67 2 4 7 2 18 62 100 100 100 100 100 100 100 100 100 100 100 100 100 100 100 100 100 100 100 100 100 100 100 100
100 100 100 100 100 99 94 34 66 88 31 33 63 6 5 13 5 0 14 32 100 89 100 100 100 96 93 100 100 100 100 100 100 100 100 100 100 100 100 100 100 100 100 100
100 100 100 100 100 100 85 5 23 92 36 85 54 5 5 3 64 19 28 13 100 100 100 100 100 100 100 100 100 100 100 100 100 100 100 100 100 100 100 100 100 100 100 100
100 100 100 100 100 99 59 43 40 33 84 98 24 8 89 81 35 74 87 5 100 100 100 100 100 100 100 100 100 100 100 100 100 100 100 100 100 100 100 100 100 100 100 100
100 100 100 100 100 100 78 71 28 88 99 99 37 81 81 61 77 96 86 5 70 100 100 100 100 100 100 100 100 100 100 100 100 100 100 100 100 100 100 100 100 100 100 100
100 100 100 100 100 91 67 50 62 87 97 58 86 63 75 57 82 95 49 17 12 100 100 100 100 100 100 100 100 100 100 100 100 100 100 100 100 100 100 100 100 100 100 100
100 100 100 100 100 100 100 100 100 100 100 93 5 3 5 7 10 87 39 98 89 100 100 100 100 100 100 100 100 100 100 100 100 100 100 100 100 100 100 100 100 100 100 100
100 100 100 100 100 100 100 100 100 100 100 20 10 60 22 5 21 17 88 82 20 98 100 97 94 100 100 100 100 100 100 98 100 100 100 100 100 100 100 100 100 100 100 100
100 100 100 100 100 100 100 100 100 100 100 100 71 8 9 2 4 5 6 51 72 17 24 88 96 97 98 100 100 100 100 98 98 95 100 99 100 100 100 100 84 92 100 97
100 100 100 100 100 100 100 100 100 86 74 100 75 57 70 5 5 5 5 9 5 20 43 41 77 65 63 85 80 100 100 100 100 100 100 94 100 100 100 95 67 10 63 78
100 100 100 100 100 100 100 100 40 80 80 100 58 82 49 28 10 8 46 99 67 64 72 45 27 23 14 56 81 100 100 100 100 78 100 84 100 100 97 67 37 16 53 78
100 100 100 100 100 96 84 97 100 95 100 100 84 96 31 34 100 100 100 98 77 10 38 16 79 96 6 29 99 89 100 100 100 100 100 100 100 97 97 96 79 58 81 94
100 100 100 100 100 78 69 97 100 100 100 100 100 86 52 20 91 100 84 62 74 54 47 22 71 61 6 88 99 84 92 100 100 100 100 100 100 68 90 98 90 94 95 100
100 100 98 100 100 100 100 100 100 100 100 88 100 96 52 85 80 44 51 82 95 48 65 76 37 59 71 81 41 70 84 100 99 100 100 78 60 14 34 64 90 99 100 100
7 78 100 100 100 99 100 100 100 100 100 88 86 43 83 19 88 81 100 97 35 99 58 68 65 62 33 98 100 94 77 83 98 100 100 82 76 94 86 75 79 94 99 100
81 100 100 80 98 100 100 100 100 100 99 100 44 18 95 21 48 87 96 30 43 90 46 73 79 93 100 84 45 10 5 9 42 49 55 20 86 58 55 87 100 98 97 100
18 79 99 100 100 100 100 100 100 88 99 100 86 25 69 57 28 53 69 27 40 80 46 67 78 96 98 100 93 95 92 41 5 5 5 15 7 28 64 91 97 100 100 84
40 100 100 100 100 100 89 99 95 100 100 100 90 63 69 36 15 63 92 75 62 7 93 92 91 87 97 95 96 100 97 99 100 100 99 78 67 67 86 100 100 100 85 63
100 100 100 92 81 61 38 86 100 100 100 72 6 69 68 24 67 80 100 88 61 92 99 63 98 98 94 98 100 100 93 76 23 49 36 58 95 61 5 6 5 5 5 5
100 99 100 40 34 93 100 100 100 100 44 8 56 94 74 100 100 100 98 81 96 81 99 100 100 91 100 88 59 55 88 8 67 95 35 5 5 35 62 16 18 5 5 5
93 97 87 99 98 100 100 100 100 88 5 5 20 58 96 100 97 100 98 90 87 100 99 100 96 86 93 93 94 83 86 96 100 83 68 62 5 53 84 45 9 5 5 42
80 97 70 98 98 100 100 100 95 82 8 74 7 41 67 30 78 100 84 98 100 99 96 100 100 100 100 90 78 92 98 100 99 100 98 96 98 75 99 96 65 62 32 19

GFSNW_prec_cloud_111.txt.gz
Cloud_Cover
100 100 100 100 100 100 100 100 100 100 100 91 5 5 4 24 4 84 8 92 94 77 96 96 27 72 100 100 98 100 100 100 100 100 100 100 100 100 100 100 100 100 100 100
100 100 100 100 100 100 100 100 100 100 68 7 60 4 5 94 6 5 22 100 98 55 100 80 92 74 100 100 98 100 100 100 99 100 100 100 100 100 100 100 100 100 100 100
100 100 100 100 100 100 100 100 100 96 6 5 3 5 5 32 63 0 7 86 40 6 88 98 95 95 100 57 100 100 100 100 100 100 100 100 100 100 100 100 100 100 100 100
100 100 100 100 100 100 100 100 76 5 6 46 1 2 5 4 5 0 6 7 5 96 99 98 100 100 100 23 98 98 99 100 100 100 100 100 100 100 100 100 100 100 100 100
100 100 100 100 100 100 100 100 11 5 5 0 0 5 6 0 0 2 5 5 0 5 79 95 100 92 95 90 100 100 100 100 100 100 100 100 100 100 100 100 100 100 100 100
100 100 100 100 100 100 95 99 92 5 5 5 8 8 1 0 5 0 28 18 0 4 86 85 100 96 100 95 100 100 100 100 100 100 100 100 100 100 100 100 100 100 100 100
100 100 100 100 100 100 97 49 5 5 12 8 70 32 1 0 4 36 61 5 0 4 27 66 100 74 100 100 100 100 100 100 100 100 100 100 100 100 100 100 100 100 100 100
100 100 100 100 100 100 94 100 51 5 12 88 74 5 0 2 47 24 75 5 0 5 58 73 100 98 99 100 100 100 100 100 100 100 100 100 100 100 100 100 100 100 100 100
100 100 100 100 100 100 100 100 8 45 5 5 22 5 5 5 0 0 5 0 0 28 9 100 100 100 86 100 100 100 100 100 100 100 100 100 100 100 100 100 100 100 100 100
100 100 100 100 100 100 100 82 90 40 9 6 5 5 5 5 7 5 1 0 1 4 90 82 100 100 100 100 100 100 100 100 100 100 100 99 99 100 100 100 100 100 100 100
100 100 100 100 100 100 92 36 28 26 36 18 5 5 5 5 5 6 0 3 6 2 20 50 99 100 100 99 100 100 100 100 100 100 100 100 100 100 100 100 100 100 100 100
100 100 100 100 100 100 100 100 75 54 74 26 11 17 5 6 1 5 5 64 46 5 11 99 88 99 100 100 100 100 100 100 100 100 100 100 100 100 100 100 100 100 100 100
100 100 100 100 99 98 100 100 54 100 92 27 99 37 51 35 4 5 31 67 6 5 17 80 100 100 100 100 100 99 100 100 100 100 100 100 100 100 100 100 100 100 100 100
100 100 100 100 100 96 100 95 100 100 100 56 79 96 89 5 0 5 4 5 5 2 5 90 97 73 100 100 100 100 93 100 100 100 100 98 100 100 99 99 97 100 100 100
100 100 100 100 100 100 100 100 100 100 86 100 100 100 62 5 1 5 5 5 5 0 5 17 6 12 92 100 100 100 99 98 100 97 100 99 99 100 88 76 70 89 96 100
100 100 100 100 100 100 100 100 100 100 100 100 100 27 41 38 5 5 5 49 5 5 5 5 3 16 8 48 86 99 100 100 100 83 100 100 100 83 88 65 11 67 73 18
100 100 100 100 100 100 100 100 100 100 100 100 58 75 48 8 100 90 32 5 5 5 4 1 7 11 6 58 41 81 100 100 100 100 100 100 100 99 99 96 92 75 34 9
100 100 100 100 100 100 100 100 100 100 100 98 85 56 36 5 5 25 5 5 5 5 5 13 4 25 5 52 78 100 84 100 100 100 100 100 99 88 74 64 89 62 55 6
100 100 100 100 100 100 100 100 100 100 86 85 100 89 76 5 86 17 54 42 95 9 38 5 5 5 93 51 44 5 33 43 33 94 24 12 5 5 5 5 5 5 13 9
100 100 100 100 100 100 100 100 100 100 100 88 97 20 39 30 43 18 100 93 41 58 26 7 54 62 99 99 85 50 33 22 7 6 5 5 5 5 5 5 5 5 5 5
100 100 100 100 100 100 100 100 100 100 100 53 79 5 11 5 5 22 72 6 18 23 18 33 32 60 100 98 98 98 85 12 6 16 5 5 5 5 5 5 5 5 16 67
100 100 100 100 100 100 100 95 98 53 5 58 5 5 8 27 5 23 32 5 5 5 58 27 20 92 100 99 94 88 14 5 5 7 62 79 96 48 9 5 5 10 33 14
97 100 100 100 100 100 96 99 72 17 100 41 21 58 75 67 35 23 80 76 17 11 73 91 72 87 100 100 95 42 28 81 83 36 29 26 12 5 5 37 6 14 7 17
84 100 100 100 97 39 6 5 16 29 81 100 100 35 5 66 29 67 97 66 47 95 87 29 87 100 98 92 68 55 16 5 5 7 5 5 5 30 7 11 5 5 5 5
100 100 85 69 73 85 80 100 87 100 36 78 78 6 9 76 97 100 88 99 98 39 99 89 47 96 47 38 50 12 5 13 51 8 9 59 57 49 81 58 32 46 19 30
99 90 100 90 100 100 100 94 100 100 71 5 5 13 83 100 100 100 100 96 6 96 98 63 87 99 54 73 18 5 5 5 14 8 16 13 25 45 78 79 82 40 57 44
83 100 95 100 90 100 100 100 100 100 97 59 5 5 12 17 91 100 82 8 86 91 100 100 100 66 66 6 5 5 38 19 9 34 43 61 98 100 100 61 96 48 68 84

GFSNW_prec_cloud_114.txt.gz
Cloud_Cover
100 100 100 100 100 100 100 100 100 100 100 100 100 100 100 100 34 5 0 3 26 95 96 100 98 99 100 78 100 100 100 100 100 100 100 100 95 5 2 24 100 100 100 100
100 100 100 100 100 100 100 100 100 100 100 100 100 100 100 16 5 0 5 5 53 11 84 54 69 76 30 100 100 100 100 100 100 100 100 98 100 100 100 100 100 100 100 100
100 100 100 100 100 100 100 100 100 100 100 100 100 100 92 7 4 5 2 4 4 5 32 100 94 47 33 100 100 54 52 100 100 100 100 100 100 100 100 100 100 100 100 100
100 100 100 100 100 100 100 100 100 100 100 100 100 66 10 5 5 2 2 0 0 5 15 95 88 15 8 100 31 6 100 92 100 100 100 100 100 100 100 100 100 100 100 100
100 100 100 100 100 100 100 100 100 100 100 100 96 13 5 5 0 0 3 2 0 0 17 5 5 5 85 100 100 91 100 100 100 100 100 100 100 100 100 100 100 100 100 100
100 100 100 100 100 100 100 100 100 100 100 100 87 21 5 5 0 0 5 5 0 0 4 82 5 90 91 100 98 100 100 100 100 100 100 100 100 100 100 100 100 100 100 100
100 100 100 100 100 100 100 100 100 100 100 100 99 14 5 2 5 6 5 2 0 0 0 2 5 40 81 100 100 100 100 100 100 100 100 100 100 100 100 100 100 100 100 100
100 100 100 100 100 100 100 100 100 100 100 100 6 5 5 3 0 12 2 0 0 0 0 3 13 100 34 90 100 100 100 100 100 100 100 100 100 100 100 100 100 100 100 100
100 100 100 100 100 100 100 100 100 100 100 95 26 28 3 1 5 3 0 0 0 0 0 6 57 99 73 76 92 100 100 100 100 100 100 100 100 100 100 100 100 100 100 100
100 100 100 100 100 100 100 100 100 100 100 99 8 18 2 4 5 5 1 0 0 0 6 68 57 99 100 84 100 100 100 100 100 100 100 91 100 99 100 100 100 100 100 100
100 100 100 100 100 100 100 100 100 100 87 90 34 5 4 6 4 5 1 3 4 4 11 17 26 92 99 99 100 100 100 100 100 100 100 92 52 79 99 100 100 100 100 100
100 100 100 100 100 100 100 100 100 100 100 99 9 5 8 5 5 3 46 82 49 6 37 78 41 99 98 95 100 100 100 100 100 100 100 100 96 100 100 100 100 100 100 100
100 100 100 100 100 100 100 100 100 100 100 24 12 6 5 5 5 4 5 6 5 5 5 72 83 84 100 100 100 100 100 100 100 100 100 100 100 100 100 100 100 100 100 100
100 100 100 100 100 100 100 100 100 100 40 37 84 17 27 7 5 4 4 2 4 0 4 29 84 72 100 100 100 88 41 100 100 100 100 100 100 100 100 100 100 100 100 100
100 100 100 100 100 100 100 95 100 24 6 62 43 62 70 5 5 5 3 1 0 0 4 5 5 21 17 95 100 100 99 64 99 99 100 100 100 100 100 100 100 32 8 58
100 100 100 100 100 100 100 100 97 79 34 61 70 22 53 52 5 5 5 14 5 5 5 4 0 5 5 47 96 100 100 100 100 100 100 100 100 93 85 22 5 24 5 5
100 100 100 100 100 100 100 98 100 65 82 86 80 61 90 99 71 100 58 29 5 5 0 3 0 7 5 36 81 97 100 100 100 100 100 84 99 30 99 5 53 47 5 5
100 100 100 100 100 100 100 100 99 100 100 100 100 64 9 5 2 5 5 5 5 5 4 5 4 5 5 44 64 100 100 100 100 100 100 99 88 55 22 5 5 5 5 5
100 100 100 100 100 100 100 100 100 100 99 100 100 52 58 5 95 21 55 40 47 17 35 5 33 5 56 30 8 10 43 83 97 98 100 97 96 64 10 5 5 5 5 5
100 100 100 100 100 100 100 100 100 100 100 100 100 64 74 23 6 11 69 50 6 5 58 7 56 79 85 98 93 48 5 5 24 5 5 5 5 5 5 5 5 5 5 5
100 100 100 100 100 100 100 100 100 100 100 100 100 5 7 5 6 5 5 10 30 35 65 62 40 86 49 100 100 54 10 20 5 5 5 5 5 5 5 5 5 5 5 5
100 100 100 100 100 100 100 93 100 100 100 78 35 7 5 5 5 5 32 5 6 24 82 82 59 71 72 100 99 95 90 92 72 5 5 5 5 5 5 5 5 5 5 15
100 100 100 100 100 100 99 100 100 100 100 84 28 18 100 64 5 18 52 82 51 60 99 30 32 54 77 99 100 98 96 100 30 15 6 5 5 5 5 8 13 6 5 40
100 100 100 97 100 100 100 100 100 100 95 5 6 36 88 99 41 49 6 9 68 99 98 5 56 15 83 100 97 81 12 5 5 5 5 5 5 56 15 5 5 5 5 5
100 100 100 100 100 100 100 100 100 74 4 36 54 9 5 62 88 98 44 98 100 60 5 36 10 5 68 44 12 5 7 7 8 8 7 23 23 9 93 47 20 12 25 42
98 80 97 100 100 100 91 76 96 77 5 11 32 17 5 36 54 100 99 93 8 5 63 82 6 20 27 5 42 40 5 5 5 5 5 16 26 73 100 100 69 43 44 61
52 96 99 100 96 94 91 100 100 56 72 5 22 6 5 40 73 99 95 9 22 99 82 35 5 6 6 58 65 47 12 15 5 64 99 100 100 100 100 96 100 98 92 8

GFSNW_prec_cloud_117.txt.gz
Cloud_Cover
100 100 100 100 100 100 100 100 100 100 100 100 100 100 100 93 100 100 100 99 30 5 7 63 29 41 97 100 99 99 88 100 100 79 100 100 100 6 86 100 100 100 100 100
100 100 100 100 100 100 100 100 100 100 100 100 100 100 100 100 100 100 100 60 3 5 41 27 5 96 66 99 100 74 62 100 89 100 100 100 100 69 100 100 100 100 100 100
100 100 100 100 100 100 100 100 100 100 100 100 100 100 100 100 100 100 81 5 2 4 9 28 50 87 29 81 100 25 87 100 100 100 100 100 100 100 100 100 100 100 100 100
100 100 100 100 100 100 100 100 100 100 100 100 100 100 100 100 100 57 5 5 3 0 4 53 53 81 100 96 100 51 100 100 100 100 100 100 100 100 100 100 100 100 100 100
100 100 100 100 100 100 100 100 100 100 100 100 86 100 100 100 38 5 5 4 2 0 0 5 5 37 97 6 100 79 100 100 100 100 100 100 100 100 100 100 100 100 100 100
100 100 100 100 100 100 100 100 100 100 100 100 100 100 100 100 29 5 5 4 1 5 5 5 4 5 23 97 76 100 100 100 100 100 100 100 100 100 100 100 100 100 100 100
100 100 100 100 100 100 100 100 100 100 100 100 100 100 100 100 16 5 5 4 5 5 5 2 5 5 66 98 98 100 100 100 100 100 100 100 100 100 100 100 100 100 100 100
100 100 100 100 100 100 100 100 100 100 100 100 100 100 100 67 31 10 5 5 4 2 5 1 4 5 63 81 100 100 100 100 100 100 100 100 100 100 100 100 100 100 100 100
100 100 100 100 100 100 100 100 100 100 100 100 100 100 100 100 17 5 5 5 4 5 5 4 6 54 98 45 100 97 100 100 100 100 100 100 100 100 100 100 100 100 100 100
100 100 100 100 100 100 100 100 100 100 100 100 100 100 100 5 18 5 5 5 5 2 7 5 10 31 79 92 28 79 100 100 100 100 100 100 100 100 100 100 100 100 91 81
100 100 100 100 100 100 100 100 100 100 100 100 100 100 38 78 33 12 5 5 6 9 18 5 9 69 93 91 72 96 100 100 100 100 100 100 100 100 100 100 98 100 100 100
100 100 100 100 100 100 100 100 100 100 100 100 100 100 100 6 5 5 18 32 5 6 11 62 6 99 100 60 100 81 92 100 100 100 100 99 100 100 94 94 100 100 100 100
100 100 100 100 100 100 100 100 100 100 100 100 100 100 63 5 5 17 5 5 5 5 5 78 62 17 99 100 100 100 100 100 100 100 100 100 100 98 100 98 87 82 94 100
100 100 100 100 100 100 100 100 100 100 100 100 100 100 5 8 6 5 5 5 2 0 5 5 20 47 49 92 100 100 100 100 100 100 100 100 100 100 98 100 100 100 100 100
100 100 100 100 100 100 100 100 100 100 100 100 100 48 24 73 14 5 5 4 0 0 4 5 6 32 31 18 73 100 100 100 100 100 100 100 100 100 95 99 97 100 99 56
100 100 100 100 100 100 100 100 100 100 100 98 14 9 77 72 10 5 5 5 5 5 0 0 0 5 5 33 59 100 100 100 100 100 100 100 100 100 100 100 100 100 100 40
100 100 100 100 100 100 100 100 100 100 100 77 60 94 100 100 90 88 37 5 5 5 0 3 0 5 5 40 79 99 100 100 100 100 100 100 100 93 95 94 20 5 5 5
100 100 100 100 100 100 100 100 100 97 83 64 66 91 80 86 20 5 5 5 5 2 3 5 5 5 5 25 41 88 100 100 100 100 100 100 81 38 64 54 5 5 5 5
100 100 100 100 100 100 100 100 100 95 99 100 99 47 66 5 22 6 5 5 5 5 22 5 5 5 5 60 30 5 60 100 100 100 100 100 92 28 5 5 5 5 5 5
100 100 100 100 100 100 100 100 100 100 100 100 72 27 82 30 6 5 5 21 9 5 39 8 20 24 26 24 94 100 35 10 24 62 78 100 100 75 5 5 5 5 5 5
100 100 100 100 100 100 100 100 100 100 100 80 80 6 12 6 5 5 6 52 22 36 36 73 34 82 5 52 99 86 71 55 24 16 5 5 5 5 5 5 5 5 5 5
100 100 100 100 100 100 87 100 100 100 100 82 54 20 48 6 5 27 32 16 9 6 73 96 82 5 5 18 90 100 76 83 74 5 5 5 5 5 5 5 5 5 5 5
100 100 100 100 100 100 100 100 100 100 34 19 41 34 86 29 28 6 57 10 50 18 100 39 5 19 5 5 67 100 74 16 5 7 36 9 5 5 5 5 5 6 5 34
100 100 100 100 100 92 100 100 100 100 19 13 20 86 19 50 48 30 5 8 40 80 62 5 32 5 5 18 86 96 32 6 25 7 5 5 5 48 37 9 14 5 9 44
100 100 100 100 100 100 100 100 100 100 30 6 49 45 9 54 58 71 5 38 40 31 5 5 49 5 6 47 33 5 5 5 5 14 8 34 32 5 54 5 9 42 40 19
100 100 100 100 100 100 100 100 100 100 60 19 19 42 5 5 5 61 6 30 5 5 5 57 19 5 23 21 5 14 46 51 43 27 29 31 32 52 82 99 82 45 25 6
100 100 100 100 100 100 100 100 100 100 95 71 7 5 5 5 55 38 42 5 5 5 85 84 15 5 7 18 53 73 70 53 36 15 47 100 100 96 100 68 40 9 20 10

GFSNW_prec_cloud_120.txt.gz
Cloud_Cover
100 100 100 100 100 100 100 100 100 100 100 100 100 100 100 100 100 100 100 100 100 100 100 100 28 10 65 97 83 40 92 100 100 73 100 100 76 33 91 88 34 100 100 100
100 100 100 100 100 100 100 100 100 100 100 100 100 100 100 100 100 100 100 100 100 100 100 61 5 5 99 100 42 60 100 100 95 100 100 97 9 50 100 100 100 100 100 100
100 100 100 100 100 100 100 100 100 100 100 100 100 100 100 100 100 100 100 100 100 100 100 56 17 11 60 63 10 100 100 100 99 100 100 100 97 100 100 100 100 100 100 100
100 100 100 100 100 100 100 100 100 100 100 100 100 100 100 100 100 100 100 100 100 100 100 20 93 5 35 36 60 100 100 100 100 100 100 100 100 100 100 100 100 100 100 100
100 100 100 100 100 100 100 100 100 100 100 100 100 100 100 100 100 100 100 100 100 100 79 5 3 5 5 27 98 100 100 100 100 100 100 100 100 100 100 100 100 100 100 100
100 100 100 100 100 100 100 100 100 100 100 100 100 100 100 100 100 100 100 100 100 100 86 7 0 5 5 34 86 97 100 100 100 100 100 100 100 100 100 100 100 100 100 100
100 100 100 100 100 100 100 100 100 100 100 100 100 100 100 100 100 100 98 87 100 100 5 3 0 5 5 16 7 70 100 100 100 100 100 100 100 100 100 100 100 100 100 100
100 100 100 100 100 100 100 100 100 100 100 100 100 100 100 100 100 100 100 100 100 15 5 2 0 2 5 52 25 17 100 100 100 100 100 100 100 100 100 100 100 100 100 100
100 100 100 100 100 100 100 100 100 100 100 100 100 100 100 100 100 70 100 100 49 5 5 5 5 20 5 9 5 5 80 100 100 100 100 100 100 100 100 100 100 100 82 97
100 100 100 100 100 100 100 100 100 100 100 100 100 100 100 100 99 98 100 93 11 5 11 5 8 16 12 72 17 23 100 100 100 100 100 100 100 100 100 100 100 100 84 56
100 100 100 100 100 100 100 100 100 100 100 100 100 100 100 100 100 100 100 86 27 8 17 5 5 24 36 42 22 56 100 100 100 100 100 100 100 100 100 100 100 100 14 56
100 100 100 100 100 100 100 100 100 100 100 100 100 100 100 100 100 100 100 52 39 6 5 5 5 63 35 42 94 55 100 100 100 100 100 100 100 100 100 100 100 100 84 15
100 100 100 100 100 100 100 100 100 100 100 100 100 100 100 100 100 98 51 7 5 5 5 50 47 39 6 65 100 97 100 100 100 100 100 100 100 100 100 100 100 100 100 59
100 100 100 100 100 100 100 100 100 100 100 100 100 100 100 100 72 21 27 44 10 5 5 5 5 5 8 6 59 98 98 100 100 100 100 100 100 100 100 100 100 100 100 100
100 100 100 100 100 100 100 100 100 100 100 100 100 100 100 100 36 30 68 54 16 10 5 4 17 5 5 30 6 96 100 100 100 100 100 100 100 100 100 100 100 100 98 82
100 100 100 100 100 100 100 100 100 100 100 100 100 100 100 97 10 74 85 51 5 5 5 0 1 5 5 38 42 83 98 100 100 100 100 100 100 100 100 100 100 100 99 98
100 100 100 100 100 100 100 100 100 100 100 100 100 100 100 97 98 90 71 5 5 5 4 0 0 5 5 46 75 82 49 100 100 100 100 100 100 100 100 100 100 100 99 29
100 100 100 100 100 100 100 100 100 100 100 100 100 100 88 99 65 69 43 8 5 5 3 4 5 5 5 20 8 52 98 100 100 100 100 100 100 100 100 100 100 100 76 5
100 100 100 100 100 100 100 100 100 100 100 100 68 92 84 83 81 91 52 7 5 5 5 5 5 5 7 5 35 20 43 90 99 100 99 100 100 100 100 100 100 85 44 21
100 100 100 100 100 100 100 100 100 100 100 55 72 52 46 97 98 63 5 12 12 5 13 6 9 7 5 5 5 28 20 89 86 5 48 35 100 100 100 100 100 18 5 5
100 100 100 100 100 100 100 100 100 100 99 80 98 17 8 33 48 5 5 9 28 36 27 70 37 57 12 5 5 76 60 5 5 45 64 11 5 54 100 100 100 99 86 30
100 100 100 100 100 100 100 99 91 79 99 100 63 21 62 47 5 6 59 35 22 9 67 87 49 5 5 5 23 100 74 27 5 53 100 100 40 5 5 34 21 5 5 5
100 100 100 100 100 100 100 100 100 100 100 69 63 33 36 19 6 19 50 9 56 26 100 74 5 5 5 5 5 97 93 32 5 5 5 5 5 20 5 5 5 5 5 23
100 100 100 100 100 100 100 100 100 100 100 48 43 64 6 36 25 62 5 8 9 10 29 5 8 5 5 5 26 93 86 24 5 17 29 6 9 39 45 6 5 15 43 55
100 100 100 100 100 100 100 100 100 100 100 98 20 6 5 45 80 40 5 42 72 6 5 5 5 5 5 5 68 97 82 18 5 24 10 54 48 19 85 60 17 5 37 5
100 100 100 100 100 100 100 100 100 96 87 28 18 19 44 85 35 5 5 5 5 5 5 30 66 6 5 5 8 7 5 12 50 58 36 31 14 12 65 22 5 5 5 5
100 100 100 100 100 100 100 100 100 99 95 94 21 75 99 31 47 32 5 5 5 5 62 99 54 8 5 17 5 28 51 49 46 54 39 32 7 51 17 6 12 9 5 8

GFSNW_prec_cloud_123.txt.gz
Cloud_Cover
100 100 100 100 100 100 100 100 100 100 100 98 100 100 100 100 100 100 100 100 100 100 100 100 100 100 100 86 5 5 42 100 99 27 8 49 9 22 38 100 100 100 100 100
100 100 100 100 100 100 100 100 100 100 100 100 100 100 100 100 100 100 100 100 100 100 100 100 100 100 100 89 9 69 98 67 64 8 47 20 78 79 100 100 100 100 100 100
100 100 100 100 100 100 100 100 100 100 100 100 100 100 100 100 100 100 100 100 100 100 100 100 100 100 100 9 19 83 98 45 94 100 100 100 100 100 100 100 100 100 100 100
100 100 100 100 100 100 100 100 100 100 100 100 100 100 100 100 100 100 100 100 100 100 100 100 100 100 14 5 28 5 92 96 100 96 100 100 100 100 100 96 100 100 100 100
100 100 100 100 100 100 100 100 100 100 100 100 100 87 100 100 100 100 100 100 100 100 100 100 100 100 5 8 63 6 66 66 100 100 100 100 100 100 100 100 100 100 100 100
100 100 100 100 100 100 100 100 100 100 100 96 100 100 100 100 100 100 100 100 100 100 100 100 100 56 5 5 5 5 51 98 96 100 100 100 100 100 100 100 100 100 100 100
100 100 100 100 100 100 100 100 100 99 90 96 100 100 100 100 100 100 100 100 100 100 100 100 100 9 2 5 5 5 9 90 97 100 100 100 100 100 100 100 100 100 100 100
100 100 100 100 100 100 100 98 100 100 100 100 100 100 100 100 100 100 100 100 100 100 100 100 73 5 5 43 20 5 24 72 100 100 100 100 100 100 100 100 100 100 100 100
100 100 100 100 100 100 100 100 100 100 94 100 100 100 100 100 100 100 100 100 100 100 100 100 92 5 5 5 5 5 5 37 100 100 100 100 100 100 100 100 100 100 100 100
100 100 100 100 100 100 100 100 100 99 100 100 100 100 100 100 100 100 100 100 100 100 100 100 6 24 8 9 5 19 14 65 95 100 100 100 100 100 100 100 100 100 100 100
100 100 100 100 100 100 100 100 100 98 100 100 100 100 100 100 100 100 100 100 100 100 100 35 5 20 54 56 32 67 5 82 99 100 100 100 100 100 100 100 100 100 29 80
100 100 100 100 100 100 100 100 96 99 100 100 100 100 100 100 100 100 100 100 100 100 99 13 5 40 56 40 88 17 15 67 100 100 100 100 100 100 100 100 100 100 100 39
100 100 100 100 100 100 100 100 100 100 100 100 100 100 100 100 100 100 100 100 100 100 9 5 22 27 6 79 84 80 85 54 100 100 90 80 100 100 100 100 100 100 100 100
100 100 100 100 100 100 100 100 100 100 100 100 100 100 100 100 100 100 100 100 100 85 22 5 5 9 6 19 10 6 41 58 97 100 100 100 100 100 100 100 100 100 100 100
100 100 100 100 100 100 100 100 100 100 100 100 100 100 100 100 100 100 100 100 100 51 11 39 5 5 5 61 12 24 30 13 95 100 100 100 100 100 100 100 100 100 100 100
100 100 100 100 100 100 100 100 100 100 100 100 100 100 100 100 100 100 100 100 62 42 73 5 5 5 5 12 9 54 28 5 18 100 100 100 100 100 100 100 100 100 100 100
100 100 100 100 100 100 100 100 100 100 100 100 100 100 100 100 100 100 100 71 63 100 29 5 5 5 5 5 18 64 97 100 96 24 99 100 100 100 100 100 100 100 100 100
100 100 100 100 100 100 100 100 100 100 100 100 100 100 100 100 100 100 84 93 100 30 5 5 5 4 5 6 7 10 14 100 100 86 82 100 100 100 100 100 100 100 100 100
100 100 100 100 100 100 100 100 100 100 100 100 100 100 100 100 100 94 100 95 89 21 5 5 5 5 5 2 11 28 7 27 78 100 51 56 100 100 100 100 100 100 100 100
100 100 100 100 100 100 100 100 100 100 100 100 100 100 99 99 72 93 100 100 27 5 5 5 5 6 5 5 5 5 5 5 29 42 73 82 100 73 100 100 100 100 98 100
100 100 100 100 100 100 100 100 100 100 100 100 100 100 100 98 87 87 97 24 21 5 23 64 16 34 5 5 5 5 5 5 5 5 100 100 100 100 69 68 100 100 100 94
100 100 100 100 100 100 100 100 100 100 100 100 100 100 100 100 100 85 69 56 10 5 72 75 10 5 5 5 5 5 13 9 5 5 80 100 100 100 95 15 5 12 42 47
100 100 100 98 100 100 100 100 100 100 100 100 100 99 100 100 63 40 27 21 66 55 45 17 5 0 5 5 5 23 100 89 5 5 11 64 100 100 100 48 71 24 5 5
100 100 100 99 100 100 100 100 100 100 100 99 100 100 96 41 78 32 7 16 26 24 13 5 3 5 5 5 5 5 92 95 74 10 5 5 51 93 96 86 73 63 84 25
100 100 100 100 100 100 100 100 100 100 100 100 100 96 90 42 20 19 31 76 45 30 5 5 4 5 5 5 37 98 67 77 82 58 38 49 61 73 96 100 98 70 48 61
100 100 100 100 100 100 100 100 100 100 100 100 100 100 98 72 61 18 48 16 74 34 5 5 17 5 5 5 14 66 30 5 15 8 36 54 72 100 95 62 73 76 60 10
100 100 100 100 100 100 100 100 100 100 100 100 100 100 85 50 32 7 59 6 82 5 5 99 93 6 5 17 14 5 5 5 5 13 38 55 55 47 69 67 31 29 59 53

GFSNW_prec_cloud_129.txt.gz
Cloud_Cover
3 92 99 100 100 100 100 100 100 100 100 100 100 100 100 74 63 95 81 100 100 100 100 100 100 100 100 100 100 100 100 100 100 90 100 88 90 92 100 100 96 100 98 82
100 100 100 100 100 100 100 100 100 100 100 100 100 100 100 91 98 100 100 100 100 100 100 100 100 100 100 100 100 100 100 100 100 100 100 99 22 86 85 100 99 7 99 100
100 100 100 100 100 100 100 100 100 100 100 100 100 100 100 100 100 100 100 100 100 100 100 100 100 100 100 100 100 100 100 100 100 100 100 11 42 81 68 81 100 91 100 100
100 100 100 100 100 100 100 99 83 92 100 100 100 100 100 100 100 100 100 100 100 100 100 100 100 100 100 100 100 100 100 100 100 100 99 78 52 62 81 87 100 96 100 100
100 100 100 100 100 100 100 100 100 96 99 100 100 100 100 100 100 100 100 100 100 100 100 100 100 100 100 100 100 100 100 100 100 100 74 100 64 21 100 94 97 100 100 100
100 100 100 100 100 100 100 100 100 100 100 100 100 100 100 100 100 100 100 100 100 100 100 100 100 100 100 100 100 100 100 100 100 98 50 100 100 60 100 89 100 100 100 100
100 100 100 100 100 100 100 100 100 100 100 100 100 100 100 100 100 100 100 100 100 100 100 100 100 100 100 100 100 100 100 100 63 100 100 99 99 75 100 100 100 100 100 100
100 100 100 100 100 100 100 100 100 100 100 100 100 100 100 100 100 100 100 100 100 100 100 100 100 100 100 100 100 100 100 93 100 92 100 95 100 91 100 100 100 100 100 100
100 100 100 100 100 100 100 100 100 100 100 99 100 100 100 100 100 100 100 100 100 100 100 100 100 100 100 100 100 100 100 76 46 98 100 100 100 84 100 100 100 100 100 100
100 100 100 100 100 100 100 100 100 100 100 100 100 100 100 100 100 100 100 100 100 100 100 100 100 100 100 100 100 100 92 100 92 94 98 99 81 98 64 96 100 100 100 100
100 100 100 100 100 100 100 100 100 100 100 100 100 100 100 100 100 100 100 100 100 100 100 100 100 100 100 100 100 100 96 99 82 98 100 99 70 93 90 99 100 100 100 100
100 100 100 100 100 100 100 100 100 91 100 100 100 90 100 100 100 100 100 100 100 100 100 100 100 100 100 100 100 81 54 9 100 36 96 98 100 100 98 100 100 100 100 100
100 100 100 100 100 100 100 100 99 100 96 76 98 97 100 100 100 100 100 100 100 100 100 100 100 100 100 100 100 72 9 5 56 72 100 100 100 100 99 100 100 100 100 100
100 100 100 100 100 100 100 100 100 100 100 100 95 100 100 100 100 100 100 100 100 100 100 100 100 100 100 100 100 57 84 33 100 98 100 99 100 100 100 100 100 100 100 100
100 100 100 100 100 100 100 100 99 99 98 83 100 100 100 100 100 100 100 100 100 100 100 100 100 100 100 100 100 86 11 40 49 73 7 66 62 100 100 100 100 100 100 100
100 100 100 100 100 100 100 100 95 100 100 90 100 100 100 100 100 100 100 100 100 100 100 100 100 100 100 100 81 33 38 14 45 28 7 84 47 75 100 100 100 100 100 100
100 100 100 100 100 100 100 100 100 100 100 98 100 100 100 100 100 100 100 100 100 100 100 100 100 100 100 84 37 5 6 21 25 24 61 77 76 25 100 100 100 100 100 100
100 100 100 100 100 100 100 100 100 99 100 100 100 91 93 100 100 100 100 100 100 100 100 100 100 100 89 40 48 5 6 16 54 28 42 12 60 73 98 100 100 100 100 100
100 100 100 100 100 100 100 100 100 88 96 100 100 98 100 100 100 100 100 100 100 100 100 100 100 100 99 55 9 5 5 4 13 78 82 69 23 6 51 100 100 100 100 100
100 100 100 100 100 100 100 100 74 92 100 100 100 100 99 100 100 100 100 100 100 100 100 100 100 100 54 33 6 5 5 5 52 70 57 26 11 5 5 76 100 100 100 100
100 100 100 100 100 100 100 99 91 87 100 100 100 100 100 100 100 100 100 100 100 100 100 100 100 70 17 29 5 5 5 16 53 71 81 68 24 5 5 13 99 100 100 100
100 100 100 100 100 100 100 98 100 84 88 100 100 100 100 100 100 100 100 100 100 100 100 100 97 54 24 7 5 56 35 20 65 89 86 72 59 37 25 38 41 76 100 100
100 100 100 100 100 93 52 70 97 100 100 100 100 100 100 100 100 100 100 100 100 100 100 100 42 5 5 5 10 46 71 48 72 68 60 5 27 97 92 80 84 92 100 100
100 100 100 100 100 55 100 100 100 100 100 100 100 100 100 100 100 100 100 100 100 100 100 62 27 6 5 4 26 72 50 16 34 26 5 5 5 68 100 100 100 100 96 82
98 98 100 100 100 100 100 100 100 100 100 100 99 96 97 100 100 100 100 100 100 100 100 56 51 22 5 13 37 31 70 16 14 21 11 5 5 5 12 78 54 60 99 100
100 72 100 100 100 100 100 100 100 100 100 95 87 85 92 100 100 100 100 100 100 100 88 50 26 51 14 84 97 100 98 42 47 82 74 76 40 7 46 79 88 100 100 100
100 100 100 100 100 100 100 99 88 100 100 100 100 100 100 100 100 100 100 100 100 100 91 49 93 100 98 100 100 79 44 69 92 54 72 88 78 57 73 97 100 100 100 100

GFSNW_prec_cloud_135.txt.gz
Cloud_Cover
100 99 100 35 29 59 100 100 100 99 100 100 100 100 3 0 0 1 4 35 68 95 95 99 79 94 98 71 71 100 100 100 91 97 100 100 100 100 100 100 100 100 99 70
74 100 82 2 39 75 100 100 100 100 100 100 100 52 15 5 5 4 18 27 5 5 98 81 9 8 30 61 75 100 100 100 100 100 100 100 100 100 100 100 100 100 100 94
100 100 30 43 100 100 100 100 100 100 100 86 59 91 94 30 5 5 5 38 29 5 13 5 6 99 19 100 100 100 100 100 100 100 100 100 100 100 100 100 100 100 100 84
100 99 32 39 100 100 100 100 100 100 100 100 100 100 96 100 100 43 23 66 5 13 53 81 97 100 100 100 100 100 100 100 100 100 100 100 100 100 100 100 94 100 98 57
100 100 99 100 100 100 100 100 100 100 100 100 100 100 100 93 61 31 83 5 5 5 53 57 100 100 100 100 100 100 100 100 100 100 100 100 100 99 26 100 100 100 100 100
100 100 100 100 100 100 100 100 100 100 100 100 100 100 10 3 96 98 37 100 39 46 71 100 100 100 100 100 100 100 100 100 100 100 92 68 100 95 93 100 100 100 80 22
97 100 100 100 100 100 100 100 100 100 100 100 100 60 17 64 100 100 100 100 100 100 100 100 100 100 100 100 100 100 100 100 100 100 80 100 100 100 100 100 100 90 67 97
32 100 100 100 100 100 100 100 100 100 100 98 43 96 100 100 100 100 100 100 100 100 100 100 100 100 100 100 100 100 100 100 100 100 100 100 100 100 100 100 100 6 100 100
77 100 100 100 100 100 100 100 100 100 100 100 100 100 100 100 100 100 100 100 100 100 100 100 100 100 100 100 100 100 100 100 100 100 100 100 100 100 100 100 100 5 11 100
99 100 100 100 100 100 100 100 100 100 100 100 100 100 100 100 100 100 100 100 100 100 100 100 100 100 90 97 100 100 100 100 100 100 100 100 100 100 100 100 6 5 5 5
100 100 100 100 100 100 100 100 100 100 100 100 100 98 100 100 100 100 100 100 100 100 100 100 100 100 100 100 100 100 100 100 100 100 100 100 100 100 100 39 5 5 5 23
100 100 100 100 100 100 100 100 100 100 99 100 100 100 100 100 100 100 100 100 100 100 100 100 100 100 100 100 100 100 100 100 100 100 100 100 100 100 59 5 11 5 80 80
100 100 100 100 100 100 100 100 100 100 100 100 100 100 100 100 100 100 100 100 100 94 100 100 100 100 100 100 100 100 100 100 100 100 100 100 100 50 32 85 5 56 100 96
100 100 100 100 100 100 100 100 100 100 100 100 100 100 100 100 100 100 100 100 100 100 100 100 100 100 100 100 100 100 100 100 100 100 100 86 65 99 98 90 5 99 100 100
100 100 100 100 100 100 100 100 100 100 99 100 100 100 100 100 100 100 100 92 100 100 100 100 100 100 100 100 100 100 100 100 100 100 23 14 5 58 100 17 26 84 90 100
100 100 100 100 100 100 100 100 94 100 100 100 100 100 100 100 100 94 100 100 100 100 100 100 100 100 100 100 100 100 100 100 100 95 38 5 5 95 100 17 95 72 93 99
100 100 100 100 100 100 100 100 100 100 100 100 100 100 100 100 99 99 98 99 100 100 100 100 100 100 100 100 100 100 100 100 100 100 18 35 44 47 99 79 84 77 35 100
100 100 100 100 100 100 100 100 100 100 100 100 100 99 100 98 100 100 100 100 100 100 100 100 100 100 100 100 100 100 100 100 100 100 100 11 5 96 92 5 5 5 5 46
100 100 100 100 100 100 100 100 100 100 97 100 100 100 100 96 100 100 100 100 100 100 100 100 93 100 100 100 100 100 100 100 100 100 79 5 5 17 11 5 5 5 5 90
100 100 100 100 100 96 100 100 100 89 100 100 100 96 99 100 89 100 100 100 100 100 100 100 100 100 100 100 100 100 100 100 100 100 5 6 54 5 5 5 5 5 5 5
100 100 100 100 100 100 100 100 100 100 100 100 99 99 100 93 100 100 100 100 100 100 100 100 100 100 100 100 100 100 100 100 100 97 5 5 5 5 5 5 5 5 59 84
100 100 100 100 100 100 100 100 93 100 100 100 100 100 100 100 98 92 84 100 100 100 100 100 100 100 100 100 100 100 100 100 100 5 5 5 5 5 5 5 14 33 81 98
100 100 100 100 78 88 22 52 100 100 100 100 100 100 100 100 100 100 100 95 100 100 98 100 100 100 100 100 100 100 100 100 42 5 5 5 5 5 5 5 76 100 99 100
100 100 100 100 72 100 88 100 100 100 100 100 100 100 100 100 98 100 98 98 100 98 100 100 99 100 100 100 100 100 100 100 11 5 5 5 5 5 5 5 60 81 98 100
100 100 100 100 100 100 100 100 100 100 100 100 100 100 100 100 98 98 100 100 100 100 100 100 100 100 100 100 100 100 100 98 6 5 5 5 5 5 25 28 21 85 100 100
97 78 100 100 100 100 100 100 100 100 100 99 100 100 100 100 100 100 100 100 100 100 100 100 100 100 100 100 100 100 100 74 17 5 5 5 35 24 52 9 19 34 29 90
80 96 100 100 100 100 100 100 100 100 100 100 100 100 100 100 100 100 100 100 100 100 100 100 100 100 100 100 100 100 98 28 5 5 5 50 42 81 86 86 82 84 70 22

GFSNW_prec_cloud_138.txt.gz
Cloud_Cover
100 100 100 100 100 100 100 100 100 78 68 100 100 93 5 5 4 3 0 0 0 3 0 4 27 5 59 97 78 97 72 34 32 46 100 100 100 100 100 47 100 100 100 80
100 100 100 100 100 100 100 100 100 100 100 89 100 53 64 5 5 0 2 1 0 3 5 7 5 4 57 100 100 95 64 39 100 72 100 100 100 100 100 100 100 100 100 100
100 100 100 99 100 100 100 100 100 100 100 71 34 76 100 98 32 5 0 4 24 1 2 84 26 5 34 80 58 87 43 78 81 100 100 100 100 100 100 100 100 100 100 100
91 99 67 11 54 100 100 100 56 26 94 100 50 61 11 86 88 83 48 5 18 16 27 5 5 61 5 46 98 90 100 100 100 100 100 100 100 100 100 100 100 100 100 100
89 100 100 100 100 100 100 100 100 100 56 89 100 100 100 99 70 69 27 5 2 4 88 4 5 0 93 98 100 100 100 100 100 100 100 100 100 100 100 100 100 100 98 100
100 100 100 100 100 100 100 100 100 100 100 100 100 100 100 76 99 100 98 100 28 100 38 91 83 100 97 100 100 100 100 100 100 100 100 100 100 100 100 100 71 100 100 100
100 100 100 100 100 100 100 100 100 100 100 100 100 100 100 100 100 100 100 15 5 5 7 100 58 99 100 100 100 100 100 100 100 100 100 100 100 88 74 100 100 100 100 100
100 100 100 100 100 100 100 100 100 100 100 100 100 100 100 100 100 100 35 37 66 64 100 100 100 100 100 100 100 100 100 100 100 100 100 100 100 100 77 100 100 100 100 100
100 51 98 100 98 80 97 100 100 100 100 100 99 100 100 100 100 100 98 100 100 100 100 100 100 100 100 100 100 100 100 100 100 100 100 100 100 100 100 100 100 100 100 100
100 100 83 100 98 100 100 100 100 100 100 100 100 99 100 100 100 100 100 100 100 100 100 100 100 100 100 100 100 100 100 100 100 100 100 100 100 100 100 100 100 100 100 100
100 100 100 100 100 100 100 100 100 100 100 100 100 100 100 100 100 100 100 100 100 100 100 100 100 100 100 100 100 100 100 100 100 100 100 100 100 100 100 100 100 100 100 32
100 100 100 100 100 100 100 100 100 100 100 100 100 100 100 100 100 100 100 100 100 100 100 100 100 100 100 100 100 100 100 100 100 100 100 100 100 100 100 100 100 74 6 39
100 100 100 100 100 100 100 100 100 100 100 100 100 100 100 100 100 100 100 100 100 100 100 100 100 100 100 99 100 100 100 100 100 100 100 100 100 100 100 78 5 5 5 73
100 100 100 100 100 100 100 100 100 100 100 100 100 100 100 100 100 100 100 100 100 100 100 100 100 100 71 100 100 100 100 100 100 100 98 86 100 98 5 5 5 5 10 73
100 100 100 100 100 100 100 100 100 100 100 100 100 100 100 100 98 100 100 100 100 88 90 91 100 100 100 100 100 100 100 100 100 100 100 100 72 53 5 5 5 5 56 72
100 100 100 100 100 100 100 100 100 100 100 100 100 100 100 100 100 100 100 100 100 100 100 100 100 100 100 100 100 100 100 100 100 100 100 100 76 9 21 7 5 31 99 86
100 100 100 100 100 100 100 100 100 100 100 100 100 100 96 96 89 93 100 100 100 100 100 100 100 100 100 100 100 86 100 100 100 100 100 100 92 8 57 84 14 67 84 84
100 100 100 100 100 100 100 100 100 100 100 100 100 100 98 98 100 100 100 100 99 100 93 73 99 100 100 100 100 100 100 100 100 100 100 100 100 16 99 100 74 79 56 51
100 100 100 100 100 100 100 100 100 100 100 100 100 100 100 100 100 100 100 100 100 92 100 99 100 100 100 100 100 100 100 100 100 100 100 100 100 88 17 10 7 5 5 71
100 100 100 100 100 100 100 100 100 100 100 100 99 100 100 100 100 100 88 83 98 100 88 96 100 100 100 100 100 100 100 100 100 100 100 100 100 75 5 5 5 5 5 24
100 100 100 100 100 100 100 99 98 96 100 96 100 92 100 98 100 100 100 98 100 100 100 100 99 100 100 100 100 100 100 100 100 100 100 100 76 63 5 5 5 5 5 11
100 100 100 100 100 100 100 99 98 100 97 98 100 100 100 100 100 100 100 100 100 100 78 85 59 70 100 100 100 100 100 100 100 100 100 100 79 6 5 5 5 5 5 5
100 100 97 98 46 53 75 81 100 100 100 88 97 100 100 100 100 100 100 89 96 87 99 94 66 99 100 99 100 100 100 100 100 100 100 100 55 5 5 5 5 5 5 5
100 99 74 100 64 100 100 100 84 87 80 74 88 99 100 100 100 100 88 65 78 95 100 99 97 99 100 100 100 100 100 100 100 100 100 100 9 5 5 5 5 5 5 5
100 100 100 100 100 91 100 93 57 76 63 99 93 94 88 95 100 88 87 96 80 100 96 99 100 100 100 100 100 100 100 100 100 100 100 100 41 5 45 28 5 5 5 13
100 100 100 100 97 87 64 100 100 93 99 94 54 88 73 100 100 100 100 100 100 100 100 98 100 100 100 100 100 100 100 100 100 100 100 100 14 5 33 35 28 5 5 5
100 100 100 99 99 100 100 100 100 100 96 100 100 93 97 100 100 100 100 100 100 100 100 96 100 100 100 100 100 100 100 100 100 100 100 100 61 31 5 63 89 68 6 65

GFSNW_prec_cloud_141.txt.gz
Cloud_Cover
100 100 100 100 100 100 100 100 56 69 80 99 100 99 49 5 84 100 69 5 0 5 3 5 4 5 0 0 5 5 99 8 4 4 97 100 100 100 100 100 67 100 56 14
100 100 100 100 100 100 100 100 100 100 48 100 100 96 100 65 58 4 0 0 0 0 0 0 0 0 0 0 0 34 97 9 17 100 100 100 80 100 100 100 100 96 97 24
40 89 100 100 100 100 100 100 100 100 100 49 28 98 55 98 70 9 5 0 0 0 4 4 5 88 12 0 0 49 100 100 99 95 94 75 100 99 100 100 100 100 100 100
80 87 22 66 85 100 100 100 82 74 89 100 86 46 5 18 93 82 22 5 3 21 20 6 2 2 85 96 54 59 91 90 100 100 98 100 100 92 100 100 100 100 100 100
100 100 100 91 64 75 100 100 100 100 82 5 95 99 55 84 83 76 94 37 5 1 0 1 5 5 1 28 7 6 69 100 100 100 100 100 100 100 100 100 100 100 100 100
100 100 100 100 98 91 100 100 100 100 99 61 88 54 71 18 88 100 100 11 75 69 100 5 0 9 96 100 100 73 100 100 100 100 100 100 100 100 100 100 100 100 100 100
100 100 100 100 100 100 100 100 100 100 100 100 73 91 91 100 100 97 99 100 96 100 100 92 66 96 100 100 40 93 100 100 100 100 100 100 100 100 100 100 100 100 100 100
100 100 100 100 100 100 100 100 100 100 100 63 97 98 99 100 100 100 100 62 60 100 81 96 100 100 76 38 100 100 100 100 100 100 100 100 100 100 100 100 100 100 100 100
100 100 100 100 100 100 100 100 100 100 100 87 77 100 100 100 100 100 100 96 100 80 100 100 96 29 44 100 100 100 100 100 100 100 100 100 96 100 100 100 100 100 100 100
100 100 100 100 100 100 100 100 100 100 100 99 100 99 94 100 100 100 100 90 90 81 100 100 100 100 100 94 100 100 100 100 100 100 100 81 100 100 100 100 100 100 100 100
100 100 100 100 100 100 100 73 87 100 100 100 100 100 100 100 100 93 100 100 91 100 100 100 100 94 93 100 100 100 100 98 100 100 100 88 85 100 100 100 100 100 100 100
100 100 100 100 100 100 100 100 94 100 100 100 100 100 100 100 99 100 100 100 100 100 100 100 100 100 93 100 100 100 100 100 100 100 100 94 100 100 100 100 100 100 100 89
100 100 100 100 100 98 100 97 100 100 100 100 100 100 100 100 100 100 100 100 100 100 100 100 100 98 85 95 100 100 100 100 83 100 100 100 100 100 100 100 100 100 17 5
100 100 100 100 100 100 100 100 100 100 100 100 100 100 100 100 100 100 100 100 100 100 100 93 100 100 100 100 100 100 100 92 97 100 100 100 100 100 100 100 89 5 5 10
100 100 100 100 100 100 100 100 100 100 100 100 100 100 100 100 100 100 100 100 100 100 100 100 98 98 100 95 98 100 99 75 90 100 100 100 92 100 100 20 13 5 5 5
88 94 100 100 100 100 100 100 100 100 100 100 100 100 100 100 100 100 100 100 100 100 100 100 91 98 100 100 100 100 87 68 100 100 98 98 100 100 94 67 5 5 5 5
85 100 100 100 100 100 100 100 100 100 100 100 100 100 100 100 100 100 100 100 100 100 100 100 100 100 100 100 100 48 75 100 100 100 100 100 100 100 100 49 5 5 5 5
100 100 100 100 100 100 100 100 100 100 100 100 100 100 100 100 100 100 100 100 100 96 99 100 100 100 100 100 81 55 100 100 100 100 100 100 100 100 100 83 44 5 5 14
100 100 100 100 100 100 100 100 100 100 100 100 100 100 100 100 100 100 94 100 94 52 82 100 91 100 100 81 41 99 100 100 100 100 100 100 100 100 100 89 78 14 9 7
100 100 100 100 100 100 100 100 100 100 100 100 100 100 100 99 100 100 100 100 96 99 100 98 100 100 100 100 100 100 100 100 100 100 100 100 94 100 97 80 51 5 5 5
100 100 100 100 100 100 100 100 100 100 100 100 100 100 100 98 93 80 74 91 66 66 83 99 100 100 58 99 100 100 100 100 100 100 100 100 100 100 100 77 27 5 5 5
100 100 100 100 100 100 100 98 100 100 100 100 100 100 100 100 100 100 100 94 99 99 76 99 100 99 60 66 61 85 100 100 100 100 100 100 100 100 100 92 72 41 7 5
100 100 100 100 100 98 99 100 100 100 100 100 100 100 100 100 100 100 100 100 100 100 93 100 100 100 100 100 100 100 100 100 100 100 100 100 100 100 100 100 100 47 44 6
100 100 100 100 100 100 100 100 100 100 100 100 98 100 100 100 100 67 100 95 78 94 99 96 99 100 100 100 100 100 100 100 100 100 100 100 100 100 100 100 100 40 58 7
100 100 100 100 100 100 100 100 100 100 100 100 98 86 96 100 100 97 70 84 100 100 100 100 99 79 99 100 100 100 100 100 100 100 100 100 100 100 100 100 100 71 43 53
99 72 100 100 100 99 100 100 100 100 100 100 79 93 99 100 100 100 100 100 100 100 100 100 100 100 100 100 100 100 100 100 100 100 100 100 100 100 100 100 100 96 66 90
92 100 100 99 98 100 100 100 100 100 100 94 100 95 85 77 62 100 98 85 84 100 100 100 100 100 100 100 100 100 100 100 100 100 100 100 100 100 100 100 100 100 93 85

GFSNW_prec_cloud_144.txt.gz
Cloud_Cover
100 100 100 100 100 100 100 100 100 100 100 99 97 100 100 100 100 100 90 70 9 14 15 0 1 0 0 5 5 5 40 36 2 2 28 5 67 41 100 100 92 90 93 2
100 100 100 100 100 100 100 97 82 100 90 100 90 51 40 36 100 100 75 19 98 52 0 0 0 0 2 2 3 5 12 5 5 20 100 100 6 9 79 97 100 100 100 12
100 100 100 100 100 100 100 100 93 100 100 78 38 71 100 100 92 70 99 100 85 4 3 4 1 5 0 0 5 0 42 25 5 41 36 91 100 50 97 100 100 100 86 100
100 100 100 100 100 100 100 99 57 85 94 100 100 100 98 97 100 100 100 16 4 5 36 8 0 2 0 1 5 27 27 16 5 8 5 15 87 79 100 100 62 98 89 100
100 100 100 100 100 96 96 100 64 79 70 54 100 99 100 100 100 82 17 5 61 100 96 5 46 49 3 4 4 5 69 40 100 5 6 69 100 100 100 100 100 94 96 95
100 100 100 100 100 46 100 100 60 97 19 24 74 63 38 53 74 39 20 66 100 100 14 52 28 8 2 1 5 70 67 96 83 90 40 100 100 100 100 100 100 100 100 100
100 100 100 100 100 100 100 100 100 100 88 100 89 8 19 5 5 65 90 100 100 100 94 80 80 100 99 44 4 32 100 100 100 100 100 100 100 100 100 100 100 100 100 100
100 100 100 100 100 100 100 100 100 100 100 99 69 81 100 70 89 100 100 93 100 100 100 100 100 74 94 66 6 64 89 94 100 100 100 100 100 100 100 100 100 100 100 100
100 100 100 100 100 100 100 100 100 100 100 100 100 94 8 80 100 99 99 100 100 100 100 100 73 29 96 97 63 19 100 100 100 100 100 100 100 100 100 98 94 100 100 100
100 100 100 100 100 100 100 100 100 100 100 100 100 100 97 100 100 100 100 100 100 100 100 100 34 20 63 68 21 90 96 100 100 100 100 100 100 93 97 65 100 100 100 100
100 100 100 100 100 100 100 100 100 96 100 100 64 97 100 100 100 100 100 100 100 100 100 98 36 7 7 10 87 100 100 100 100 100 100 100 88 100 100 100 100 100 100 100
100 100 100 100 100 100 100 100 100 100 100 100 100 100 100 100 100 100 100 72 84 96 100 100 100 97 68 97 100 100 100 100 100 100 100 90 100 95 99 100 100 100 100 100
100 100 100 100 100 100 100 100 100 100 100 100 100 100 100 100 100 100 100 100 96 100 100 100 100 57 90 100 100 100 100 100 95 100 100 100 100 100 100 100 100 100 100 100
100 100 100 100 100 100 100 100 100 100 100 100 100 100 100 100 100 100 100 99 99 100 100 100 99 100 99 100 100 90 96 100 100 100 100 100 100 100 100 100 100 100 100 70
100 100 100 100 100 100 100 100 100 100 100 100 100 100 100 100 100 100 100 100 100 100 100 100 100 100 98 100 100 100 95 96 97 100 100 100 100 100 100 100 100 100 76 75
100 100 100 100 100 100 100 100 97 97 100 100 100 100 100 100 100 100 100 100 100 100 100 100 100 100 100 100 100 100 100 100 100 100 100 100 100 100 100 100 100 100 44 51
100 100 100 100 100 100 100 92 87 100 100 100 100 100 100 100 100 100 100 100 100 100 100 100 100 100 100 100 100 100 100 100 100 100 100 100 100 100 100 100 100 76 54 44
100 100 100 100 100 100 100 93 100 100 100 100 100 100 100 100 100 100 100 100 100 100 100 100 100 100 85 99 100 100 96 100 100 100 100 100 100 100 100 100 87 56 30 33
100 100 100 100 100 100 100 100 100 100 100 100 100 100 100 100 100 100 100 100 100 100 100 100 100 100 100 100 100 100 100 79 100 100 100 100 100 100 94 72 60 100 92 66
100 100 100 100 100 100 100 100 100 100 100 100 100 100 100 100 100 100 100 100 100 100 100 84 99 100 100 84 100 100 99 98 100 100 100 100 100 100 100 98 56 100 88 50
100 100 100 100 100 100 100 100 100 100 100 100 100 100 100 100 100 100 100 100 100 100 100 100 100 97 96 100 99 100 100 100 100 100 100 100 100 100 99 96 100 100 100 58
100 100 100 100 100 100 100 100 100 100 100 100 100 100 100 100 100 100 100 100 100 100 100 100 100 99 99 100 100 100 100 100 100 100 87 78 92 100 100 100 100 100 100 100
100 100 100 100 100 100 100 100 100 100 100 100 100 100 100 100 100 100 100 100 100 100 100 100 100 100 100 100 100 100 100 100 100 98 100 99 78 73 58 94 100 100 100 77
100 100 100 100 100 100 100 100 100 100 100 100 100 100 100 100 100 100 100 100 100 100 100 100 100 100 98 94 77 64 75 94 100 100 100 100 100 100 100 100 100 100 100 100
100 100 100 100 100 100 100 100 100 100 100 100 100 100 100 100 100 100 100 100 100 100 100 100 100 100 100 100 100 76 73 77 88 94 80 72 100 95 100 100 100 100 100 100
100 100 100 100 100 100 100 100 100 100 100 100 100 100 100 100 100 100 100 100 100 100 100 100 100 100 100 100 100 100 100 100 98 100 100 100 100 99 100 100 100 100 100 100
100 100 100 98 94 100 100 100 100 100 100 100 100 100 100 100 100 100 100 100 100 100 100 100 100 100 100 100 97 94 100 100 100 100 100 98 94 100 100 100 100 100 100 100